ftp/pub/palmer/observations_modified/2019/October/original_files/AR191011_BASE.txt
Download
Sample DateTime Unit Id WS Avg 2min WD Avg 2min WGS 10min WGD 10min Air Temp Rel Humidity Dew Point Pyranometer Quantum Air Pressure Snow Level Rainfall PW Current Visibility CBase 1 CBase 2 CBase 3 Vert Vis
2019/10/11 00:00:00 BASE 3.20 301 4.99 288 -6.3 100 -6.3 0 0 980.4 NA 0.0000 -SN BR 6000 0 0 0 5280
2019/10/11 00:01:00 BASE 2.65 299 4.99 288 -6.4 100 -6.4 0 0 980.5 NA 0.0000 -SN BR 8000 0 0 0 5180
2019/10/11 00:02:00 BASE 2.24 303 4.99 288 -6.4 100 -6.4 0 0 980.5 NA 0.0000 -SN BR 6000 0 0 0 5280
2019/10/11 00:03:00 BASE 1.94 318 4.99 288 -6.5 100 -6.5 0 0 980.5 NA 0.0000 -SN BR 5000 0 0 0 5410
2019/10/11 00:04:00 BASE 2.22 320 4.99 288 -6.5 100 -6.5 0 0 980.6 NA 0.0000 -SN BR 5000 0 0 0 5350
2019/10/11 00:05:00 BASE 2.33 319 4.99 288 -6.5 100 -6.5 0 0 980.6 NA 0.0000 -SN BR 5000 0 0 0 5320
2019/10/11 00:06:00 BASE 2.26 322 4.63 289 -6.5 100 -6.5 0 0 980.6 NA 0.0000 -SN BR 4600 0 0 0 5350
2019/10/11 00:07:00 BASE 2.55 327 4.22 295 -6.6 100 -6.6 0 0 980.6 NA 0.0000 -SN BR 5000 0 0 0 5320
2019/10/11 00:08:00 BASE 3.01 322 3.96 316 -6.5 100 -6.5 0 0 980.6 NA 0.0000 -SN BR 5000 0 0 0 5320
2019/10/11 00:09:00 BASE 2.82 313 3.96 316 -6.5 100 -6.5 0 0 980.6 NA 0.0000 -SN BR 5000 0 0 0 5350
2019/10/11 00:10:00 BASE 2.34 315 3.96 316 -6.5 100 -6.5 0 0 980.6 NA 0.0000 -SN BR 5000 0 0 0 5320
2019/10/11 00:11:00 BASE 2.19 320 3.96 316 -6.6 100 -6.6 0 0 980.6 NA 0.0000 -SN BR 5000 0 0 0 6200
2019/10/11 00:12:00 BASE 2.45 320 3.96 316 -6.6 100 -6.6 0 0 980.6 NA 0.0000 -SN BR 4500 0 0 0 5320
2019/10/11 00:13:00 BASE 2.78 316 3.96 316 -6.6 100 -6.6 0 0 980.6 NA 0.0000 -SN BR 4500 0 0 0 6300
2019/10/11 00:14:00 BASE 2.75 317 3.96 316 -6.6 100 -6.6 0 0 980.6 NA 0.0000 -SN BR 5000 0 0 0 6230
2019/10/11 00:15:00 BASE 2.73 323 3.96 316 -6.7 100 -6.7 0 0 980.7 NA 0.0000 -SN BR 4900 0 0 0 6230
2019/10/11 00:16:00 BASE 2.87 326 3.96 316 -6.7 100 -6.7 0 0 980.7 NA 0.0000 -SN BR 5000 0 0 0 6170
2019/10/11 00:17:00 BASE 3.06 328 3.96 316 -6.7 100 -6.7 0 0 980.7 NA 0.0000 -SN BR 5000 0 0 0 6200
2019/10/11 00:18:00 BASE 3.27 329 3.65 325 -6.7 100 -6.7 0 0 980.7 NA 0.0000 -SN BR 5000 0 0 0 6270
2019/10/11 00:19:00 BASE 3.44 328 3.70 323 -6.7 100 -6.7 0 0 980.7 NA 0.0000 -SN BR 6000 0 0 0 6270
2019/10/11 00:20:00 BASE 3.43 326 3.70 323 -6.7 100 -6.7 0 0 980.7 NA 0.0000 -SN BR 8000 0 0 0 6270
2019/10/11 00:21:00 BASE 3.37 327 3.70 323 -6.7 100 -6.7 0 0 980.7 NA 0.0000 -SN BR 8000 0 0 0 6400
2019/10/11 00:22:00 BASE 3.33 324 3.70 323 -6.7 100 -6.7 0 0 980.7 NA 0.0000 -SN BR 8000 0 0 0 6370
2019/10/11 00:23:00 BASE 3.28 321 3.70 323 -6.7 100 -6.7 0 0 980.7 NA 0.0000 -SN BR 8000 0 0 0 7120
2019/10/11 00:24:00 BASE 3.29 322 3.70 323 -6.6 100 -6.6 0 0 980.7 NA 0.0000 -SN BR 8000 0 0 0 7120
2019/10/11 00:25:00 BASE 3.29 321 3.70 323 -6.6 100 -6.6 0 0 980.7 NA 0.0000 -SN BR 7000 0 0 0 7050
2019/10/11 00:26:00 BASE 3.19 323 3.70 323 -6.6 100 -6.6 0 0 980.7 NA 0.0000 -SN BR 7000 0 0 0 7020
2019/10/11 00:27:00 BASE 3.22 324 3.70 323 -6.6 100 -6.6 0 0 980.8 NA 0.0000 -SN BR 7000 0 0 0 6960
2019/10/11 00:28:00 BASE 3.47 320 4.12 315 -6.6 100 -6.6 0 0 980.8 NA 0.0000 -SN BR 7000 0 0 0 6920
2019/10/11 00:29:00 BASE 3.74 313 4.12 315 -6.6 100 -6.6 0 0 980.8 NA 0.0000 BR 7000 0 0 0 6820
2019/10/11 00:30:00 BASE 3.66 311 4.12 315 -6.6 100 -6.6 0 0 980.8 NA 0.0000 BR 7000 0 0 0 6820
2019/10/11 00:31:00 BASE 3.46 313 4.12 315 -6.6 100 -6.6 0 0 980.8 NA 0.0000 BR 7000 0 0 0 6820
2019/10/11 00:32:00 BASE 3.58 312 4.37 307 -6.6 100 -6.6 0 0 980.8 NA 0.0000 BR 7000 0 0 0 6820
2019/10/11 00:33:00 BASE 3.68 310 4.37 307 -6.6 100 -6.6 0 0 980.8 NA 0.0000 BR 7000 0 0 0 6790
2019/10/11 00:34:00 BASE 3.80 307 4.37 303 -6.7 100 -6.7 0 0 980.8 NA 0.0000 BR 7000 0 0 0 6760
2019/10/11 00:35:00 BASE 3.85 305 4.37 303 -6.7 100 -6.7 0 0 980.8 NA 0.0000 BR 7000 0 0 0 6690
2019/10/11 00:36:00 BASE 3.77 304 4.37 303 -6.7 100 -6.7 0 0 980.8 NA 0.0000 BR 7000 0 0 0 6590
2019/10/11 00:37:00 BASE 3.76 304 4.37 303 -6.7 100 -6.7 0 0 980.8 NA 0.0000 BR 7000 0 0 0 6500
2019/10/11 00:38:00 BASE 3.68 303 4.37 303 -6.7 100 -6.7 0 0 980.8 NA 0.0000 BR 7000 0 0 0 6460
2019/10/11 00:39:00 BASE 3.48 301 4.37 303 -6.7 100 -6.7 0 0 980.8 NA 0.0000 BR 6000 0 0 0 6400
2019/10/11 00:40:00 BASE 3.19 300 4.37 303 -6.8 100 -6.8 0 0 980.8 NA 0.0000 BR 6000 0 0 0 6370
2019/10/11 00:41:00 BASE 3.11 299 4.37 303 -6.8 100 -6.8 0 0 980.8 NA 0.0000 BR 6000 0 0 0 6300
2019/10/11 00:42:00 BASE 3.17 301 4.37 303 -6.8 100 -6.8 0 0 980.8 NA 0.0000 BR 6000 0 0 0 6270
2019/10/11 00:43:00 BASE 3.27 302 4.37 303 -6.7 100 -6.7 0 0 980.8 NA 0.0000 BR 6000 0 0 0 6370
2019/10/11 00:44:00 BASE 3.56 303 4.37 301 -6.7 100 -6.7 0 0 980.8 NA 0.0000 BR 6000 0 0 0 6400
2019/10/11 00:45:00 BASE 3.89 304 4.42 298 -6.7 100 -6.7 0 0 980.8 NA 0.0000 -SN BR 6000 0 0 0 6500
2019/10/11 00:46:00 BASE 3.84 304 4.42 298 -6.7 100 -6.7 0 0 980.8 NA 0.0000 -SN BR 6000 0 0 0 6530
2019/10/11 00:47:00 BASE 3.69 308 4.42 298 -6.7 100 -6.7 0 0 980.8 NA 0.0000 -SN BR 6000 0 0 0 6500
2019/10/11 00:48:00 BASE 3.72 311 4.42 298 -6.6 100 -6.6 0 0 980.8 NA 0.0000 -SN BR 6000 0 0 0 6460
2019/10/11 00:49:00 BASE 3.51 312 4.42 298 -6.6 100 -6.6 0 0 980.8 NA 0.0000 -SN BR 6000 0 0 0 6430
2019/10/11 00:50:00 BASE 3.31 315 4.42 298 -6.6 100 -6.6 0 0 980.8 NA 0.0000 -SN BR 7000 0 0 0 6400
2019/10/11 00:51:00 BASE 3.19 316 4.42 298 -6.7 100 -6.7 0 0 980.8 NA 0.0000 -SN BR 9000 0 0 0 6430
2019/10/11 00:52:00 BASE 3.15 315 4.42 298 -6.7 100 -6.7 0 0 980.8 NA 0.0000 -SN BR 9000 0 0 0 6460
2019/10/11 00:53:00 BASE 3.22 316 4.42 298 -6.8 100 -6.8 0 0 980.8 NA 0.0000 -SN BR 9000 0 0 0 6460
2019/10/11 00:54:00 BASE 3.24 318 4.42 298 -6.8 100 -6.8 0 0 980.8 NA 0.0000 -SN BR 7000 0 0 0 6500
2019/10/11 00:55:00 BASE 3.22 319 4.06 313 -6.8 100 -6.8 0 0 980.8 NA 0.0000 -SN BR 5000 0 0 0 6530
2019/10/11 00:56:00 BASE 3.19 317 4.06 313 -6.9 100 -6.9 0 0 980.8 NA 0.0000 -SN BR 6000 0 0 0 6560
2019/10/11 00:57:00 BASE 3.28 315 4.06 313 -6.9 100 -6.9 0 0 980.8 NA 0.0000 -SN BR 5000 0 0 0 6660
2019/10/11 00:58:00 BASE 3.29 315 3.65 315 -6.9 100 -6.9 0 0 980.8 NA 0.0000 -SN BR 5000 0 0 0 6730
2019/10/11 00:59:00 BASE 3.18 316 3.65 315 -6.9 100 -6.9 0 0 980.8 NA 0.0000 -SN BR 6000 0 0 0 6790
2019/10/11 01:00:00 BASE 3.13 317 3.55 313 -6.9 100 -6.9 0 0 980.8 NA 0.0000 -SN BR 5000 0 0 0 6890
2019/10/11 01:01:00 BASE 3.19 317 3.55 313 -6.9 100 -6.9 0 0 980.8 NA 0.0000 -SN BR 6000 0 0 0 6990
2019/10/11 01:02:00 BASE 3.19 318 3.55 313 -6.9 100 -6.9 0 0 980.8 NA 0.0000 -SN BR 7000 0 0 0 6920
2019/10/11 01:03:00 BASE 3.14 322 3.55 313 -6.8 100 -6.8 0 0 980.8 NA 0.0000 -SN BR 7000 0 0 0 7020
2019/10/11 01:04:00 BASE 3.17 323 3.55 313 -6.8 100 -6.8 0 0 980.8 NA 0.0000 -SN BR 7000 0 0 0 6990
2019/10/11 01:05:00 BASE 3.34 322 3.65 317 -6.8 100 -6.8 0 0 980.8 NA 0.0000 -SN BR 7000 0 0 0 7090
2019/10/11 01:06:00 BASE 3.47 322 3.65 319 -6.8 100 -6.8 0 0 980.8 NA 0.0000 -SN BR 7000 0 0 0 6960
2019/10/11 01:07:00 BASE 3.50 320 3.70 315 -6.8 100 -6.8 0 0 980.8 NA 0.0000 -SN BR 7000 0 0 0 6790
2019/10/11 01:08:00 BASE 3.55 319 3.76 315 -6.8 100 -6.8 0 0 980.9 NA 0.0000 -SN BR 7000 0 0 0 6790
2019/10/11 01:09:00 BASE 3.67 318 3.91 314 -6.8 100 -6.8 0 0 980.9 NA 0.0000 -SN BR 7000 0 0 0 6690
2019/10/11 01:10:00 BASE 3.79 315 3.91 315 -6.8 100 -6.8 0 0 980.9 NA 0.0000 -SN BR 7000 0 0 0 7870
2019/10/11 01:11:00 BASE 3.82 315 3.91 317 -6.8 100 -6.8 0 0 980.9 NA 0.0000 -SN BR 7000 0 0 0 8100
2019/10/11 01:12:00 BASE 3.87 315 4.01 315 -6.8 100 -6.8 0 0 980.9 NA 0.0000 BR 7000 0 0 0 8270
2019/10/11 01:13:00 BASE 3.95 314 4.17 313 -6.9 100 -6.9 0 0 980.9 NA 0.0000 BR 7000 0 0 0 8170
2019/10/11 01:14:00 BASE 4.09 312 4.37 312 -6.9 100 -6.9 0 0 980.9 NA 0.0000 BR 7000 0 0 0 8200
2019/10/11 01:15:00 BASE 4.18 311 4.37 312 -6.8 100 -6.8 0 0 980.9 NA 0.0000 BR 7000 0 0 0 8200
2019/10/11 01:16:00 BASE 4.10 309 4.37 312 -6.8 100 -6.8 0 0 980.9 NA 0.0000 BR 7000 0 0 0 6460
2019/10/11 01:17:00 BASE 4.06 308 4.37 312 -6.7 100 -6.7 0 0 980.9 NA 0.0000 BR 7000 0 0 0 5710
2019/10/11 01:18:00 BASE 4.11 308 4.37 312 -6.7 100 -6.7 0 0 980.9 NA 0.0000 BR 7000 0 0 0 6500
2019/10/11 01:19:00 BASE 4.05 308 4.37 312 -6.7 100 -6.7 0 0 980.9 NA 0.0000 BR 7000 0 0 0 5350
2019/10/11 01:20:00 BASE 3.93 308 4.37 312 -6.7 100 -6.7 0 0 980.9 NA 0.0000 BR 7000 0 0 0 5510
2019/10/11 01:21:00 BASE 3.81 309 4.37 312 -6.7 100 -6.7 0 0 980.9 NA 0.0000 BR 7000 0 0 0 8170
2019/10/11 01:22:00 BASE 3.75 310 4.37 312 -6.7 100 -6.7 0 0 980.9 NA 0.0000 BR 7000 0 0 0 7970
2019/10/11 01:23:00 BASE 3.76 310 4.37 312 -6.7 100 -6.7 0 0 980.9 NA 0.0000 BR 7000 0 0 0 8070
2019/10/11 01:24:00 BASE 3.72 310 4.32 310 -6.7 100 -6.7 0 0 980.9 NA 0.0000 BR 7000 0 0 0 8330
2019/10/11 01:25:00 BASE 3.63 312 4.22 308 -6.7 100 -6.7 0 0 980.9 NA 0.0000 BR 7000 0 0 0 8330
2019/10/11 01:26:00 BASE 3.53 313 4.17 311 -6.7 100 -6.7 0 0 980.9 NA 0.0000 BR 7000 0 0 0 8240
2019/10/11 01:27:00 BASE 3.42 313 4.17 311 -6.7 100 -6.7 0 0 980.9 NA 0.0000 BR 7000 0 0 0 8240
2019/10/11 01:28:00 BASE 3.27 315 4.06 308 -6.6 100 -6.6 0 0 980.9 NA 0.0000 BR 7000 0 0 0 8300
2019/10/11 01:29:00 BASE 3.21 315 4.01 306 -6.6 100 -6.6 0 0 980.9 NA 0.0000 BR 6000 0 0 0 8270
2019/10/11 01:30:00 BASE 3.24 315 3.91 309 -6.6 100 -6.6 0 0 980.9 NA 0.0000 BR 6000 0 0 0 8270
2019/10/11 01:31:00 BASE 3.20 316 3.91 309 -6.6 100 -6.6 0 0 980.9 NA 0.0000 BR 6000 0 0 0 8240
2019/10/11 01:32:00 BASE 3.09 316 3.86 308 -6.7 100 -6.7 0 0 980.9 NA 0.0000 BR 6000 0 0 0 8170
2019/10/11 01:33:00 BASE 2.98 316 3.76 310 -6.7 100 -6.7 0 0 980.9 NA 0.0000 BR 6000 0 0 0 8040
2019/10/11 01:34:00 BASE 2.93 317 3.65 314 -6.8 100 -6.8 0 0 980.9 NA 0.0000 BR 6000 0 0 0 7940
2019/10/11 01:35:00 BASE 2.90 318 3.60 311 -6.8 100 -6.8 0 0 980.9 NA 0.0000 BR 5000 0 0 0 7810
2019/10/11 01:36:00 BASE 2.87 318 3.50 315 -6.8 100 -6.8 0 0 980.9 NA 0.0000 -SN BR 5000 0 0 0 7640
2019/10/11 01:37:00 BASE 2.89 317 3.45 321 -6.9 100 -6.9 0 0 980.9 NA 0.0000 -SN BR 5000 0 0 0 7610
2019/10/11 01:38:00 BASE 2.84 316 3.45 321 -6.9 100 -6.9 0 0 980.9 NA 0.0000 -SN BR 4800 0 0 0 7550
2019/10/11 01:39:00 BASE 2.74 315 3.45 321 -6.9 100 -6.9 0 0 980.9 NA 0.0000 -SN BR 5000 0 0 0 7480
2019/10/11 01:40:00 BASE 2.72 313 3.40 315 -6.9 100 -6.9 0 0 980.9 NA 0.0000 -SN BR 6000 0 0 0 7510
2019/10/11 01:41:00 BASE 2.81 311 3.19 315 -6.9 100 -6.9 0 0 980.9 NA 0.0000 -SN BR 6000 0 0 0 7480
2019/10/11 01:42:00 BASE 2.79 312 3.04 316 -6.9 100 -6.9 0 0 980.9 NA 0.0000 -SN BR 6000 0 0 0 7450
2019/10/11 01:43:00 BASE 2.77 313 3.04 316 -6.9 100 -6.9 0 0 980.9 NA 0.0000 -SN BR 6000 0 0 0 7380
2019/10/11 01:44:00 BASE 2.85 311 3.04 316 -6.9 100 -6.9 0 0 981.0 NA 0.0000 -SN BR 6000 0 0 0 7220
2019/10/11 01:45:00 BASE 2.83 312 3.04 316 -6.8 100 -6.8 0 0 981.0 NA 0.0000 -SN BR 6000 0 0 0 7090
2019/10/11 01:46:00 BASE 2.81 313 3.04 316 -6.8 100 -6.8 0 0 981.0 NA 0.0000 -SN BR 6000 0 0 0 6990
2019/10/11 01:47:00 BASE 2.77 314 2.98 310 -6.8 100 -6.8 0 0 981.0 NA 0.0000 -SN BR 6000 0 0 0 6920
2019/10/11 01:48:00 BASE 2.68 316 2.98 310 -6.9 100 -6.9 0 0 981.0 NA 0.0000 -SN BR 6000 0 0 0 6820
2019/10/11 01:49:00 BASE 2.61 317 2.98 310 -6.9 100 -6.9 0 0 981.0 NA 0.0000 -SN BR 6000 0 0 0 6760
2019/10/11 01:50:00 BASE 2.63 319 2.98 310 -6.9 100 -6.9 0 0 981.0 NA 0.0000 -SN BR 5000 0 0 0 6690
2019/10/11 01:51:00 BASE 2.64 319 2.98 310 -6.9 100 -6.9 0 0 981.0 NA 0.0000 -SN BR 5000 0 0 0 6730
2019/10/11 01:52:00 BASE 2.59 319 2.98 310 -6.9 100 -6.9 0 0 981.0 NA 0.0000 -SN BR 5000 0 0 0 6760
2019/10/11 01:53:00 BASE 2.61 321 2.98 310 -6.9 100 -6.9 0 0 981.0 NA 0.0000 -SN BR 6000 0 0 0 6760
2019/10/11 01:54:00 BASE 2.64 323 2.98 310 -6.9 100 -6.9 0 0 981.0 NA 0.0000 -SN BR 6000 0 0 0 6760
2019/10/11 01:55:00 BASE 2.72 323 2.98 310 -6.9 100 -6.9 0 0 981.0 NA 0.0000 -SN BR 6000 0 0 0 6730
2019/10/11 01:56:00 BASE 2.76 323 2.93 319 -6.9 100 -6.9 0 0 981.0 NA 0.0000 -SN BR 5000 0 0 0 6690
2019/10/11 01:57:00 BASE 2.81 322 2.93 323 -6.9 100 -6.9 0 0 981.0 NA 0.0000 -SN BR 4800 0 0 0 6760
2019/10/11 01:58:00 BASE 2.85 324 3.09 324 -6.9 100 -6.9 0 0 981.0 NA 0.0000 -SN BR 5000 0 0 0 8690
2019/10/11 01:59:00 BASE 2.94 324 3.29 322 -6.9 100 -6.9 0 0 981.0 NA 0.0000 -SN BR 5000 0 0 0 8600
2019/10/11 02:00:00 BASE 3.05 324 3.29 322 -6.9 100 -6.9 0 0 981.0 NA 0.0000 -SN BR 8000 0 0 0 8600
2019/10/11 02:01:00 BASE 3.09 323 3.29 322 -6.9 100 -6.9 0 0 981.0 NA 0.0000 -SN BR 6000 0 0 0 8660
2019/10/11 02:02:00 BASE 3.08 324 3.29 322 -6.9 100 -6.9 0 0 981.0 NA 0.0000 -SN BR 5000 0 0 0 8630
2019/10/11 02:03:00 BASE 3.08 327 3.29 322 -6.9 100 -6.9 0 0 981.0 NA 0.0000 -SN BR 4800 0 0 0 8530
2019/10/11 02:04:00 BASE 3.09 328 3.29 322 -6.9 100 -6.9 0 0 981.0 NA 0.0000 -SN BR 5000 0 0 0 8630
2019/10/11 02:05:00 BASE 3.10 329 3.29 322 -6.9 100 -6.9 0 0 981.0 NA 0.0000 -SN BR 6000 0 0 0 8690
2019/10/11 02:06:00 BASE 3.09 329 3.29 322 -6.9 100 -6.9 0 0 981.0 NA 0.0000 -SN BR 6000 0 0 0 8630
2019/10/11 02:07:00 BASE 3.06 330 3.29 322 -6.8 100 -6.8 0 0 981.0 NA 0.0000 -SN BR 6000 0 0 0 8460
2019/10/11 02:08:00 BASE 3.07 331 3.29 322 -6.8 100 -6.8 0 0 981.0 NA 0.0000 -SN BR 6000 0 0 0 8660
2019/10/11 02:09:00 BASE 3.20 330 3.50 331 -6.8 100 -6.8 0 0 981.0 NA 0.0000 -SN BR 6000 0 0 0 8630
2019/10/11 02:10:00 BASE 3.26 330 3.50 331 -6.7 100 -6.7 0 0 981.0 NA 0.0000 -SN BR 6000 0 0 0 8430
2019/10/11 02:11:00 BASE 3.18 333 3.50 331 -6.7 100 -6.7 0 0 981.0 NA 0.0000 -SN BR 6000 0 0 0 8330
2019/10/11 02:12:00 BASE 3.08 335 3.50 331 -6.7 100 -6.7 0 0 981.0 NA 0.0000 -SN BR 6000 0 0 0 5280
2019/10/11 02:13:00 BASE 2.96 337 3.50 331 -6.7 100 -6.7 0 0 981.0 NA 0.0000 -SN BR 6000 0 0 0 5410
2019/10/11 02:14:00 BASE 2.90 339 3.50 331 -6.7 100 -6.7 0 0 981.0 NA 0.0000 -SN BR 6000 0 0 0 5740
2019/10/11 02:15:00 BASE 2.87 341 3.50 331 -6.7 100 -6.7 0 0 981.0 NA 0.0000 BR 6000 0 0 0 5510
2019/10/11 02:16:00 BASE 2.84 342 3.50 331 -6.7 100 -6.7 0 0 981.0 NA 0.0000 BR 6000 0 0 0 7940
2019/10/11 02:17:00 BASE 2.81 340 3.50 331 -6.7 100 -6.7 0 0 981.0 NA 0.0000 BR 6000 0 0 0 8100
2019/10/11 02:18:00 BASE 2.77 339 3.50 331 -6.7 100 -6.7 0 0 981.0 NA 0.0000 BR 6000 0 0 0 8070
2019/10/11 02:19:00 BASE 2.79 339 3.29 333 -6.6 100 -6.6 0 0 981.0 NA 0.0000 BR 6000 0 0 0 8100
2019/10/11 02:20:00 BASE 2.88 338 3.24 336 -6.6 100 -6.6 0 0 981.0 NA 0.0000 BR 6000 0 0 0 6330
2019/10/11 02:21:00 BASE 2.93 337 3.19 339 -6.6 100 -6.6 0 0 981.0 NA 0.0000 BR 6000 0 0 0 4720
2019/10/11 02:22:00 BASE 2.86 337 3.14 338 -6.6 100 -6.6 0 0 981.0 NA 0.0000 BR 6000 0 0 0 1080
2019/10/11 02:23:00 BASE 2.80 336 3.09 336 -6.6 100 -6.6 0 0 981.0 NA 0.0000 BR 6000 0 0 0 1210
2019/10/11 02:24:00 BASE 3.06 334 3.60 330 -6.6 100 -6.6 0 0 981.0 NA 0.0000 BR 6000 0 0 0 1770
2019/10/11 02:25:00 BASE 3.10 335 3.60 330 -6.6 100 -6.6 0 0 981.0 NA 0.0000 BR 6000 300 0 0 0
2019/10/11 02:26:00 BASE 2.90 338 3.60 330 -6.7 100 -6.7 0 0 981.1 NA 0.0000 BR 6000 200 0 0 0
2019/10/11 02:27:00 BASE 3.02 339 3.60 330 -6.7 100 -6.7 0 0 981.1 NA 0.0000 BR 6000 230 0 0 0
2019/10/11 02:28:00 BASE 3.15 338 3.60 330 -6.7 100 -6.7 0 0 981.2 NA 0.0000 BR 6000 260 0 0 0
2019/10/11 02:29:00 BASE 3.05 341 3.60 330 -6.7 100 -6.7 0 0 981.1 NA 0.0000 BR 6000 300 0 0 0
2019/10/11 02:30:00 BASE 2.89 340 3.60 330 -6.7 100 -6.7 0 0 981.2 NA 0.0000 BR 6000 300 0 0 0
2019/10/11 02:31:00 BASE 2.92 333 3.60 330 -6.7 100 -6.7 0 0 981.2 NA 0.0000 BR 6000 330 0 0 0
2019/10/11 02:32:00 BASE 3.17 333 3.60 330 -6.7 100 -6.7 0 0 981.2 NA 0.0000 BR 6000 300 0 0 0
2019/10/11 02:33:00 BASE 3.28 336 3.60 330 -6.8 100 -6.8 0 0 981.2 NA 0.0000 BR 6000 300 0 0 0
2019/10/11 02:34:00 BASE 3.23 333 3.45 338 -6.8 100 -6.8 0 0 981.2 NA 0.0000 BR 6000 260 0 0 0
2019/10/11 02:35:00 BASE 3.24 329 3.50 323 -6.8 100 -6.8 0 0 981.2 NA 0.0000 BR 6000 300 0 0 0
2019/10/11 02:36:00 BASE 3.36 324 3.65 318 -6.8 100 -6.8 0 0 981.2 NA 0.0000 BR 6000 300 0 0 0
2019/10/11 02:37:00 BASE 3.37 322 3.65 318 -6.8 100 -6.8 0 0 981.2 NA 0.0000 BR 6000 300 0 0 0
2019/10/11 02:38:00 BASE 3.34 321 3.70 318 -6.7 100 -6.7 0 0 981.2 NA 0.0000 BR 6000 300 0 0 0
2019/10/11 02:39:00 BASE 3.47 320 3.70 318 -6.7 100 -6.7 0 0 981.2 NA 0.0000 BR 6000 300 0 0 0
2019/10/11 02:40:00 BASE 3.59 320 3.81 321 -6.7 100 -6.7 0 0 981.2 NA 0.0000 BR 6000 260 0 0 0
2019/10/11 02:41:00 BASE 3.69 323 3.91 328 -6.7 100 -6.7 0 0 981.2 NA 0.0000 BR 6000 260 0 0 0
2019/10/11 02:42:00 BASE 3.73 327 4.01 329 -6.7 100 -6.7 0 0 981.2 NA 0.0000 -SN BR 6000 300 0 0 0
2019/10/11 02:43:00 BASE 3.63 330 4.01 329 -6.7 100 -6.7 0 0 981.2 NA 0.0000 -SN BR 6000 300 0 0 0
2019/10/11 02:44:00 BASE 3.46 332 4.01 329 -6.7 100 -6.7 0 0 981.2 NA 0.0000 -SN BR 6000 300 0 0 0
2019/10/11 02:45:00 BASE 3.34 332 4.01 329 -6.7 100 -6.7 0 0 981.2 NA 0.0000 -SN BR 6000 300 0 0 0
2019/10/11 02:46:00 BASE 3.19 330 4.01 329 -6.7 100 -6.7 0 0 981.2 NA 0.0000 -SN BR 5000 260 0 0 0
2019/10/11 02:47:00 BASE 3.11 329 4.01 329 -6.7 100 -6.7 0 0 981.2 NA 0.0000 -SN BR 5000 230 0 0 0
2019/10/11 02:48:00 BASE 3.11 328 4.01 329 -6.6 100 -6.6 0 0 981.2 NA 0.0000 -SN BR 4200 0 0 0 1050
2019/10/11 02:49:00 BASE 3.02 328 4.01 329 -6.6 100 -6.6 0 0 981.2 NA 0.0000 -SN BR 3800 0 0 0 1120
2019/10/11 02:50:00 BASE 2.97 334 4.01 329 -6.6 100 -6.6 0 0 981.2 NA 0.0000 -SN BR 2700 0 0 0 1150
2019/10/11 02:51:00 BASE 3.10 340 4.01 329 -6.6 100 -6.6 0 0 981.2 NA 0.0000 -SN BR 2700 0 0 0 1250
2019/10/11 02:52:00 BASE 3.25 343 3.65 333 -6.6 100 -6.6 0 0 981.2 NA 0.0000 -SN BR 3700 230 0 0 0
2019/10/11 02:53:00 BASE 3.27 343 3.55 334 -6.6 100 -6.6 0 0 981.2 NA 0.0000 -SN BR 4900 230 0 0 0
2019/10/11 02:54:00 BASE 3.41 342 3.76 340 -6.6 100 -6.6 0 0 981.2 NA 0.0000 -SN BR 6000 260 0 0 0
2019/10/11 02:55:00 BASE 3.57 342 3.76 346 -6.6 100 -6.6 0 0 981.2 NA 0.0000 -SN BR 6000 230 0 0 0
2019/10/11 02:56:00 BASE 3.36 342 3.76 346 -6.6 100 -6.6 0 0 981.2 NA 0.0000 -SN BR 6000 0 0 0 1280
2019/10/11 02:57:00 BASE 3.23 342 3.76 346 -6.6 100 -6.6 0 0 981.2 NA 0.0000 -SN BR 4000 0 0 0 2200
2019/10/11 02:58:00 BASE 3.24 343 3.76 346 -6.6 100 -6.6 0 0 981.2 NA 0.0000 -SN BR 4400 0 0 0 1080
2019/10/11 02:59:00 BASE 3.29 342 3.76 346 -6.6 100 -6.6 0 0 981.2 NA 0.0000 -SN BR 5000 0 0 0 1020
2019/10/11 03:00:00 BASE 3.44 343 3.76 346 -6.6 100 -6.6 0 0 981.2 NA 0.0000 -SN BR 4500 0 0 0 2030
2019/10/11 03:01:00 BASE 3.39 345 3.76 346 -6.6 100 -6.6 0 0 981.2 NA 0.0000 -SN BR 5000 0 0 0 2300
2019/10/11 03:02:00 BASE 3.16 343 3.76 346 -6.6 100 -6.6 0 0 981.2 NA 0.0000 -SN BR 5000 0 0 0 3220
2019/10/11 03:03:00 BASE 3.11 342 3.76 346 -6.6 100 -6.6 0 0 981.2 NA 0.0000 -SN BR 4300 0 0 0 2330
2019/10/11 03:04:00 BASE 2.98 341 3.76 346 -6.6 100 -6.6 0 0 981.2 NA 0.0000 -SN BR 3600 0 0 0 3410
2019/10/11 03:05:00 BASE 2.86 341 3.70 348 -6.6 100 -6.6 0 0 981.2 NA 0.0000 -SN BR 3600 0 0 0 1480
2019/10/11 03:06:00 BASE 3.13 338 3.70 348 -6.6 100 -6.6 0 0 981.2 NA 0.0000 -SN BR 3900 0 0 0 1050
2019/10/11 03:07:00 BASE 3.24 334 3.70 348 -6.6 100 -6.6 0 0 981.2 NA 0.0000 -SN BR 5000 0 0 0 980
2019/10/11 03:08:00 BASE 3.28 336 3.76 343 -6.6 100 -6.6 0 0 981.2 NA 0.0000 -SN BR 6000 0 0 0 950
2019/10/11 03:09:00 BASE 3.39 338 3.76 343 -6.6 100 -6.6 0 0 981.2 NA 0.0000 -SN BR 6000 0 0 0 950
2019/10/11 03:10:00 BASE 3.21 338 3.76 343 -6.7 100 -6.7 0 0 981.2 NA 0.0000 -SN BR 6000 0 0 0 920
2019/10/11 03:11:00 BASE 2.91 333 3.76 343 -6.7 100 -6.7 0 0 981.2 NA 0.0000 -SN BR 6000 0 0 0 1020
2019/10/11 03:12:00 BASE 2.69 323 3.76 343 -6.7 100 -6.7 0 0 981.2 NA 0.0000 -SN BR 6000 0 0 0 1210
2019/10/11 03:13:00 BASE 2.61 324 3.76 343 -6.7 100 -6.7 0 0 981.2 NA 0.0000 -SN BR 6000 0 0 0 1310
2019/10/11 03:14:00 BASE 2.70 329 3.76 343 -6.7 100 -6.7 0 0 981.2 NA 0.0000 -SN BR 6000 0 0 0 890
2019/10/11 03:15:00 BASE 2.70 324 3.76 343 -6.7 100 -6.7 0 0 981.2 NA 0.0000 -SN BR 6000 0 0 0 920
2019/10/11 03:16:00 BASE 2.54 319 3.76 343 -6.7 100 -6.7 0 0 981.2 NA 0.0000 -SN BR 6000 0 0 0 980
2019/10/11 03:17:00 BASE 2.38 319 3.76 343 -6.7 100 -6.7 0 0 981.2 NA 0.0000 -SN BR 6000 0 0 0 1120
2019/10/11 03:18:00 BASE 2.10 319 3.50 339 -6.7 100 -6.7 0 0 981.2 NA 0.0000 -SN BR 6000 0 0 0 1150
2019/10/11 03:19:00 BASE 1.92 319 3.24 340 -6.7 100 -6.7 0 0 981.2 NA 0.0000 BR 6000 0 0 0 1710
2019/10/11 03:20:00 BASE 2.03 318 3.04 328 -6.7 100 -6.7 0 0 981.2 NA 0.0000 BR 6000 0 0 0 6430
2019/10/11 03:21:00 BASE 2.19 312 3.04 328 -6.6 100 -6.6 0 0 981.2 NA 0.0000 BR 5000 0 0 0 6460
2019/10/11 03:22:00 BASE 2.40 302 3.04 328 -6.6 100 -6.6 0 0 981.2 NA 0.0000 BR 5000 0 0 0 4820
2019/10/11 03:23:00 BASE 2.24 299 3.04 328 -6.6 100 -6.6 0 0 981.2 NA 0.0000 BR 5000 0 0 0 1410
2019/10/11 03:24:00 BASE 1.91 299 2.78 294 -6.6 100 -6.6 0 0 981.2 NA 0.0000 BR 5000 0 0 0 1250
2019/10/11 03:25:00 BASE 1.91 295 2.78 294 -6.6 100 -6.6 0 0 981.2 NA 0.0000 BR 5000 0 0 0 1280
2019/10/11 03:26:00 BASE 1.68 291 2.78 294 -6.7 100 -6.7 0 0 981.2 NA 0.0000 BR 5000 200 0 0 0
2019/10/11 03:27:00 BASE 1.73 288 2.78 294 -6.7 100 -6.7 0 0 981.2 NA 0.0000 BR 5000 0 0 0 1250
2019/10/11 03:28:00 BASE 1.94 285 2.78 294 -6.7 100 -6.7 0 0 981.2 NA 0.0000 BR 5000 230 0 0 0
2019/10/11 03:29:00 BASE 1.74 284 2.78 294 -6.7 100 -6.7 0 0 981.2 NA 0.0000 BR 5000 0 0 0 1310
2019/10/11 03:30:00 BASE 1.85 284 2.78 294 -6.8 100 -6.8 0 0 981.2 NA 0.0000 BR 5000 0 0 0 4270
2019/10/11 03:31:00 BASE 2.22 276 3.04 274 -6.8 100 -6.8 0 0 981.2 NA 0.0000 BR 5000 0 0 0 4300
2019/10/11 03:32:00 BASE 2.36 271 3.04 274 -6.8 100 -6.8 0 0 981.2 NA 0.0000 BR 5000 0 0 0 1480
2019/10/11 03:33:01 BASE 2.18 268 3.04 274 -6.7 100 -6.7 0 0 981.3 NA 0.0000 BR 5000 0 0 0 3150
2019/10/11 03:34:00 BASE 2.05 271 3.04 274 -6.7 100 -6.7 0 0 981.2 NA 0.0000 BR 5000 0 0 0 5510
2019/10/11 03:35:00 BASE 1.92 273 3.04 274 -6.7 100 -6.7 0 0 981.2 NA 0.0000 BR 5000 200 0 0 0
2019/10/11 03:36:00 BASE 2.22 268 3.09 263 -6.7 100 -6.7 0 0 981.3 NA 0.0000 BR 5000 230 0 0 0
2019/10/11 03:37:00 BASE 2.72 265 3.09 263 -6.7 100 -6.7 0 0 981.4 NA 0.0000 BR 5000 230 0 0 0
2019/10/11 03:38:00 BASE 2.59 266 3.09 263 -6.8 100 -6.8 0 0 981.4 NA 0.0000 BR 5000 230 0 0 0
2019/10/11 03:39:00 BASE 2.34 266 3.09 263 -6.8 100 -6.8 0 0 981.4 NA 0.0000 BR 5000 230 0 0 0
2019/10/11 03:40:00 BASE 2.34 261 3.09 263 -6.8 100 -6.8 0 0 981.4 NA 0.0000 BR 5000 260 0 0 0
2019/10/11 03:41:00 BASE 2.49 260 3.09 263 -6.8 100 -6.8 0 0 981.4 NA 0.0000 BR 5000 300 0 0 0
2019/10/11 03:42:00 BASE 2.38 260 3.09 263 -6.8 100 -6.8 0 0 981.4 NA 0.0000 BR 5000 260 0 0 0
2019/10/11 03:43:00 BASE 2.36 257 3.09 263 -6.8 100 -6.8 0 0 981.4 NA 0.0000 BR 5000 300 0 0 0
2019/10/11 03:44:00 BASE 2.25 257 3.09 263 -6.8 100 -6.8 0 0 981.4 NA 0.0000 BR 5000 300 0 0 0
2019/10/11 03:45:00 BASE 1.95 259 3.09 263 -6.8 100 -6.8 0 0 981.4 NA 0.0000 BR 5000 260 0 0 0
2019/10/11 03:46:00 BASE 1.99 256 2.98 263 -6.9 100 -6.9 0 0 981.5 NA 0.0000 BR 5000 300 0 0 0
2019/10/11 03:47:00 BASE 2.19 252 2.98 263 -6.9 100 -6.9 0 0 981.5 NA 0.0000 BR 5000 330 0 0 0
2019/10/11 03:48:00 BASE 2.36 251 2.98 263 -6.9 100 -6.9 0 0 981.5 NA 0.0000 BR 5000 330 0 0 0
2019/10/11 03:49:00 BASE 2.42 251 2.98 263 -6.9 100 -6.9 0 0 981.5 NA 0.0000 BR 5000 360 0 0 0
2019/10/11 03:50:00 BASE 2.50 251 2.98 263 -6.9 100 -6.9 0 0 981.5 NA 0.0000 BR 5000 330 0 0 0
2019/10/11 03:51:00 BASE 2.55 249 2.93 246 -6.9 100 -6.9 0 0 981.5 NA 0.0000 BR 5000 300 0 0 0
2019/10/11 03:52:00 BASE 2.57 248 2.93 246 -6.9 100 -6.9 0 0 981.5 NA 0.0000 BR 5000 360 0 0 0
2019/10/11 03:53:00 BASE 2.41 247 2.88 247 -6.9 100 -6.9 0 0 981.5 NA 0.0000 BR 5000 300 0 0 0
2019/10/11 03:54:00 BASE 2.12 248 2.88 247 -6.9 100 -6.9 0 0 981.5 NA 0.0000 BR 4900 300 0 0 0
2019/10/11 03:55:00 BASE 1.93 250 2.88 247 -6.9 100 -6.9 0 0 981.5 NA 0.0000 BR 4900 300 0 0 0
2019/10/11 03:56:00 BASE 1.84 244 2.88 247 -6.9 100 -6.9 0 0 981.5 NA 0.0000 BR 4900 390 0 0 0
2019/10/11 03:57:00 BASE 1.44 238 2.88 247 -6.9 100 -6.9 0 0 981.5 NA 0.0000 BR 4900 330 0 0 0
2019/10/11 03:58:00 BASE 0.52 251 2.88 247 -6.9 100 -6.9 0 0 981.5 NA 0.0000 BR 5000 300 0 0 0
2019/10/11 03:59:00 BASE 0.00 257 2.88 247 -6.9 100 -6.9 0 0 981.5 NA 0.0000 -SN BR 9999 260 0 0 0
2019/10/11 04:00:00 BASE 0.00 292 2.88 247 -6.9 100 -6.9 0 0 981.5 NA 0.0000 -SN BR 9999 260 0 0 0
2019/10/11 04:01:00 BASE 0.00 348 2.88 247 -6.9 100 -6.9 0 0 981.5 NA 0.0000 -SN BR 9000 300 0 0 0
2019/10/11 04:02:00 BASE 0.30 17 2.52 246 -6.9 100 -6.9 0 0 981.5 NA 0.0000 -SN BR 9000 300 0 0 0
2019/10/11 04:03:00 BASE 1.04 29 2.42 240 -7.0 100 -7.0 0 0 981.5 NA 0.0000 -SN BR 9000 330 0 0 0
2019/10/11 04:04:00 BASE 1.46 13 2.42 240 -7.0 100 -7.0 0 0 981.5 NA 0.0000 -SN BR 7000 300 0 0 0
2019/10/11 04:05:00 BASE 1.51 7 2.42 240 -7.1 100 -7.1 0 0 981.6 NA 0.0000 -SN BR 7000 300 0 0 0
2019/10/11 04:06:00 BASE 1.80 3 2.21 354 -7.1 100 -7.1 0 0 981.6 NA 0.0000 -SN BR 6000 300 0 0 0
2019/10/11 04:07:00 BASE 2.19 356 2.47 354 -7.1 100 -7.1 0 0 981.6 NA 0.0000 -SN BR 5000 300 0 0 0
2019/10/11 04:08:00 BASE 2.46 352 2.68 344 -7.1 100 -7.1 0 0 981.6 NA 0.0000 -SN BR 5000 300 0 0 0
2019/10/11 04:09:00 BASE 2.64 347 2.93 349 -7.1 100 -7.1 0 0 981.6 NA 0.0000 -SN BR 4400 300 0 0 0
2019/10/11 04:10:00 BASE 2.84 352 2.98 349 -7.1 100 -7.1 0 0 981.6 NA 0.0000 -SN BR 4400 260 0 0 0
2019/10/11 04:11:00 BASE 3.11 351 3.65 348 -7.1 100 -7.1 0 0 981.6 NA 0.0000 -SN BR 6000 260 0 0 0
2019/10/11 04:12:00 BASE 3.03 346 3.65 348 -7.1 100 -7.1 0 0 981.6 NA 0.0000 -SN BR 6000 300 0 0 0
2019/10/11 04:13:01 BASE 2.87 346 3.65 348 -7.1 100 -7.1 0 0 981.6 NA 0.0000 -SN BR 6000 330 0 0 0
2019/10/11 04:14:00 BASE 2.80 346 3.65 348 -7.1 100 -7.1 0 0 981.6 NA 0.0000 -SN BR 7000 330 0 0 0
2019/10/11 04:15:00 BASE 2.74 345 3.65 348 -7.1 100 -7.1 0 0 981.6 NA 0.0000 -SN BR 7000 330 0 0 0
2019/10/11 04:16:00 BASE 2.87 344 3.65 348 -7.1 100 -7.1 0 0 981.6 NA 0.0000 -SN BR 6000 330 0 0 0
2019/10/11 04:17:00 BASE 2.75 344 3.65 348 -7.1 100 -7.1 0 0 981.6 NA 0.0000 -SN BR 6000 360 0 0 0
2019/10/11 04:18:00 BASE 2.55 346 3.65 348 -7.1 100 -7.1 0 0 981.6 NA 0.0000 -SN BR 6000 330 0 0 0
2019/10/11 04:19:00 BASE 2.44 348 3.65 348 -7.1 100 -7.1 0 0 981.6 NA 0.0000 -SN BR 7000 360 0 0 0
2019/10/11 04:20:00 BASE 2.29 348 3.65 348 -7.1 100 -7.1 0 0 981.6 NA 0.0000 -SN BR 8000 360 0 0 0
2019/10/11 04:21:00 BASE 2.23 348 3.24 348 -7.1 100 -7.1 0 0 981.6 NA 0.0000 -SN BR 9000 360 0 0 0
2019/10/11 04:22:00 BASE 2.33 347 3.24 348 -7.1 100 -7.1 0 0 981.6 NA 0.0000 -SN BR 8000 360 0 0 0
2019/10/11 04:23:00 BASE 2.44 346 3.19 346 -7.1 100 -7.1 0 0 981.6 NA 0.0000 -SN BR 8000 330 0 0 0
2019/10/11 04:24:00 BASE 2.52 345 3.19 346 -7.1 100 -7.1 0 0 981.6 NA 0.0000 -SN BR 6000 330 0 0 0
2019/10/11 04:25:00 BASE 2.54 343 3.04 343 -7.1 100 -7.1 0 0 981.6 NA 0.0000 -SN BR 5000 330 0 0 0
2019/10/11 04:26:00 BASE 2.55 342 2.78 345 -7.1 100 -7.1 0 0 981.6 NA 0.0000 -SN BR 3800 300 0 0 0
2019/10/11 04:27:00 BASE 2.57 341 2.68 340 -7.2 100 -7.2 0 0 981.6 NA 0.0000 -SN BR 3200 300 1310 0 0
2019/10/11 04:28:00 BASE 2.59 341 2.68 340 -7.2 100 -7.2 0 0 981.6 NA 0.0000 -SN BR 3300 260 0 0 0
2019/10/11 04:29:00 BASE 2.57 341 2.68 341 -7.2 100 -7.2 0 0 981.6 NA 0.0000 -SN BR 3100 300 0 0 0
2019/10/11 04:30:00 BASE 2.42 342 2.68 341 -7.2 100 -7.2 0 0 981.6 NA 0.0000 -SN BR 3200 260 0 0 0
2019/10/11 04:31:00 BASE 2.24 340 2.68 341 -7.2 100 -7.2 0 0 981.6 NA 0.0000 -SN BR 3200 300 0 0 0
2019/10/11 04:32:00 BASE 2.18 338 2.68 341 -7.2 100 -7.2 0 0 981.6 NA 0.0000 -SN BR 3300 260 0 0 0
2019/10/11 04:33:00 BASE 2.19 337 2.68 341 -7.1 100 -7.1 0 0 981.6 NA 0.0000 -SN BR 3000 260 0 0 0
2019/10/11 04:34:00 BASE 2.30 334 2.68 341 -7.1 100 -7.1 0 0 981.6 NA 0.0000 -SN BR 3300 300 0 0 0
2019/10/11 04:35:00 BASE 2.45 332 2.68 341 -7.1 100 -7.1 0 0 981.6 NA 0.0000 -SN BR 4000 300 1440 0 0
2019/10/11 04:36:00 BASE 2.53 333 2.68 341 -7.1 100 -7.1 0 0 981.6 NA 0.0000 -SN BR 4500 260 1440 0 0
2019/10/11 04:37:00 BASE 2.47 335 2.68 341 -7.2 100 -7.2 0 0 981.6 NA 0.0000 -SN BR 3800 300 0 0 0
2019/10/11 04:38:00 BASE 2.42 337 2.68 338 -7.2 100 -7.2 0 0 981.6 NA 0.0000 -SN BR 3700 300 1410 0 0
2019/10/11 04:39:00 BASE 2.46 335 2.68 336 -7.2 100 -7.2 0 0 981.6 NA 0.0000 -SN BR 5000 330 0 0 0
2019/10/11 04:40:00 BASE 2.47 334 2.68 336 -7.2 100 -7.2 0 0 981.6 NA 0.0000 -SN BR 5000 330 2100 0 0
2019/10/11 04:41:00 BASE 2.50 333 2.68 336 -7.2 100 -7.2 0 0 981.6 NA 0.0000 -SN BR 5000 330 2170 0 0
2019/10/11 04:42:00 BASE 2.59 323 2.78 318 -7.2 100 -7.2 0 0 981.6 NA 0.0000 -SN BR 5000 330 1410 0 0
2019/10/11 04:43:00 BASE 2.65 315 2.78 318 -7.3 100 -7.3 0 0 981.6 NA 0.0000 -SN BR 4900 360 1380 0 0
2019/10/11 04:44:00 BASE 2.63 313 2.78 318 -7.3 100 -7.3 0 0 981.6 NA 0.0000 -SN BR 4800 360 1380 0 0
2019/10/11 04:45:00 BASE 2.53 315 2.78 318 -7.4 100 -7.4 0 0 981.6 NA 0.0000 -SN BR 4700 390 3250 0 0
2019/10/11 04:46:00 BASE 2.34 316 2.78 318 -7.4 100 -7.4 0 0 981.6 NA 0.0000 -SN BR 4600 390 3220 0 0
2019/10/11 04:47:00 BASE 2.20 316 2.78 318 -7.4 100 -7.4 0 0 981.6 NA 0.0000 -SN BR 4500 390 0 0 0
2019/10/11 04:48:00 BASE 2.20 314 2.78 318 -7.5 100 -7.5 0 0 981.6 NA 0.0000 BR 4400 360 0 0 0
2019/10/11 04:49:00 BASE 2.26 311 2.78 318 -7.5 100 -7.5 0 0 981.6 NA 0.0000 BR 4400 360 0 0 0
2019/10/11 04:50:00 BASE 2.29 307 2.78 318 -7.5 100 -7.5 0 0 981.6 NA 0.0000 BR 4300 360 2230 0 0
2019/10/11 04:51:00 BASE 2.25 306 2.78 318 -7.6 100 -7.6 0 0 981.6 NA 0.0000 BR 4200 360 0 0 0
2019/10/11 04:52:00 BASE 2.17 306 2.73 312 -7.5 100 -7.5 0 0 981.6 NA 0.0000 BR 4100 330 0 0 0
2019/10/11 04:53:00 BASE 2.15 306 2.68 315 -7.5 100 -7.5 0 0 981.6 NA 0.0000 BR 4100 330 0 0 0
2019/10/11 04:54:00 BASE 2.22 307 2.57 315 -7.5 100 -7.5 0 0 981.6 NA 0.0000 BR 4000 360 0 0 0
2019/10/11 04:55:00 BASE 2.38 309 2.52 309 -7.5 100 -7.5 0 0 981.6 NA 0.0000 BR 4000 360 0 0 0
2019/10/11 04:56:00 BASE 2.44 309 2.52 309 -7.5 100 -7.5 0 0 981.6 NA 0.0000 BR 3900 330 0 0 0
2019/10/11 04:57:00 BASE 2.39 308 2.52 309 -7.6 100 -7.6 0 0 981.6 NA 0.0000 BR 3900 330 2530 0 0
2019/10/11 04:58:00 BASE 2.31 309 2.52 309 -7.6 100 -7.6 0 0 981.6 NA 0.0000 BR 3800 330 2560 0 0
2019/10/11 04:59:00 BASE 2.23 314 2.52 309 -7.6 100 -7.6 0 0 981.6 NA 0.0000 BR 3800 330 2720 0 0
2019/10/11 05:00:00 BASE 2.16 317 2.52 309 -7.6 100 -7.6 0 0 981.6 NA 0.0000 BR 3700 330 3670 0 0
2019/10/11 05:01:00 BASE 2.12 317 2.52 309 -7.6 100 -7.6 0 0 981.6 NA 0.0000 BR 3700 300 0 0 0
2019/10/11 05:02:00 BASE 2.17 319 2.52 309 -7.6 100 -7.6 0 0 981.6 NA 0.0000 BR 3600 230 2300 0 0
2019/10/11 05:03:00 BASE 2.16 325 2.52 309 -7.6 100 -7.6 0 0 981.6 NA 0.0000 BR 3600 230 2300 0 0
2019/10/11 05:04:00 BASE 1.99 331 2.52 309 -7.7 100 -7.7 0 0 981.6 NA 0.0000 BR 3500 200 2530 0 0
2019/10/11 05:05:00 BASE 1.83 334 2.52 309 -7.8 100 -7.8 0 0 981.6 NA 0.0000 BR 3500 230 2490 0 0
2019/10/11 05:06:00 BASE 1.80 345 2.42 323 -7.8 100 -7.8 0 0 981.6 NA 0.0000 BR 3500 260 2230 0 0
2019/10/11 05:07:00 BASE 2.10 360 2.73 8 -7.9 100 -7.9 0 0 981.6 NA 0.0000 BR 3400 260 2200 0 0
2019/10/11 05:08:00 BASE 2.39 5 2.73 5 -8.0 100 -8.0 0 0 981.6 NA 0.0000 BR 3400 260 2130 0 0
2019/10/11 05:09:00 BASE 2.42 2 2.73 5 -8.0 100 -8.0 0 0 981.6 NA 0.0000 BR 3400 230 1870 0 0
2019/10/11 05:10:00 BASE 2.48 2 2.73 5 -8.0 100 -8.0 0 0 981.6 NA 0.0000 BR 3300 230 1770 0 0
2019/10/11 05:11:00 BASE 2.50 4 2.73 5 -7.9 100 -7.9 0 0 981.6 NA 0.0000 BR 3300 260 1740 0 0
2019/10/11 05:12:00 BASE 2.34 2 2.73 5 -7.9 100 -7.9 0 0 981.6 NA 0.0000 BR 3300 330 1670 0 0
2019/10/11 05:13:00 BASE 2.20 359 2.73 5 -7.9 100 -7.9 0 0 981.6 NA 0.0000 BR 3300 260 1540 0 0
2019/10/11 05:14:00 BASE 2.40 0 3.04 8 -7.9 100 -7.9 0 0 981.6 NA 0.0000 BR 3200 230 1480 0 0
2019/10/11 05:15:00 BASE 2.57 4 3.04 8 -7.9 100 -7.9 0 0 981.6 NA 0.0000 BR 3200 230 0 0 0
2019/10/11 05:16:00 BASE 2.37 4 3.04 8 -7.9 100 -7.9 0 0 981.6 NA 0.0000 BR 3200 0 0 0 6790
2019/10/11 05:17:00 BASE 2.31 360 3.04 8 -8.0 100 -8.0 0 0 981.6 NA 0.0000 BR 3200 0 0 0 6790
2019/10/11 05:18:00 BASE 2.30 357 3.04 8 -8.0 100 -8.0 0 0 981.6 NA 0.0000 BR 3900 0 0 0 6760
2019/10/11 05:19:00 BASE 2.24 357 3.04 8 -8.1 100 -8.1 0 0 981.6 NA 0.0000 BR 9999 0 0 0 6630
2019/10/11 05:20:00 BASE 2.45 2 3.04 8 -8.1 100 -8.1 0 0 981.6 NA 0.0000 BR 9999 12860 0 0 0
2019/10/11 05:21:00 BASE 2.58 4 3.04 8 -8.1 100 -8.1 0 0 981.6 NA 0.0000 BR 9999 12830 0 0 0
2019/10/11 05:22:00 BASE 2.55 3 3.04 8 -8.1 100 -8.1 0 0 981.6 NA 0.0000 BR 9999 0 0 0 5480
2019/10/11 05:23:00 BASE 2.47 8 3.04 8 -8.2 100 -8.2 0 0 981.6 NA 0.0000 BR 9999 12760 0 0 0
2019/10/11 05:24:00 BASE 2.35 13 2.78 6 -8.2 100 -8.2 0 0 981.6 NA 0.0000 BR 9999 12700 0 0 0
2019/10/11 05:25:00 BASE 2.13 14 2.78 6 -8.2 100 -8.2 0 0 981.6 NA 0.0000 BR 9999 12600 0 0 0
2019/10/11 05:26:00 BASE 1.89 18 2.78 6 -8.3 100 -8.3 0 0 981.6 NA 0.0000 BR 9999 0 0 0 5610
2019/10/11 05:27:00 BASE 1.78 21 2.78 6 -8.3 100 -8.3 0 0 981.6 NA 0.0000 9999 160 2170 0 0
2019/10/11 05:28:00 BASE 1.74 17 2.78 6 -8.3 100 -8.3 0 0 981.6 NA 0.0000 9999 230 2130 0 0
2019/10/11 05:29:00 BASE 1.44 12 2.78 6 -8.3 100 -8.3 0 0 981.6 NA 0.0000 9999 260 2100 0 0
2019/10/11 05:30:00 BASE 1.27 7 2.78 6 -8.2 100 -8.2 0 0 981.6 NA 0.0000 9999 260 2030 0 0
2019/10/11 05:31:00 BASE 1.48 7 2.78 6 -8.2 100 -8.2 0 0 981.6 NA 0.0000 9999 260 2000 0 0
2019/10/11 05:32:00 BASE 1.43 10 2.68 10 -8.1 100 -8.1 0 0 981.6 NA 0.0000 9999 260 1940 0 0
2019/10/11 05:33:00 BASE 1.25 7 2.57 11 -8.1 100 -8.1 0 0 981.6 NA 0.0000 9999 230 1840 0 0
2019/10/11 05:34:00 BASE 1.25 7 2.06 16 -8.1 100 -8.1 0 0 981.6 NA 0.0000 9999 230 1740 0 0
2019/10/11 05:35:00 BASE 1.30 16 1.95 34 -8.1 100 -8.1 0 0 981.6 NA 0.0000 9999 230 1670 0 0
2019/10/11 05:36:00 BASE 1.24 17 1.95 34 -8.1 100 -8.1 0 0 981.6 NA 0.0000 9999 260 1480 0 0
2019/10/11 05:37:00 BASE 1.01 13 1.95 34 -8.1 100 -8.1 0 0 981.6 NA 0.0000 9999 300 1480 0 0
2019/10/11 05:38:00 BASE 1.11 23 1.80 10 -8.1 100 -8.1 0 0 981.6 NA 0.0000 9999 300 0 0 0
2019/10/11 05:39:00 BASE 1.40 38 1.80 53 -8.2 100 -8.2 0 0 981.6 NA 0.0000 9999 360 0 0 0
2019/10/11 05:40:00 BASE 1.48 40 2.06 35 -8.2 100 -8.2 0 0 981.6 NA 0.0000 9999 330 0 0 0
2019/10/11 05:41:00 BASE 1.13 36 2.06 35 -8.2 100 -8.2 0 0 981.6 NA 0.0000 9999 360 0 0 0
2019/10/11 05:42:00 BASE 0.83 38 2.06 35 -8.2 100 -8.2 0 0 981.6 NA 0.0000 9999 360 0 0 0
2019/10/11 05:43:00 BASE 0.87 42 2.06 35 -8.2 100 -8.2 0 0 981.6 NA 0.0000 9999 330 1310 0 0
2019/10/11 05:44:00 BASE 1.17 38 2.06 35 -8.2 100 -8.2 0 0 981.6 NA 0.0000 9999 0 0 0 5350
2019/10/11 05:45:00 BASE 1.57 37 2.06 20 -8.2 100 -8.2 0 0 981.6 NA 0.0000 9999 360 0 0 0
2019/10/11 05:46:00 BASE 1.69 37 2.06 36 -8.2 100 -8.2 0 0 981.6 NA 0.0000 9999 0 0 0 5350
2019/10/11 05:47:00 BASE 1.83 34 2.21 49 -8.2 100 -8.2 0 0 981.6 NA 0.0000 9999 0 0 0 5250
2019/10/11 05:48:00 BASE 1.99 40 2.37 51 -8.3 100 -8.3 0 0 981.6 NA 0.0000 9999 0 0 0 5220
2019/10/11 05:49:00 BASE 2.04 47 2.42 53 -8.3 100 -8.3 0 0 981.6 NA 0.0000 9999 0 0 0 5150
2019/10/11 05:50:00 BASE 2.27 46 2.98 43 -8.4 100 -8.4 0 0 981.6 NA 0.0000 9999 0 0 0 750
2019/10/11 05:51:00 BASE 2.58 42 2.98 43 -8.4 100 -8.4 0 0 981.6 NA 0.0000 9999 0 0 0 720
2019/10/11 05:52:00 BASE 2.38 40 2.98 43 -8.5 100 -8.5 0 0 981.6 NA 0.0000 9999 0 0 0 620
2019/10/11 05:53:00 BASE 2.12 37 2.98 43 -8.5 100 -8.5 0 0 981.6 NA 0.0000 9999 0 0 0 560
2019/10/11 05:54:00 BASE 2.24 41 2.98 43 -8.5 100 -8.5 0 0 981.6 NA 0.0000 9999 0 0 0 490
2019/10/11 05:55:00 BASE 2.36 43 2.98 43 -8.6 100 -8.6 0 0 981.6 NA 0.0000 9999 12830 0 0 0
2019/10/11 05:56:00 BASE 2.16 42 2.98 43 -8.5 100 -8.5 0 0 981.6 NA 0.0000 9999 12730 0 0 0
2019/10/11 05:57:00 BASE 2.00 47 2.98 43 -8.5 100 -8.5 0 0 981.6 NA 0.0000 9999 12700 0 0 0
2019/10/11 05:58:00 BASE 2.09 51 2.98 43 -8.5 100 -8.5 0 0 981.6 NA 0.0000 9999 12760 0 0 0
2019/10/11 05:59:00 BASE 2.45 48 2.98 43 -8.4 100 -8.4 0 0 981.6 NA 0.0000 9999 12760 0 0 0
2019/10/11 06:00:00 BASE 2.67 47 2.88 47 -8.4 100 -8.4 0 0 981.6 NA 0.0000 9999 12730 0 0 0
2019/10/11 06:01:00 BASE 2.68 45 3.09 41 -8.4 100 -8.4 0 0 981.6 NA 0.0000 9999 12430 0 0 0
2019/10/11 06:02:00 BASE 2.61 39 3.09 41 -8.4 100 -8.4 0 0 981.6 NA 0.0000 9999 12530 0 0 0
2019/10/11 06:03:00 BASE 2.65 32 3.09 41 -8.4 100 -8.4 0 0 981.6 NA 0.0000 9999 12300 0 0 0
2019/10/11 06:04:00 BASE 2.77 34 3.09 41 -8.4 100 -8.4 0 0 981.6 NA 0.0000 9999 12430 0 0 0
2019/10/11 06:05:00 BASE 2.65 37 3.09 41 -8.4 100 -8.4 0 0 981.6 NA 0.0000 9999 12430 0 0 0
2019/10/11 06:06:00 BASE 2.31 34 3.09 41 -8.5 100 -8.5 0 0 981.6 NA 0.0000 9999 12470 0 0 0
2019/10/11 06:07:00 BASE 1.95 36 3.09 41 -8.5 100 -8.5 0 0 981.6 NA 0.0000 9999 12470 0 0 0
2019/10/11 06:08:00 BASE 1.62 42 3.09 41 -8.4 100 -8.4 0 0 981.6 NA 0.0000 9999 0 0 0 5940
2019/10/11 06:09:00 BASE 1.40 48 3.09 41 -8.3 100 -8.3 0 0 981.6 NA 0.0000 9999 12300 0 0 0
2019/10/11 06:10:00 BASE 1.35 51 3.09 41 -8.3 100 -8.3 0 0 981.6 NA 0.0000 9999 12340 0 0 0
2019/10/11 06:11:00 BASE 1.52 52 2.98 35 -8.2 100 -8.2 0 0 981.6 NA 0.0000 9999 0 0 0 6460
2019/10/11 06:12:00 BASE 1.85 56 2.98 35 -8.2 100 -8.2 0 0 981.6 NA 0.0000 9999 0 0 0 6330
2019/10/11 06:13:00 BASE 1.84 56 2.98 35 -8.1 100 -8.2 0 0 981.6 NA 0.0000 9999 12570 0 0 0
2019/10/11 06:14:00 BASE 1.75 54 2.78 36 -8.1 99 -8.2 0 0 981.6 NA 0.0000 9999 12500 0 0 0
2019/10/11 06:15:00 BASE 2.08 60 2.68 55 -8.1 99 -8.2 0 0 981.6 NA 0.0000 9999 0 0 0 5940
2019/10/11 06:16:00 BASE 2.33 65 2.68 55 -8.1 98 -8.3 0 0 981.5 NA 0.0000 9999 12470 0 0 0
2019/10/11 06:17:00 BASE 2.25 67 2.68 55 -8.0 98 -8.3 0 0 981.5 NA 0.0000 9999 12600 0 0 0
2019/10/11 06:18:00 BASE 1.94 69 2.68 55 -8.0 98 -8.3 0 0 981.6 NA 0.0000 9999 0 0 0 5710
2019/10/11 06:19:00 BASE 1.47 73 2.68 55 -8.0 97 -8.3 0 0 981.6 NA 0.0000 9999 12630 0 0 0
2019/10/11 06:20:00 BASE 1.23 74 2.68 55 -8.0 97 -8.4 0 0 981.6 NA 0.0000 9999 12630 0 0 0
2019/10/11 06:21:00 BASE 1.08 70 2.68 55 -7.9 96 -8.4 0 0 981.6 NA 0.0000 9999 12630 0 0 0
2019/10/11 06:22:00 BASE 1.00 65 2.68 55 -7.9 96 -8.5 0 0 981.6 NA 0.0000 9999 12700 0 0 0
2019/10/11 06:23:00 BASE 1.21 64 2.68 55 -7.9 96 -8.5 0 0 981.6 NA 0.0000 9999 12660 0 0 0
2019/10/11 06:24:00 BASE 1.51 64 2.68 55 -7.9 95 -8.5 0 0 981.6 NA 0.0000 9999 12700 0 0 0
2019/10/11 06:25:00 BASE 1.72 64 2.62 62 -7.9 95 -8.5 0 0 981.6 NA 0.0000 9999 12630 0 0 0
2019/10/11 06:26:00 BASE 1.73 65 2.37 73 -7.8 95 -8.5 0 0 981.6 NA 0.0000 9999 12600 0 0 0
2019/10/11 06:27:00 BASE 1.59 63 2.06 74 -7.8 95 -8.5 0 0 981.6 NA 0.0000 9999 12730 0 0 0
2019/10/11 06:28:00 BASE 1.53 65 1.85 65 -7.8 94 -8.5 0 0 981.6 NA 0.0000 9999 0 0 0 3480
2019/10/11 06:29:00 BASE 1.46 68 1.85 65 -7.8 94 -8.5 0 0 981.6 NA 0.0000 9999 12730 0 0 0
2019/10/11 06:30:00 BASE 1.40 68 1.85 65 -7.7 94 -8.5 0 0 981.6 NA 0.0000 9999 12800 0 0 0
2019/10/11 06:31:00 BASE 1.40 68 1.85 65 -7.7 94 -8.5 0 0 981.6 NA 0.0000 9999 0 0 0 2950
2019/10/11 06:32:00 BASE 1.36 66 1.85 65 -7.6 94 -8.5 0 0 981.6 NA 0.0000 9999 12760 0 0 0
2019/10/11 06:33:00 BASE 1.27 68 1.85 65 -7.6 93 -8.5 0 0 981.5 NA 0.0000 9999 12800 0 0 0
2019/10/11 06:34:00 BASE 1.19 73 1.85 65 -7.6 93 -8.5 0 0 981.5 NA 0.0000 9999 12760 0 0 0
2019/10/11 06:35:00 BASE 1.11 73 1.85 65 -7.6 93 -8.5 0 0 981.5 NA 0.0000 9999 0 0 0 2820
2019/10/11 06:36:00 BASE 0.97 69 1.75 70 -7.5 93 -8.5 0 0 981.5 NA 0.0000 9999 0 0 0 2760
2019/10/11 06:37:00 BASE 0.78 64 1.75 70 -7.5 93 -8.4 0 0 981.5 NA 0.0000 9999 0 0 0 2720
2019/10/11 06:38:00 BASE 0.62 61 1.59 72 -7.4 93 -8.4 0 0 981.5 NA 0.0000 9999 0 0 0 2660
2019/10/11 06:39:00 BASE 0.47 66 1.59 72 -7.4 93 -8.4 0 0 981.5 NA 0.0000 9999 0 0 0 2590
2019/10/11 06:40:00 BASE 0.86 80 1.44 90 -7.5 93 -8.4 0 0 981.5 NA 0.0000 9999 0 0 0 2530
2019/10/11 06:41:00 BASE 1.38 96 1.54 109 -7.5 93 -8.4 0 0 981.5 NA 0.0000 9999 0 0 0 1480
2019/10/11 06:42:00 BASE 1.40 107 1.54 109 -7.5 93 -8.5 0 0 981.5 NA 0.0000 9999 0 0 0 1310
2019/10/11 06:43:01 BASE 1.31 110 1.54 109 -7.6 93 -8.5 0 0 981.5 NA 0.0000 9999 0 0 0 1080
2019/10/11 06:44:00 BASE 1.14 114 1.54 109 -7.6 93 -8.5 0 0 981.5 NA 0.0000 9999 0 0 0 890
2019/10/11 06:45:00 BASE 0.71 118 1.54 109 -7.6 94 -8.4 0 0 981.5 NA 0.0000 9999 0 0 0 750
2019/10/11 06:46:00 BASE 0.22 117 1.54 109 -7.6 94 -8.4 0 0 981.5 NA 0.0000 9999 7280 0 0 0
2019/10/11 06:47:00 BASE 0.05 115 1.54 109 -7.6 94 -8.4 0 0 981.5 NA 0.0000 9999 7250 0 0 0
2019/10/11 06:48:00 BASE 0.00 117 1.54 109 -7.6 95 -8.3 0 0 981.5 NA 0.0000 9999 7320 0 0 0
2019/10/11 06:49:00 BASE 0.00 122 1.54 109 -7.6 95 -8.2 0 0 981.5 NA 0.0000 9999 7250 0 0 0
2019/10/11 06:50:00 BASE 0.00 128 1.54 109 -7.6 96 -8.2 0 0 981.5 NA 0.0000 9999 7350 0 0 0
2019/10/11 06:51:00 BASE 0.00 131 1.49 109 -7.6 96 -8.1 0 0 981.5 NA 0.0000 9999 7350 0 0 0
2019/10/11 06:52:00 BASE 0.00 134 1.39 109 -7.5 96 -8.0 0 0 981.5 NA 0.0000 9999 7150 0 0 0
2019/10/11 06:53:00 BASE 0.00 141 1.29 117 -7.5 96 -8.0 0 0 981.5 NA 0.0000 9999 7050 0 0 0
2019/10/11 06:54:00 BASE 0.00 147 1.08 114 -7.6 97 -8.0 0 0 981.5 NA 0.0000 9999 7090 0 0 0
2019/10/11 06:55:00 BASE 0.00 149 1.08 114 -7.6 97 -8.0 0 0 981.5 NA 0.0000 9999 7190 0 0 0
2019/10/11 06:56:00 BASE 0.00 147 M M -7.6 97 -8.0 0 0 981.5 NA 0.0000 9999 7250 0 0 0
2019/10/11 06:57:00 BASE 0.00 144 M M -7.6 97 -8.0 0 0 981.5 NA 0.0000 9999 7450 0 0 0
2019/10/11 06:58:00 BASE 0.04 136 1.03 118 -7.7 98 -8.0 0 0 981.5 NA 0.0000 9999 7510 0 0 0
2019/10/11 06:59:00 BASE 0.81 120 2.11 118 -7.8 98 -8.1 0 0 981.5 NA 0.0000 9999 9290 0 0 0
2019/10/11 07:00:00 BASE 1.48 113 2.11 118 -7.8 98 -8.1 0 0 981.5 NA 0.0000 9999 7420 0 0 0
2019/10/11 07:01:00 BASE 1.02 116 2.11 118 -7.8 98 -8.1 0 0 981.5 NA 0.0000 9999 7250 0 0 0
2019/10/11 07:02:00 BASE 0.44 100 2.11 118 -7.8 98 -8.1 0 0 981.5 NA 0.0000 9999 7350 0 0 0
2019/10/11 07:03:00 BASE 0.33 68 2.11 118 -7.9 98 -8.2 0 0 981.5 NA 0.0000 9999 9290 0 0 0
2019/10/11 07:04:00 BASE 0.90 50 2.11 118 -7.8 98 -8.1 0 0 981.5 NA 0.0000 9999 8990 0 0 0
2019/10/11 07:05:00 BASE 1.52 50 2.11 118 -7.8 97 -8.2 0 0 981.5 NA 0.0000 9999 8240 0 0 0
2019/10/11 07:06:00 BASE 1.71 53 2.11 118 -7.9 97 -8.4 0 0 981.5 NA 0.0000 9999 8010 0 0 0
2019/10/11 07:07:00 BASE 1.93 52 2.31 52 -8.0 96 -8.5 0 0 981.5 NA 0.0000 9999 8010 0 0 0
2019/10/11 07:08:00 BASE 2.30 50 2.78 48 -8.0 95 -8.6 0 0 981.5 NA 0.0000 9999 8070 0 0 0
2019/10/11 07:09:00 BASE 2.43 47 2.78 48 -8.1 95 -8.8 0 0 981.5 NA 0.0000 9999 8560 0 0 0
2019/10/11 07:10:00 BASE 2.15 48 2.78 48 -8.1 94 -8.9 0 0 981.5 NA 0.0000 9999 8500 0 0 0
2019/10/11 07:11:00 BASE 1.96 47 2.78 48 -8.1 93 -9.0 0 0 981.5 NA 0.0000 9999 8560 0 0 0
2019/10/11 07:12:00 BASE 1.82 41 2.78 48 -8.2 93 -9.1 0 0 981.5 NA 0.0000 9999 8560 0 0 0
2019/10/11 07:13:00 BASE 1.68 34 2.78 48 -8.2 92 -9.2 0 0 981.5 NA 0.0000 9999 8530 0 0 0
2019/10/11 07:14:00 BASE 1.65 29 2.78 48 -8.2 92 -9.3 0 0 981.5 NA 0.0000 9999 8370 0 0 0
2019/10/11 07:15:00 BASE 1.85 28 2.78 48 -8.2 91 -9.4 0 0 981.5 NA 0.0000 9999 8400 0 0 0
2019/10/11 07:16:00 BASE 2.26 32 2.78 48 -8.3 91 -9.5 0 0 981.6 NA 0.0000 9999 8460 0 0 0
2019/10/11 07:17:00 BASE 2.44 37 2.78 48 -8.3 91 -9.6 0 0 981.6 NA 0.0000 9999 8530 0 0 0
2019/10/11 07:18:00 BASE 2.36 42 2.68 36 -8.3 90 -9.6 0 0 981.6 NA 0.0000 9999 8530 0 0 0
2019/10/11 07:19:00 BASE 2.37 47 2.68 36 -8.3 90 -9.6 0 0 981.5 NA 0.0000 9999 8370 0 0 0
2019/10/11 07:20:00 BASE 2.40 50 2.68 36 -8.3 90 -9.7 0 0 981.5 NA 0.0000 9999 7550 0 0 0
2019/10/11 07:21:00 BASE 2.44 50 2.68 49 -8.3 90 -9.7 0 0 981.5 NA 0.0000 9999 8240 0 0 0
2019/10/11 07:22:00 BASE 2.47 46 2.68 49 -8.2 89 -9.7 0 0 981.6 NA 0.0000 9999 8170 0 0 0
2019/10/11 07:23:00 BASE 2.31 41 2.68 49 -8.2 89 -9.7 0 0 981.6 NA 0.0000 9999 8070 0 0 0
2019/10/11 07:24:00 BASE 2.10 39 2.68 49 -8.2 89 -9.7 0 0 981.6 NA 0.0000 9999 8040 0 0 0
2019/10/11 07:25:00 BASE 2.17 41 2.68 49 -8.1 89 -9.6 0 0 981.6 NA 0.0000 9999 8070 0 0 0
2019/10/11 07:26:00 BASE 2.24 45 2.68 49 -8.1 89 -9.6 0 0 981.6 NA 0.0000 9999 8070 0 0 0
2019/10/11 07:27:00 BASE 2.27 49 2.68 54 -8.1 89 -9.6 0 0 981.6 NA 0.0000 9999 8100 0 0 0
2019/10/11 07:28:00 BASE 2.49 54 2.73 54 -8.1 89 -9.7 0 0 981.6 NA 0.0000 9999 7380 0 0 0
2019/10/11 07:29:00 BASE 2.40 56 2.73 54 -8.1 88 -9.7 0 0 981.6 NA 0.0000 9999 8140 0 0 0
2019/10/11 07:30:00 BASE 2.27 54 2.73 54 -8.1 88 -9.7 0 0 981.6 NA 0.0000 9999 8200 0 0 0
2019/10/11 07:31:00 BASE 2.29 51 2.73 54 -8.1 88 -9.8 0 0 981.6 NA 0.0000 9999 8240 0 0 0
2019/10/11 07:32:00 BASE 2.33 52 2.73 54 -8.1 88 -9.8 0 0 981.6 NA 0.0000 9999 8170 0 0 0
2019/10/11 07:33:00 BASE 2.43 49 2.78 44 -8.1 87 -9.8 0 0 981.6 NA 0.0000 9999 8100 0 0 0
2019/10/11 07:34:00 BASE 2.56 47 2.88 49 -8.1 87 -9.9 0 0 981.6 NA 0.0000 9999 7870 0 0 0
2019/10/11 07:35:00 BASE 2.65 47 2.98 44 -8.1 87 -9.9 0 0 981.6 NA 0.0000 9999 7710 0 0 0
2019/10/11 07:36:00 BASE 2.79 46 3.09 42 -8.1 87 -9.9 0 0 981.6 NA 0.0000 9999 7680 0 0 0
2019/10/11 07:37:00 BASE 2.86 47 3.09 42 -8.1 87 -9.9 0 0 981.6 NA 0.0000 9999 4170 0 0 0
2019/10/11 07:38:00 BASE 2.78 48 3.09 42 -8.1 87 -10.0 0 0 981.6 NA 0.0000 9999 4000 0 0 0
2019/10/11 07:39:00 BASE 2.68 46 3.09 42 -8.1 86 -10.0 0 0 981.6 NA 0.0000 9999 4040 0 0 0
2019/10/11 07:40:00 BASE 2.61 46 3.09 42 -8.1 86 -10.0 0 0 981.6 NA 0.0000 9999 3940 0 0 0
2019/10/11 07:41:00 BASE 2.70 48 3.09 42 -8.1 86 -10.0 0 0 981.6 NA 0.0000 9999 3150 0 0 0
2019/10/11 07:42:00 BASE 2.92 50 3.24 50 -8.1 86 -10.0 0 0 981.6 NA 0.0000 9999 3150 0 0 0
2019/10/11 07:43:00 BASE 2.75 53 3.24 50 -8.1 86 -10.1 0 0 981.6 NA 0.0000 9999 3840 0 0 0
2019/10/11 07:44:00 BASE 2.21 54 3.24 50 -8.1 86 -10.0 0 0 981.6 NA 0.0000 9999 2660 0 0 0
2019/10/11 07:45:00 BASE 2.08 55 3.24 50 -8.1 86 -10.0 0 0 981.6 NA 0.0000 9999 3380 0 0 0
2019/10/11 07:46:00 BASE 2.26 61 3.24 50 -8.0 85 -10.0 0 0 981.6 NA 0.0000 9999 3410 0 0 0
2019/10/11 07:47:00 BASE 2.28 61 3.24 50 -8.0 85 -10.0 0 0 981.6 NA 0.0000 9999 3410 0 0 0
2019/10/11 07:48:00 BASE 2.38 62 3.24 50 -7.9 85 -10.0 0 0 981.6 NA 0.0000 9999 2530 0 0 0
2019/10/11 07:49:00 BASE 2.36 61 3.24 50 -7.9 85 -10.0 0 0 981.6 NA 0.0000 9999 2490 0 0 0
2019/10/11 07:50:00 BASE 2.17 59 3.24 50 -7.9 84 -10.0 0 0 981.6 NA 0.0000 9999 2460 0 0 0
2019/10/11 07:51:00 BASE 2.17 53 3.24 50 -7.8 84 -10.1 0 0 981.6 NA 0.0000 9999 2430 0 0 0
2019/10/11 07:52:00 BASE 2.10 47 2.68 63 -7.8 84 -10.1 0 0 981.6 NA 0.0000 9999 2530 4330 0 0
2019/10/11 07:53:00 BASE 2.06 48 2.68 63 -7.8 84 -10.1 0 0 981.6 NA 0.0000 9999 2430 4490 0 0
2019/10/11 07:54:00 BASE 2.05 53 2.68 63 -7.8 84 -10.0 0 0 981.6 NA 0.0000 9999 2400 0 0 0
2019/10/11 07:55:00 BASE 2.12 53 2.68 63 -7.8 84 -10.1 0 0 981.6 NA 0.0000 9999 2400 0 0 0
2019/10/11 07:56:00 BASE 2.25 47 2.68 63 -7.8 84 -10.1 0 0 981.6 NA 0.0000 9999 3540 4860 0 0
2019/10/11 07:57:00 BASE 2.29 45 2.68 63 -7.8 84 -10.1 0 0 981.6 NA 0.0000 9999 3510 4890 0 0
2019/10/11 07:58:00 BASE 2.23 47 2.62 61 -7.9 83 -10.2 0 0 981.6 NA 0.0000 9999 3510 5020 0 0
2019/10/11 07:59:00 BASE 2.10 48 2.62 61 -7.8 83 -10.2 0 0 981.6 NA 0.0000 9999 3410 4950 0 0
2019/10/11 08:00:00 BASE 2.05 46 2.52 43 -7.8 83 -10.2 0 0 981.6 NA 0.0000 9999 7970 0 0 0
2019/10/11 08:01:00 BASE 2.25 46 2.78 45 -7.8 83 -10.2 0 0 981.6 NA 0.0000 9999 4230 4920 0 0
2019/10/11 08:02:00 BASE 2.64 45 2.98 45 -7.8 83 -10.2 0 0 981.6 NA 0.0000 9999 4200 0 0 0
2019/10/11 08:03:00 BASE 2.71 43 2.98 45 -7.8 83 -10.2 0 0 981.6 NA 0.0000 9999 4100 0 0 0
2019/10/11 08:04:00 BASE 2.59 44 2.98 45 -7.8 83 -10.2 0 0 981.6 NA 0.0000 9999 3970 0 0 0
2019/10/11 08:05:00 BASE 2.77 45 3.09 40 -7.8 82 -10.3 0 0 981.6 NA 0.0000 9999 3610 0 0 0
2019/10/11 08:06:00 BASE 2.93 44 3.14 39 -7.9 82 -10.4 0 0 981.6 NA 0.0000 9999 3510 0 0 0
2019/10/11 08:07:00 BASE 2.79 43 3.14 39 -7.9 82 -10.5 0 0 981.6 NA 0.0000 9999 3410 0 0 0
2019/10/11 08:08:00 BASE 2.70 48 3.14 39 -8.0 82 -10.5 0 0 981.6 NA 0.0000 9999 3510 0 0 0
2019/10/11 08:09:00 BASE 2.79 52 3.14 39 -8.1 82 -10.6 0 0 981.6 NA 0.0000 9999 3480 0 0 0
2019/10/11 08:10:00 BASE 2.88 52 3.14 39 -8.1 82 -10.6 0 0 981.6 NA 0.0000 9999 4130 0 0 0
2019/10/11 08:11:00 BASE 2.94 48 3.24 46 -8.1 83 -10.5 0 0 981.6 NA 0.0000 9999 4070 0 0 0
2019/10/11 08:12:00 BASE 3.01 45 3.24 46 -8.1 83 -10.5 0 0 981.6 NA 0.0000 9999 4000 0 0 0
2019/10/11 08:13:00 BASE 2.96 48 3.24 46 -8.1 83 -10.5 0 0 981.6 NA 0.0000 9999 1900 0 0 0
2019/10/11 08:14:00 BASE 2.86 50 3.24 46 -8.1 83 -10.5 0 0 981.6 NA 0.0000 9999 1840 0 0 0
2019/10/11 08:15:00 BASE 2.78 49 3.24 46 -8.1 83 -10.5 0 0 981.6 NA 0.0000 9999 1710 0 0 0
2019/10/11 08:16:00 BASE 2.76 50 3.24 46 -8.1 83 -10.5 0 0 981.6 NA 0.0000 9999 1710 0 0 0
2019/10/11 08:17:00 BASE 2.64 47 3.24 46 -8.1 83 -10.5 0 0 981.6 NA 0.0000 9999 3900 0 0 0
2019/10/11 08:18:00 BASE 2.40 46 3.24 46 -8.1 83 -10.5 0 0 981.6 NA 0.0000 9999 3840 0 0 0
2019/10/11 08:19:00 BASE 2.19 48 3.24 46 -8.1 83 -10.5 0 0 981.6 NA 0.0000 9999 3940 0 0 0
2019/10/11 08:20:00 BASE 2.16 46 3.24 46 -8.1 83 -10.5 0 0 981.6 NA 0.0000 9999 3940 7910 0 0
2019/10/11 08:21:00 BASE 2.56 42 3.45 34 -8.1 83 -10.5 0 0 981.6 NA 0.0000 9999 3900 4860 7910 0
2019/10/11 08:22:00 BASE 2.91 40 3.45 34 -8.1 83 -10.5 0 0 981.6 NA 0.0000 9999 3940 6170 7870 0
2019/10/11 08:23:00 BASE 2.74 39 3.45 34 -8.2 83 -10.5 0 0 981.6 NA 0.0000 9999 3900 5180 0 0
2019/10/11 08:24:00 BASE 2.46 37 3.45 34 -8.2 83 -10.6 0 0 981.6 NA 0.0000 9999 3480 6100 7550 0
2019/10/11 08:25:00 BASE 2.55 36 3.45 34 -8.2 83 -10.6 0 0 981.6 NA 0.0000 9999 4000 7420 0 0
2019/10/11 08:26:00 BASE 2.68 39 3.45 34 -8.3 83 -10.6 0 0 981.6 NA 0.0000 9999 7350 0 0 0
2019/10/11 08:27:00 BASE 2.53 43 3.45 34 -8.3 83 -10.7 0 0 981.6 NA 0.0000 9999 4130 7280 0 0
2019/10/11 08:28:00 BASE 2.58 46 3.45 34 -8.3 83 -10.7 0 0 981.6 NA 0.0000 9999 7250 0 0 0
2019/10/11 08:29:00 BASE 2.76 47 3.45 34 -8.3 83 -10.7 0 0 981.6 NA 0.0000 9999 5640 0 0 0
2019/10/11 08:30:00 BASE 2.66 47 3.45 34 -8.3 83 -10.6 0 0 981.6 NA 0.0000 9999 5580 0 0 0
2019/10/11 08:31:00 BASE 2.48 48 3.09 41 -8.2 83 -10.6 0 0 981.6 NA 0.0000 9999 5580 0 0 0
2019/10/11 08:32:00 BASE 2.41 46 2.98 45 -8.2 83 -10.6 0 0 981.6 NA 0.0000 9999 5540 0 0 0
2019/10/11 08:33:00 BASE 2.44 42 2.98 45 -8.2 83 -10.6 0 0 981.6 NA 0.0000 9999 5610 0 0 0
2019/10/11 08:34:00 BASE 2.54 39 2.98 45 -8.2 83 -10.6 0 0 981.6 NA 0.0000 9999 5680 0 0 0
2019/10/11 08:35:01 BASE 2.68 37 3.09 33 -8.2 83 -10.6 0 0 981.6 NA 0.0000 9999 5680 0 0 0
2019/10/11 08:36:01 BASE 2.78 36 3.09 33 -8.3 83 -10.6 0 0 981.6 NA 0.0000 9999 5710 0 0 0
2019/10/11 08:37:01 BASE 2.75 35 3.09 33 -8.3 83 -10.6 0 0 981.6 NA 0.0000 9999 5740 0 0 0
2019/10/11 08:38:01 BASE 2.62 33 3.09 33 -8.3 83 -10.6 0 0 981.6 NA 0.0000 9999 5770 0 0 0
2019/10/11 08:39:01 BASE 2.50 34 3.09 33 -8.2 83 -10.6 0 0 981.6 NA 0.0000 9999 5680 0 0 0
2019/10/11 08:40:01 BASE 2.53 39 3.09 33 -8.2 83 -10.7 0 0 981.6 NA 0.0000 9999 5770 0 0 0
2019/10/11 08:41:01 BASE 2.60 39 3.09 33 -8.2 82 -10.7 0 0 981.6 NA 0.0000 9999 5740 0 0 0
2019/10/11 08:42:01 BASE 2.77 38 3.09 36 -8.2 82 -10.7 0 0 981.6 NA 0.0000 9999 5740 0 0 0
2019/10/11 08:43:01 BASE 2.70 41 3.09 36 -8.2 82 -10.7 1 0 981.6 NA 0.0000 9999 5710 0 0 0
2019/10/11 08:44:01 BASE 2.54 42 3.09 36 -8.2 82 -10.7 1 0 981.6 NA 0.0000 9999 5740 0 0 0
2019/10/11 08:45:01 BASE 2.51 39 3.09 36 -8.2 82 -10.7 1 0 981.6 NA 0.0000 9999 5770 0 0 0
2019/10/11 08:46:01 BASE 2.37 35 3.09 36 -8.2 82 -10.7 1 0 981.6 NA 0.0000 9999 5710 0 0 0
2019/10/11 08:47:01 BASE 2.21 36 3.09 36 -8.2 82 -10.7 1 0 981.6 NA 0.0000 9999 5740 0 0 0
2019/10/11 08:48:01 BASE 2.03 40 3.09 36 -8.1 82 -10.7 1 0 981.6 NA 0.0000 9999 5710 0 0 0
2019/10/11 08:49:01 BASE 1.99 39 3.09 36 -8.1 82 -10.6 1 0 981.6 NA 0.0000 9999 5740 0 0 0
2019/10/11 08:50:01 BASE 2.08 38 3.09 36 -8.1 82 -10.6 1 0 981.6 NA 0.0000 9999 5710 0 0 0
2019/10/11 08:51:01 BASE 2.26 41 3.09 36 -8.1 82 -10.6 1 0 981.6 NA 0.0000 9999 5740 0 0 0
2019/10/11 08:52:01 BASE 2.33 41 2.68 39 -8.0 82 -10.6 2 0 981.6 NA 0.0000 9999 5710 0 0 0
2019/10/11 08:53:01 BASE 2.35 40 2.68 39 -8.0 81 -10.6 2 0 981.6 NA 0.0000 9999 5740 0 0 0
2019/10/11 08:54:01 BASE 2.41 44 2.62 45 -8.0 81 -10.6 2 0 981.6 NA 0.0000 9999 5680 0 0 0
2019/10/11 08:55:01 BASE 2.27 46 2.62 45 -7.9 81 -10.6 2 0 981.6 NA 0.0000 9999 5710 0 0 0
2019/10/11 08:56:01 BASE 2.19 45 2.62 45 -7.9 81 -10.6 2 0 981.6 NA 0.0000 9999 5740 0 0 0
2019/10/11 08:57:01 BASE 2.31 44 2.83 41 -7.9 81 -10.6 2 0 981.6 NA 0.0000 9999 5770 0 0 0
2019/10/11 08:58:01 BASE 2.63 45 2.93 44 -7.9 81 -10.6 2 0 981.6 NA 0.0000 9999 5740 0 0 0
2019/10/11 08:59:01 BASE 2.62 45 2.93 44 -7.9 80 -10.7 3 0 981.6 NA 0.0000 9999 5770 0 0 0
2019/10/11 09:00:01 BASE 2.27 45 2.93 44 -7.9 80 -10.7 3 0 981.6 NA 0.0000 9999 5740 0 0 0
2019/10/11 09:01:01 BASE 1.94 45 2.93 44 -7.8 80 -10.7 3 0 981.6 NA 0.0000 9999 5740 0 0 0
2019/10/11 09:02:01 BASE 1.71 46 2.93 44 -7.8 80 -10.6 3 0 981.6 NA 0.0000 9999 5740 0 0 0
2019/10/11 09:03:01 BASE 1.78 45 2.93 44 -7.7 80 -10.6 3 0 981.6 NA 0.0000 9999 5740 0 0 0
2019/10/11 09:04:01 BASE 2.05 47 2.93 44 -7.6 79 -10.6 4 0 981.6 NA 0.0000 9999 5740 0 0 0
2019/10/11 09:05:01 BASE 2.50 55 2.93 60 -7.6 79 -10.6 4 0 981.6 NA 0.0000 9999 5710 0 0 0
2019/10/11 09:06:01 BASE 2.75 57 2.93 60 -7.5 79 -10.6 4 0 981.6 NA 0.0000 9999 5770 0 0 0
2019/10/11 09:07:01 BASE 2.77 56 2.93 53 -7.5 78 -10.7 4 0 981.6 NA 0.0000 9999 5770 0 0 0
2019/10/11 09:08:01 BASE 2.88 60 3.24 65 -7.5 78 -10.7 4 0 981.6 NA 0.0000 9999 5740 0 0 0
2019/10/11 09:09:01 BASE 2.86 66 3.24 65 -7.5 77 -10.8 5 0 981.6 NA 0.0000 9999 5770 0 0 0
2019/10/11 09:10:01 BASE 2.75 67 3.24 65 -7.5 77 -10.8 5 0 981.6 NA 0.0000 9999 5770 0 0 0
2019/10/11 09:11:01 BASE 2.76 64 3.24 65 -7.5 77 -10.8 5 0 981.6 NA 0.0000 9999 5740 0 0 0
2019/10/11 09:12:01 BASE 2.92 61 3.45 59 -7.4 77 -10.8 6 0 981.6 NA 0.0000 9999 5740 0 0 0
2019/10/11 09:13:01 BASE 3.34 57 4.06 48 -7.4 77 -10.8 6 0 981.6 NA 0.0000 9999 5810 0 0 0
2019/10/11 09:14:01 BASE 3.92 48 4.32 39 -7.4 77 -10.8 7 0 981.6 NA 0.0000 9999 5710 0 0 0
2019/10/11 09:15:01 BASE 4.14 41 4.48 46 -7.4 76 -10.9 8 0 981.6 NA 0.0000 9999 5740 0 0 0
2019/10/11 09:16:01 BASE 3.65 40 4.48 46 -7.5 76 -10.9 9 0 981.6 NA 0.0000 9999 5770 0 0 0
2019/10/11 09:17:01 BASE 3.09 49 4.48 46 -7.5 76 -11.0 10 0 981.6 NA 0.0000 9999 5740 0 0 0
2019/10/11 09:18:01 BASE 3.06 57 4.48 46 -7.6 76 -11.0 12 0 981.6 NA 0.0000 9999 5770 0 0 0
2019/10/11 09:19:01 BASE 2.98 59 4.48 46 -7.6 76 -11.0 13 0 981.6 NA 0.0000 9999 5840 0 0 0
2019/10/11 09:20:01 BASE 2.60 64 4.48 46 -7.5 77 -10.9 15 0 981.6 NA 0.0000 9999 5810 0 0 0
2019/10/11 09:21:01 BASE 2.56 64 4.48 46 -7.5 77 -10.8 16 0 981.6 NA 0.0000 9999 5770 0 0 0
2019/10/11 09:22:01 BASE 3.27 58 4.48 46 -7.4 77 -10.8 17 0 981.6 NA 0.0000 9999 5770 0 0 0
2019/10/11 09:23:01 BASE 3.95 59 4.73 68 -7.4 77 -10.7 17 0 981.6 NA 0.0000 9999 5810 0 0 0
2019/10/11 09:24:01 BASE 3.96 66 4.73 68 -7.4 77 -10.7 18 0 981.6 NA 0.0000 9999 5810 0 0 0
2019/10/11 09:25:01 BASE 3.93 68 4.89 59 -7.4 78 -10.6 19 0 981.6 NA 0.0000 9999 5770 0 0 0
2019/10/11 09:26:01 BASE 4.69 64 5.81 62 -7.3 78 -10.6 19 0 981.6 NA 0.0000 9999 5840 0 0 0
2019/10/11 09:27:01 BASE 5.12 58 5.81 62 -7.3 78 -10.5 20 0 981.6 NA 0.0000 9999 5840 0 0 0
2019/10/11 09:28:01 BASE 4.39 53 5.81 62 -7.2 78 -10.4 21 0 981.6 NA 0.0000 9999 5810 0 0 0
2019/10/11 09:29:01 BASE 3.77 52 5.81 62 -7.1 78 -10.3 21 0 981.6 NA 0.0000 9999 5840 0 0 0
2019/10/11 09:30:01 BASE 3.60 48 5.81 62 -7.1 78 -10.3 22 0 981.6 NA 0.0000 9999 5840 0 0 0
2019/10/11 09:31:01 BASE 3.70 42 5.81 62 -7.2 78 -10.4 23 0 981.6 NA 0.0000 9999 5770 0 0 0
2019/10/11 09:32:01 BASE 4.10 36 5.81 62 -7.2 78 -10.5 23 0 981.6 NA 0.0000 9999 5770 0 0 0
2019/10/11 09:33:01 BASE 4.08 28 5.81 62 -7.2 78 -10.5 24 0 981.6 NA 0.0000 9999 5840 0 0 0
2019/10/11 09:34:01 BASE 2.36 26 5.81 62 -7.2 78 -10.4 25 0 981.6 NA 0.0000 9999 5810 0 0 0
2019/10/11 09:35:01 BASE 0.83 27 5.81 62 -7.2 78 -10.3 25 0 981.6 NA 0.0000 9999 5810 0 0 0
2019/10/11 09:36:01 BASE 0.78 29 5.71 54 -7.1 78 -10.3 26 0 981.6 NA 0.0000 9999 5740 0 0 0
2019/10/11 09:37:01 BASE 1.88 27 5.56 50 -7.1 78 -10.4 26 0 981.6 NA 0.0000 9999 5770 0 0 0
2019/10/11 09:38:01 BASE 1.71 13 4.99 13 -7.2 78 -10.4 25 0 981.6 NA 0.0000 9999 5840 0 0 0
2019/10/11 09:39:01 BASE 0.21 302 4.99 13 -7.2 78 -10.5 25 0 981.6 NA 0.0000 9999 4760 5940 0 0
2019/10/11 09:40:01 BASE 0.15 276 4.99 13 -7.3 78 -10.6 25 0 981.6 NA 0.0000 9999 4760 5940 0 0
2019/10/11 09:41:01 BASE 0.52 19 4.99 13 -7.4 78 -10.6 24 0 981.6 NA 0.0000 9999 4820 5840 0 0
2019/10/11 09:42:01 BASE 0.85 67 4.99 13 -7.4 78 -10.6 23 0 981.6 NA 0.0000 9999 4490 5840 0 0
2019/10/11 09:43:01 BASE 1.13 59 4.01 28 -7.5 78 -10.7 22 0 981.6 NA 0.0000 9999 3250 4490 5940 0
2019/10/11 09:44:01 BASE 0.95 14 4.01 28 -7.6 78 -10.8 23 0 981.6 NA 0.0000 9999 4490 0 0 0
2019/10/11 09:45:00 BASE 0.34 351 4.01 28 -7.7 78 -10.8 27 0 981.6 NA 0.0000 9999 4530 5870 0 0
2019/10/11 09:46:00 BASE 0.24 14 4.01 28 -7.8 78 -10.9 33 0 981.6 NA 0.0000 9999 4530 5870 0 0
2019/10/11 09:47:00 BASE 0.87 9 1.95 10 -7.7 79 -10.8 40 0 981.6 NA 0.0000 9999 4460 0 0 0
2019/10/11 09:48:00 BASE 1.15 346 1.90 51 -7.7 79 -10.8 46 0 981.6 NA 0.0000 9999 4430 0 0 0
2019/10/11 09:49:00 BASE 0.73 328 2.16 313 -7.7 79 -10.7 48 0 981.6 NA 0.0000 9999 4430 0 0 0
2019/10/11 09:50:00 BASE 0.90 351 2.98 2 -7.7 79 -10.7 47 0 981.6 NA 0.0000 9999 4460 0 0 0
2019/10/11 09:51:00 BASE 1.38 7 2.98 2 -7.6 79 -10.6 46 0 981.6 NA 0.0000 9999 4430 0 0 0
2019/10/11 09:52:00 BASE 2.52 352 6.12 350 -7.7 79 -10.7 44 0 981.6 NA 0.0000 9999 4430 0 0 0
2019/10/11 09:53:00 BASE 5.33 7 8.54 27 -7.7 79 -10.7 43 0 981.6 NA 0.0000 9999 4360 0 0 0
2019/10/11 09:54:00 BASE 8.17 22 10.24 28 -7.8 79 -10.8 45 0 981.5 NA 0.0000 9999 4400 0 0 0
2019/10/11 09:55:00 BASE 10.12 25 12.24 24 -7.9 79 -10.8 49 0 981.5 NA 0.0000 9999 0 0 0 0
2019/10/11 09:56:00 BASE 11.03 25 12.24 24 -7.9 79 -10.9 54 0 981.5 NA 0.0000 9999 0 0 0 0
2019/10/11 09:57:00 BASE 10.91 26 12.24 27 -8.0 80 -10.8 58 0 981.5 NA 0.0000 9999 4200 0 0 0
2019/10/11 09:58:00 BASE 11.07 29 12.55 27 -8.0 80 -10.8 62 0 981.5 NA 0.0000 9999 4200 0 0 0
2019/10/11 09:59:00 BASE 10.88 30 12.55 27 -8.0 81 -10.7 64 0 981.5 NA 0.0000 9999 4200 0 0 0
2019/10/11 10:00:00 BASE 10.54 32 12.55 27 -7.9 81 -10.7 66 0 981.5 NA 0.0000 9999 4200 0 0 0
2019/10/11 10:01:00 BASE 10.66 35 12.55 27 -7.9 81 -10.6 68 0 981.5 NA 0.0000 9999 4400 0 0 0
2019/10/11 10:02:00 BASE 10.59 37 12.55 27 -8.0 81 -10.6 70 0 981.5 NA 0.0000 9999 0 0 0 0
2019/10/11 10:03:00 BASE 11.08 37 12.71 36 -8.0 81 -10.7 73 0 981.5 NA 0.0000 9999 0 0 0 0
2019/10/11 10:04:00 BASE 11.74 35 12.71 36 -8.0 81 -10.7 76 0 981.5 NA 0.0000 9999 0 0 0 0
2019/10/11 10:05:00 BASE 11.20 33 12.71 36 -8.0 81 -10.7 79 0 981.5 NA 0.0000 9999 0 0 0 0
2019/10/11 10:06:00 BASE 10.03 32 12.71 36 -8.0 81 -10.7 82 0 981.6 NA 0.0000 9999 3840 0 0 0
2019/10/11 10:07:00 BASE 9.91 33 12.71 36 -7.9 81 -10.6 88 0 981.6 NA 0.0000 9999 4040 0 0 0
2019/10/11 10:08:00 BASE 10.50 34 12.71 36 -7.9 81 -10.6 94 0 981.6 NA 0.0000 9999 3740 0 0 0
2019/10/11 10:09:00 BASE 11.51 33 13.17 33 -7.8 81 -10.5 101 0 981.5 NA 0.0000 9999 3810 0 0 0
2019/10/11 10:10:00 BASE 12.69 32 15.07 33 -7.7 81 -10.4 107 0 981.5 NA 0.0000 9999 3870 0 0 0
2019/10/11 10:11:00 BASE 13.21 31 15.07 33 -7.6 81 -10.3 112 0 981.5 NA 0.0000 9999 3900 0 0 0
2019/10/11 10:12:00 BASE 13.37 30 15.07 33 -7.5 81 -10.2 115 0 981.5 NA 0.0000 9999 4070 0 0 0
2019/10/11 10:13:00 BASE 13.60 30 15.12 26 -7.4 81 -10.1 117 0 981.5 NA 0.0000 9999 4100 0 0 0
2019/10/11 10:14:00 BASE 14.20 30 15.48 28 -7.4 81 -10.1 116 0 981.5 NA 0.0000 9999 4130 5120 0 0
2019/10/11 10:15:00 BASE 14.35 28 15.48 28 -7.4 81 -10.1 117 0 981.5 NA 0.0000 9999 4170 5220 0 0
2019/10/11 10:16:00 BASE 13.72 26 15.48 28 -7.4 81 -10.0 120 0 981.5 NA 0.0000 9999 4170 0 0 0
2019/10/11 10:17:00 BASE 13.31 25 15.48 28 -7.3 81 -9.9 122 0 981.6 NA 0.0000 9999 4200 5050 0 0
2019/10/11 10:18:00 BASE 13.01 24 15.48 28 -7.2 82 -9.8 125 0 981.5 NA 0.0000 9999 4230 5090 0 0
2019/10/11 10:19:00 BASE 12.78 24 15.48 28 -7.1 82 -9.6 129 0 981.5 NA 0.0000 9999 4360 5090 0 0
2019/10/11 10:20:00 BASE 12.64 29 15.48 28 -7.0 82 -9.5 132 0 981.6 NA 0.0000 9999 4400 5180 0 0
2019/10/11 10:21:00 BASE 13.22 29 16.67 32 -7.0 82 -9.5 133 0 981.5 NA 0.0000 9999 4920 0 0 0
2019/10/11 10:22:00 BASE 14.50 25 16.67 32 -7.0 82 -9.5 132 0 981.4 NA 0.0000 9999 4560 0 0 0
2019/10/11 10:23:00 BASE 16.33 26 19.60 29 -7.1 82 -9.6 130 0 981.4 NA 0.0000 9999 4430 4820 0 0
2019/10/11 10:24:00 BASE 17.48 28 19.60 29 -7.3 82 -9.7 129 0 981.4 NA 0.0000 9999 4460 0 0 0
2019/10/11 10:25:00 BASE 16.28 28 19.60 29 -7.4 83 -9.8 128 0 981.4 NA 0.0000 9999 4760 0 0 0
2019/10/11 10:26:00 BASE 15.13 26 19.60 29 -7.4 83 -9.8 128 0 981.3 NA 0.0000 9999 5090 5840 0 0
2019/10/11 10:27:00 BASE 15.22 25 19.60 29 -7.4 83 -9.7 133 0 981.2 NA 0.0000 9999 5090 5810 0 0
2019/10/11 10:28:00 BASE 16.30 23 19.60 29 -7.3 84 -9.5 140 0 981.2 NA 0.0000 9999 5810 0 0 0
2019/10/11 10:29:00 BASE 17.48 25 19.60 29 -7.2 84 -9.4 144 0 981.2 NA 0.0000 9999 5870 0 0 0
2019/10/11 10:30:00 BASE 17.79 28 19.60 29 -7.0 85 -9.2 148 0 981.2 NA 0.0000 9999 5870 0 0 0
2019/10/11 10:31:00 BASE 17.22 31 19.60 29 -6.9 85 -9.0 154 0 981.2 NA 0.0000 9999 5870 0 0 0
2019/10/11 10:32:00 BASE 17.06 31 19.60 29 -6.8 85 -8.9 163 0 981.2 NA 0.0000 9999 5740 0 0 0
2019/10/11 10:33:00 BASE 17.28 32 19.55 32 -6.7 85 -8.8 170 0 981.2 NA 0.0000 9999 5640 0 0 0
2019/10/11 10:34:00 BASE 17.03 31 20.37 35 -6.6 85 -8.7 172 0 981.1 NA 0.0000 9999 4860 0 0 0
2019/10/11 10:35:00 BASE 17.25 30 20.37 35 -6.6 85 -8.7 182 0 981.1 NA 0.0000 9999 4950 0 0 0
2019/10/11 10:36:00 BASE 17.80 32 20.37 35 -6.6 85 -8.6 185 0 981.1 NA 0.0000 9999 5810 0 0 0
2019/10/11 10:37:00 BASE 18.73 32 22.74 31 -6.5 85 -8.5 188 0 981.0 NA 0.0000 9999 5810 0 0 0
2019/10/11 10:38:00 BASE 20.35 31 22.74 31 -6.5 86 -8.5 187 0 981.0 NA 0.0000 9999 5810 0 0 0
2019/10/11 10:39:00 BASE 21.94 29 24.18 28 -6.4 86 -8.4 250 0 980.9 NA 0.0000 9999 5770 0 0 0
2019/10/11 10:40:00 BASE 22.68 28 24.18 28 -6.4 86 -8.3 253 0 980.9 NA 0.0000 9999 5090 5580 0 0
2019/10/11 10:41:00 BASE 22.11 27 24.18 28 -6.3 86 -8.3 257 0 980.9 NA 0.0000 9999 4990 0 0 0
2019/10/11 10:42:00 BASE 21.32 27 24.18 28 -6.3 86 -8.2 257 0 981.0 NA 0.0000 9999 5320 0 0 0
2019/10/11 10:43:00 BASE 20.53 28 24.18 28 -6.2 86 -8.2 259 0 981.0 NA 0.0000 9999 5540 0 0 0
2019/10/11 10:44:00 BASE 19.42 28 24.18 28 -6.2 86 -8.2 262 0 981.1 NA 0.0000 9999 5680 0 0 0
2019/10/11 10:45:00 BASE 19.28 28 24.18 28 -6.2 86 -8.1 263 0 981.1 NA 0.0000 9999 5680 0 0 0
2019/10/11 10:46:00 BASE 19.54 26 24.18 28 -6.2 86 -8.1 262 0 981.1 NA 0.0000 9999 5680 0 0 0
2019/10/11 10:47:00 BASE 19.04 27 24.18 28 -6.1 86 -8.1 258 0 981.1 NA 0.0000 9999 5220 0 0 0
2019/10/11 10:48:00 BASE 18.00 28 24.18 28 -6.1 86 -8.1 249 0 981.2 NA 0.0000 9999 5640 0 0 0
2019/10/11 10:49:00 BASE 17.22 29 24.02 33 -6.1 86 -8.1 257 0 981.2 NA 0.0000 9999 5680 0 0 0
2019/10/11 10:50:00 BASE 16.71 30 22.94 26 -6.1 86 -8.1 257 0 981.2 NA 0.0000 9999 5710 0 0 0
2019/10/11 10:51:00 BASE 16.58 32 22.89 26 -6.1 85 -8.1 255 0 981.3 NA 0.0000 9999 5740 0 0 0
2019/10/11 10:52:00 BASE 15.68 36 21.61 28 -6.1 85 -8.2 254 0 981.3 NA 0.0000 9999 5740 0 0 0
2019/10/11 10:53:00 BASE 14.95 38 21.30 26 -6.1 85 -8.3 250 0 981.4 NA 0.0000 9999 5740 0 0 0
2019/10/11 10:54:00 BASE 14.97 41 21.30 26 -6.2 85 -8.4 244 0 981.4 NA 0.0000 9999 5740 0 0 0
2019/10/11 10:55:00 BASE 15.10 42 21.20 26 -6.4 84 -8.6 247 0 980.7 NA 0.0000 9999 5740 0 0 0
2019/10/11 10:56:00 BASE 15.75 41 20.27 21 -6.6 84 -8.9 246 0 981.3 NA 0.0000 9999 5680 0 0 0
2019/10/11 10:57:00 BASE 17.16 40 19.91 32 -6.7 84 -9.1 249 0 981.3 NA 0.0000 9999 5710 0 0 0
2019/10/11 10:58:00 BASE 18.29 42 19.96 49 -6.8 84 -9.1 252 0 981.3 NA 0.0000 9999 0 0 0 0
2019/10/11 10:59:00 BASE 18.52 44 20.53 43 -6.8 84 -9.1 257 0 981.3 NA 0.0000 9999 0 0 0 0
2019/10/11 11:00:00 BASE 19.24 45 20.89 45 -6.8 84 -9.1 255 0 981.3 NA 0.0000 9999 0 0 0 0
2019/10/11 11:01:00 BASE 19.89 46 20.94 46 -6.7 84 -8.9 251 0 981.2 NA 0.0000 9999 5870 0 0 0
2019/10/11 11:02:00 BASE 19.65 46 20.94 46 -6.6 84 -8.9 255 0 981.3 NA 0.0000 9999 5870 0 0 0
2019/10/11 11:03:00 BASE 18.94 46 20.94 46 -6.5 84 -8.8 255 0 981.3 NA 0.0000 9999 0 0 0 0
2019/10/11 11:04:00 BASE 18.56 45 20.94 46 -6.5 84 -8.8 268 0 981.4 NA 0.0000 9999 6070 0 0 0
2019/10/11 11:05:00 BASE 18.37 44 20.94 46 -6.4 84 -8.6 272 0 981.4 NA 0.0000 9999 5970 0 0 0
2019/10/11 11:06:00 BASE 18.41 44 20.94 46 -6.2 84 -8.5 269 0 981.4 NA 0.0000 9999 5970 6660 0 0
2019/10/11 11:07:00 BASE 18.34 41 20.94 46 -6.1 84 -8.4 108 0 981.4 NA 0.0000 9999 6630 0 0 0
2019/10/11 11:08:00 BASE 17.82 41 20.94 46 -6.0 83 -8.4 112 0 981.4 NA 0.0000 9999 6330 0 0 0
2019/10/11 11:09:00 BASE 16.99 41 20.94 46 -6.0 83 -8.5 115 0 981.3 NA 0.0000 9999 6070 0 0 0
2019/10/11 11:10:01 BASE 16.16 41 20.94 46 -6.0 82 -8.6 111 0 981.0 NA 0.0000 9999 6040 0 0 0
2019/10/11 11:11:01 BASE 16.13 42 20.32 45 -6.1 82 -8.7 111 0 981.5 NA 0.0000 9999 6040 0 0 0
2019/10/11 11:12:01 BASE 16.68 43 20.32 45 -6.1 81 -8.8 112 0 981.5 NA 0.0000 9999 6140 0 0 0
2019/10/11 11:13:01 BASE 16.85 45 20.32 45 -6.1 81 -8.9 115 0 981.5 NA 0.0000 9999 6370 0 0 0
2019/10/11 11:14:00 BASE 16.24 45 19.70 40 -6.1 80 -8.9 122 0 981.5 NA 0.0000 9999 6400 0 0 0
2019/10/11 11:15:00 BASE 16.38 46 19.70 40 -6.1 80 -9.0 141 0 981.5 NA 0.0000 9999 6370 0 0 0
2019/10/11 11:16:01 BASE 17.06 45 19.45 41 -6.1 80 -9.1 220 0 981.5 NA 0.0000 6000 6270 0 0 0
2019/10/11 11:17:01 BASE 17.30 45 18.78 39 -6.1 79 -9.1 313 0 981.5 NA 0.0000 9000 6270 0 0 0
2019/10/11 11:18:01 BASE 17.34 45 18.78 39 -6.1 79 -9.1 318 0 981.5 NA 0.0000 9999 6370 0 0 0
2019/10/11 11:19:01 BASE 16.65 44 18.78 39 -6.0 79 -9.1 294 0 981.6 NA 0.0000 9999 6330 0 0 0
2019/10/11 11:20:01 BASE 16.45 45 18.78 39 -5.9 78 -9.1 313 0 981.6 NA 0.0000 9999 6370 0 0 0
2019/10/11 11:21:01 BASE 16.02 46 18.78 39 -5.8 78 -9.1 294 0 981.6 NA 0.0000 9999 6530 0 0 0
2019/10/11 11:22:01 BASE 15.63 47 18.78 39 -5.7 77 -9.1 328 0 981.6 NA 0.0000 9999 6820 0 0 0
2019/10/11 11:23:01 BASE 15.72 49 18.78 39 -5.7 77 -9.1 300 0 981.6 NA 0.0000 9999 6990 0 0 0
2019/10/11 11:24:01 BASE 14.88 49 18.78 39 -5.7 76 -9.2 325 0 981.6 NA 0.0000 9999 6890 0 0 0
2019/10/11 11:25:01 BASE 14.71 48 18.73 48 -5.7 76 -9.3 285 0 981.6 NA 0.0000 9999 6960 0 0 0
2019/10/11 11:26:01 BASE 14.80 49 18.73 48 -5.7 75 -9.4 290 0 981.6 NA 0.0000 9999 6960 0 0 0
2019/10/11 11:27:01 BASE 14.12 52 18.31 43 -5.7 75 -9.4 300 0 981.3 NA 0.0000 9999 6960 22150 0 0
2019/10/11 11:28:01 BASE 14.54 55 18.21 44 -5.7 75 -9.5 312 0 981.6 NA 0.0000 9999 4460 6960 0 0
2019/10/11 11:29:01 BASE 15.04 53 18.21 44 -5.8 74 -9.6 316 0 981.6 NA 0.0000 9999 6920 0 0 0
2019/10/11 11:30:01 BASE 14.39 49 16.82 47 -5.8 74 -9.7 343 0 981.6 NA 0.0000 9999 6960 22740 0 0
2019/10/11 11:31:01 BASE 13.86 48 16.57 49 -5.8 74 -9.8 339 0 981.6 NA 0.0000 9999 6990 0 0 0
2019/10/11 11:32:01 BASE 13.75 48 16.41 48 -5.9 73 -9.9 330 0 981.6 NA 0.0000 9999 7050 0 0 0
2019/10/11 11:33:01 BASE 14.01 46 16.20 56 -5.9 73 -9.9 335 0 981.6 NA 0.0000 9999 7090 0 0 0
2019/10/11 11:34:01 BASE 13.92 41 16.20 56 -5.9 73 -10.0 327 0 981.6 NA 0.0000 9999 7190 0 0 0
2019/10/11 11:35:01 BASE 13.19 40 16.20 56 -5.8 72 -10.0 323 0 981.6 NA 0.0000 9999 7190 0 0 0
2019/10/11 11:36:01 BASE 12.65 41 16.20 56 -5.7 72 -10.0 303 0 981.6 NA 0.0000 9999 7250 0 0 0
2019/10/11 11:37:01 BASE 12.51 41 16.20 56 -5.7 71 -10.0 313 0 981.6 NA 0.0000 9999 7320 0 0 0
2019/10/11 11:38:01 BASE 12.63 40 15.79 49 -5.7 71 -10.1 328 0 981.6 NA 0.0000 9999 7450 0 0 0
2019/10/11 11:39:01 BASE 13.33 36 15.18 49 -5.7 70 -10.3 329 0 981.6 NA 0.0000 9999 7480 0 0 0
2019/10/11 11:40:01 BASE 14.51 34 16.10 37 -5.7 70 -10.3 324 0 981.6 NA 0.0000 9999 0 0 0 0
2019/10/11 11:41:01 BASE 14.97 34 16.10 37 -5.8 70 -10.4 331 0 981.6 NA 0.0000 9999 0 0 0 0
2019/10/11 11:42:01 BASE 14.43 36 16.10 37 -5.8 70 -10.5 339 0 981.6 NA 0.0000 9999 0 0 0 0
2019/10/11 11:43:01 BASE 14.08 37 16.10 37 -5.9 70 -10.6 339 0 981.6 NA 0.0000 9999 0 0 0 0
2019/10/11 11:44:01 BASE 14.23 34 16.10 37 -5.9 70 -10.6 340 0 981.5 NA 0.0000 9999 4690 0 0 0
2019/10/11 11:45:01 BASE 14.46 32 16.10 37 -5.9 69 -10.6 342 0 981.5 NA 0.0000 9999 4720 5840 0 0
2019/10/11 11:46:01 BASE 15.01 31 16.62 27 -6.0 69 -10.7 337 0 981.5 NA 0.0000 9999 5870 0 0 0
2019/10/11 11:47:01 BASE 15.32 29 16.62 27 -6.0 69 -10.8 335 0 981.0 NA 0.0000 9999 5910 0 0 0
2019/10/11 11:48:01 BASE 15.38 29 17.29 27 -6.0 69 -10.8 340 0 981.4 NA 0.0000 9999 0 0 0 0
2019/10/11 11:49:01 BASE 15.08 28 17.29 27 -6.0 69 -10.8 336 0 981.4 NA 0.0000 9999 4690 0 0 0
2019/10/11 11:50:01 BASE 14.84 28 17.29 27 -5.9 69 -10.8 336 0 981.4 NA 0.0000 9999 0 0 0 0
2019/10/11 11:51:01 BASE 15.12 31 17.29 27 -5.9 69 -10.7 310 0 981.4 NA 0.0000 9999 0 0 0 0
2019/10/11 11:52:01 BASE 15.32 31 17.29 27 -5.8 68 -10.7 308 0 981.3 NA 0.0000 9999 0 0 0 0
2019/10/11 11:53:01 BASE 15.52 30 17.29 27 -5.8 68 -10.7 329 0 981.4 NA 0.0000 9999 0 0 0 0
2019/10/11 11:54:01 BASE 15.66 31 17.34 34 -5.8 68 -10.7 317 0 981.4 NA 0.0000 9999 0 0 0 0
2019/10/11 11:55:01 BASE 15.84 32 17.34 34 -5.8 68 -10.7 320 0 981.4 NA 0.0000 9999 0 0 0 0
2019/10/11 11:56:01 BASE 15.90 31 17.44 32 -5.8 68 -10.6 332 0 981.4 NA 0.0000 9999 0 0 0 0
2019/10/11 11:57:01 BASE 15.56 30 17.44 32 -5.7 69 -10.6 321 0 981.4 NA 0.0000 9999 0 0 0 0
2019/10/11 11:58:01 BASE 15.15 29 17.44 32 -5.7 69 -10.5 326 0 981.4 NA 0.0000 9999 0 0 0 0
2019/10/11 11:59:01 BASE 14.85 30 17.44 32 -5.7 69 -10.5 326 0 981.0 NA 0.0000 9999 0 0 0 0
2019/10/11 12:00:01 BASE 15.90 28 19.45 25 -5.6 69 -10.4 308 0 981.1 NA 0.0000 9999 0 0 0 0
2019/10/11 12:01:01 BASE 17.47 23 19.45 25 -5.5 69 -10.3 327 0 981.3 NA 0.0000 9999 0 0 0 0
2019/10/11 12:02:01 BASE 17.72 20 19.45 25 -5.4 69 -10.1 332 0 981.3 NA 0.0000 9999 0 0 0 0
2019/10/11 12:03:01 BASE 17.71 24 19.45 25 -5.3 69 -10.0 342 0 981.3 NA 0.0000 9999 0 0 0 0
2019/10/11 12:04:01 BASE 17.24 26 19.45 25 -5.1 69 -9.9 312 0 981.3 NA 0.0000 9999 0 0 0 0
2019/10/11 12:05:01 BASE 16.43 25 19.45 25 -5.0 69 -9.8 288 0 981.3 NA 0.0000 9999 0 0 0 0
2019/10/11 12:06:01 BASE 15.47 26 19.45 25 -5.0 69 -9.8 287 0 981.4 NA 0.0000 9999 0 0 0 0
2019/10/11 12:07:01 BASE 15.48 29 19.45 25 -5.0 68 -10.0 292 0 981.4 NA 0.0000 9999 0 0 0 0
2019/10/11 12:08:01 BASE 15.91 27 19.45 25 -5.1 68 -10.0 301 0 981.4 NA 0.0000 9999 0 0 0 0
2019/10/11 12:09:01 BASE 16.56 24 19.45 25 -5.1 68 -10.1 318 0 981.4 NA 0.0000 9999 0 0 0 0
2019/10/11 12:10:01 BASE 17.67 25 19.45 25 -5.1 68 -10.1 342 0 981.4 NA 0.0000 9999 0 0 0 0
2019/10/11 12:11:01 BASE 17.80 25 19.65 22 -5.1 68 -10.1 360 0 981.4 NA 0.0000 9999 0 0 0 0
2019/10/11 12:12:01 BASE 17.50 21 19.65 22 -5.1 68 -10.1 359 0 981.3 NA 0.0000 9999 0 0 0 0
2019/10/11 12:13:01 BASE 16.80 20 19.65 22 -5.0 68 -10.0 354 0 981.4 NA 0.0000 9999 0 0 0 0
2019/10/11 12:14:01 BASE 16.05 22 19.65 22 -5.0 68 -10.0 352 0 981.4 NA 0.0000 9999 0 0 0 0
2019/10/11 12:15:01 BASE 15.54 24 19.65 22 -5.0 68 -9.9 337 0 981.4 NA 0.0000 9999 0 0 0 0
2019/10/11 12:16:01 BASE 15.78 25 19.65 22 -5.0 68 -9.9 346 0 981.4 NA 0.0000 9999 0 0 0 0
2019/10/11 12:17:01 BASE 15.03 28 19.65 22 -5.0 68 -9.9 365 0 981.4 NA 0.0000 9999 0 0 0 0
2019/10/11 12:18:01 BASE 14.20 29 19.65 22 -5.0 68 -9.9 367 0 981.5 NA 0.0000 9999 0 0 0 0
2019/10/11 12:19:01 BASE 15.08 26 19.65 22 -5.0 68 -10.0 368 0 981.4 NA 0.0000 9999 0 0 0 0
2019/10/11 12:20:01 BASE 16.65 25 19.81 24 -5.0 68 -10.0 380 0 981.3 NA 0.0000 9999 0 0 0 0
2019/10/11 12:21:01 BASE 17.69 24 19.81 24 -5.0 68 -10.0 396 0 981.3 NA 0.0000 9999 0 0 0 0
2019/10/11 12:22:01 BASE 17.83 24 20.53 23 -4.9 68 -9.9 384 0 981.3 NA 0.0000 9999 0 0 0 0
2019/10/11 12:23:01 BASE 18.10 24 20.53 23 -4.9 68 -9.9 385 0 981.3 NA 0.0000 9999 0 0 0 0
2019/10/11 12:24:01 BASE 17.71 25 20.53 23 -4.8 68 -9.8 364 0 981.4 NA 0.0000 9999 0 0 0 0
2019/10/11 12:25:01 BASE 17.34 24 20.53 23 -4.8 68 -9.8 366 0 981.4 NA 0.0000 9999 0 0 0 0
2019/10/11 12:26:01 BASE 17.49 23 20.53 23 -4.7 68 -9.8 372 0 981.3 NA 0.0000 9999 0 0 0 0
2019/10/11 12:27:01 BASE 17.00 22 20.53 23 -4.7 68 -9.7 349 0 980.8 NA 0.0000 9999 0 0 0 0
2019/10/11 12:28:01 BASE 16.65 23 20.53 23 -4.7 68 -9.7 362 0 981.1 NA 0.0000 9999 0 0 0 0
2019/10/11 12:29:01 BASE 16.16 25 20.53 23 -4.7 68 -9.7 371 0 981.3 NA 0.0000 9999 0 0 0 0
2019/10/11 12:30:01 BASE 16.28 27 20.53 23 -4.7 68 -9.8 383 0 981.4 NA 0.0000 9999 0 0 0 0
2019/10/11 12:31:01 BASE 16.62 31 20.53 23 -4.7 67 -9.8 387 0 981.3 NA 0.0000 9999 0 0 0 0
2019/10/11 12:32:01 BASE 14.77 32 19.39 27 -4.6 67 -9.8 393 0 981.5 NA 0.0000 9999 0 0 0 0
2019/10/11 12:33:01 BASE 12.71 30 18.67 30 -4.6 66 -9.9 390 0 981.5 NA 0.0000 9999 0 0 0 0
2019/10/11 12:34:01 BASE 12.86 28 18.67 30 -4.6 66 -10.0 393 0 981.5 NA 0.0000 9999 0 0 0 0
2019/10/11 12:35:01 BASE 15.52 26 19.39 22 -4.6 66 -10.1 403 0 980.9 NA 0.0000 9999 0 0 0 0
2019/10/11 12:36:01 BASE 17.85 23 19.39 22 -4.6 65 -10.2 407 0 980.9 NA 0.0000 9999 0 0 0 0
2019/10/11 12:37:01 BASE 17.38 21 19.39 22 -4.6 65 -10.2 417 0 981.4 NA 0.0000 9999 0 0 0 0
2019/10/11 12:38:01 BASE 16.40 22 19.39 22 -4.6 65 -10.2 401 0 981.4 NA 0.0000 9999 0 0 0 0
2019/10/11 12:39:01 BASE 16.15 24 19.39 22 -4.5 65 -10.1 395 0 981.4 NA 0.0000 9999 0 0 0 0
2019/10/11 12:40:01 BASE 14.90 26 19.39 22 -4.5 65 -10.1 408 0 981.5 NA 0.0000 9999 0 0 0 0
2019/10/11 12:41:00 BASE 13.27 29 19.39 22 -4.6 65 -10.1 413 0 981.6 NA 0.0000 9999 0 0 0 0
2019/10/11 12:42:01 BASE 12.93 34 19.39 22 -4.6 65 -10.1 399 0 981.6 NA 0.0000 9999 0 0 0 0
2019/10/11 12:43:01 BASE 12.85 34 19.39 22 -4.7 65 -10.2 414 0 981.5 NA 0.0000 9999 0 0 0 0
2019/10/11 12:44:01 BASE 13.24 30 19.39 22 -4.8 66 -10.2 417 0 981.6 NA 0.0000 9999 0 0 0 0
2019/10/11 12:45:01 BASE 14.04 25 19.09 22 -4.8 66 -10.2 415 0 981.6 NA 0.0000 9999 0 0 0 0
2019/10/11 12:46:01 BASE 15.05 24 18.06 22 -4.8 66 -10.1 428 0 981.5 NA 0.0000 9999 0 0 0 0
2019/10/11 12:47:01 BASE 15.64 24 17.85 18 -4.8 67 -10.1 424 0 981.5 NA 0.0000 9999 0 0 0 0
2019/10/11 12:48:01 BASE 14.65 24 17.70 27 -4.7 67 -10.0 425 0 981.5 NA 0.0000 9999 0 0 0 0
2019/10/11 12:49:01 BASE 14.08 26 17.54 31 -4.7 67 -9.9 424 0 981.5 NA 0.0000 9999 0 0 0 0
2019/10/11 12:50:01 BASE 14.70 25 17.54 31 -4.6 66 -9.9 421 0 981.6 NA 0.0000 9999 0 0 0 0
2019/10/11 12:51:01 BASE 15.04 23 17.54 31 -4.5 66 -9.9 423 0 981.6 NA 0.0000 9999 0 0 0 0
2019/10/11 12:52:01 BASE 14.74 22 17.54 31 -4.5 66 -9.9 426 0 981.6 NA 0.0000 9999 0 0 0 0
2019/10/11 12:53:00 BASE 14.13 22 17.54 31 -4.5 66 -9.9 436 0 981.6 NA 0.0000 9999 0 0 0 0
2019/10/11 12:54:01 BASE 13.72 21 17.54 31 -4.4 66 -9.8 455 0 981.3 NA 0.0000 9999 0 0 0 0
2019/10/11 12:55:00 BASE 13.54 20 17.54 31 -4.4 66 -9.8 465 0 981.7 NA 0.0000 9999 0 0 0 0
2019/10/11 12:56:01 BASE 13.32 20 17.54 31 -4.4 66 -9.8 449 0 981.7 NA 0.0000 9999 4860 0 0 0
2019/10/11 12:57:00 BASE 13.17 22 16.41 22 -4.4 66 -9.7 455 0 981.7 NA 0.0000 9999 4760 0 0 0
2019/10/11 12:58:01 BASE 14.05 23 16.41 22 -4.4 67 -9.6 455 0 981.7 NA 0.0000 9999 4920 0 0 0
2019/10/11 12:59:00 BASE 14.44 24 16.41 22 -4.4 67 -9.6 455 0 981.7 NA 0.0000 9999 4890 0 0 0
2019/10/11 13:00:01 BASE 13.94 23 15.84 20 -4.4 67 -9.5 460 0 981.7 NA 0.0000 9999 4990 21030 0 0
2019/10/11 13:01:01 BASE 14.05 23 15.84 20 -4.3 67 -9.5 471 0 981.3 NA 0.0000 9999 0 0 0 0
2019/10/11 13:02:01 BASE 13.90 23 15.84 20 -4.3 67 -9.5 474 0 981.6 NA 0.0000 9999 4720 0 0 0
2019/10/11 13:03:00 BASE 13.79 22 15.84 20 -4.3 67 -9.6 467 0 981.7 NA 0.0000 9999 0 0 0 0
2019/10/11 13:04:01 BASE 13.79 21 15.84 20 -4.2 66 -9.6 474 0 981.7 NA 0.0000 9999 0 0 0 0
2019/10/11 13:05:01 BASE 13.99 23 15.84 20 -4.2 66 -9.6 469 0 981.7 NA 0.0000 9999 0 0 0 0
2019/10/11 13:06:00 BASE 14.26 23 15.84 20 -4.2 66 -9.6 467 0 981.7 NA 0.0000 9999 0 0 0 0
2019/10/11 13:07:01 BASE 14.93 20 16.20 16 -4.2 66 -9.6 444 0 981.6 NA 0.0000 9999 0 0 0 0
2019/10/11 13:08:00 BASE 15.53 19 16.87 18 -4.2 66 -9.6 507 0 981.7 NA 0.0000 9999 0 0 0 0
2019/10/11 13:09:00 BASE 15.21 19 16.87 18 -4.2 66 -9.6 492 0 981.7 NA 0.0000 9999 0 0 0 0
2019/10/11 13:10:01 BASE 14.50 23 16.87 18 -4.2 66 -9.6 499 0 981.7 NA 0.0000 9999 0 0 0 0
2019/10/11 13:11:00 BASE 14.94 28 17.29 25 -4.1 66 -9.5 514 0 981.7 NA 0.0000 9999 0 0 0 0
2019/10/11 13:12:00 BASE 15.19 26 17.29 25 -4.1 66 -9.5 382 0 981.7 NA 0.0000 9999 0 0 0 0
2019/10/11 13:13:00 BASE 14.42 25 17.29 25 -4.2 66 -9.5 212 0 981.7 NA 0.0000 9999 0 0 0 0
2019/10/11 13:14:00 BASE 14.06 25 17.29 25 -4.2 66 -9.6 206 0 981.8 NA 0.0000 9999 0 0 0 0
2019/10/11 13:15:00 BASE 13.76 25 17.29 25 -4.3 66 -9.7 205 0 981.8 NA 0.0000 9999 0 0 0 0
2019/10/11 13:16:00 BASE 13.30 27 17.29 25 -4.4 66 -9.7 201 0 981.8 NA 0.0000 9999 0 0 0 0
2019/10/11 13:17:00 BASE 13.09 27 17.29 25 -4.5 67 -9.8 202 0 981.8 NA 0.0000 9999 0 0 0 0
2019/10/11 13:18:00 BASE 13.07 27 17.29 25 -4.6 67 -9.8 214 0 981.8 NA 0.0000 9999 0 0 0 0
2019/10/11 13:19:00 BASE 13.18 28 17.29 25 -4.6 67 -9.7 232 0 981.8 NA 0.0000 9999 3380 0 0 0
2019/10/11 13:20:00 BASE 12.95 28 17.29 25 -4.6 68 -9.7 246 0 981.8 NA 0.0000 9999 3350 5610 0 0
2019/10/11 13:21:01 BASE 11.66 29 15.64 22 -4.5 68 -9.6 256 0 981.9 NA 0.0000 9999 3350 0 0 0
2019/10/11 13:22:01 BASE 10.67 31 15.64 22 -4.5 68 -9.5 270 0 981.9 NA 0.0000 9999 3310 0 0 0
2019/10/11 13:23:00 BASE 10.50 35 15.64 22 -4.4 68 -9.5 272 0 981.9 NA 0.0000 9999 3380 0 0 0
2019/10/11 13:24:01 BASE 10.17 37 14.61 34 -4.4 68 -9.5 346 0 982.0 NA 0.0000 9999 3580 0 0 0
2019/10/11 13:25:01 BASE 10.12 37 14.61 34 -4.4 67 -9.5 444 0 981.9 NA 0.0000 9999 3900 0 0 0
2019/10/11 13:26:00 BASE 10.99 38 14.51 22 -4.3 67 -9.5 479 0 981.9 NA 0.0000 9999 3970 0 0 0
2019/10/11 13:27:00 BASE 11.70 41 14.51 22 -4.2 67 -9.4 449 0 981.9 NA 0.0000 9999 4040 0 0 0
2019/10/11 13:28:00 BASE 12.06 40 14.51 22 -4.1 67 -9.4 520 0 981.9 NA 0.0000 9999 0 0 0 0
2019/10/11 13:29:00 BASE 12.35 39 14.25 43 -4.0 66 -9.4 528 0 981.8 NA 0.0000 9999 4200 0 0 0
2019/10/11 13:30:00 BASE 11.82 43 14.25 43 -3.9 66 -9.4 529 0 981.8 NA 0.0000 9999 4170 21880 0 0
2019/10/11 13:31:00 BASE 11.54 45 14.25 43 -3.9 65 -9.5 557 0 981.8 NA 0.0000 9999 7640 0 0 0
2019/10/11 13:32:00 BASE 11.82 45 14.25 43 -3.8 65 -9.5 571 0 981.8 NA 0.0000 9999 6530 0 0 0
2019/10/11 13:33:00 BASE 12.19 44 14.25 43 -3.8 64 -9.6 569 0 981.8 NA 0.0000 9999 7580 0 0 0
2019/10/11 13:34:01 BASE 12.78 41 14.25 26 -3.7 63 -9.7 582 0 981.7 NA 0.0000 9999 7580 0 0 0
2019/10/11 13:35:00 BASE 13.03 38 14.25 26 -3.7 63 -9.7 576 0 981.7 NA 0.0000 9999 7640 0 0 0
2019/10/11 13:36:01 BASE 13.15 40 14.40 40 -3.7 63 -9.8 578 0 981.7 NA 0.0000 9999 0 0 0 0
2019/10/11 13:37:00 BASE 13.10 40 14.40 40 -3.7 62 -9.8 566 0 981.7 NA 0.0000 9999 21490 0 0 0
2019/10/11 13:38:01 BASE 12.52 40 14.40 40 -3.7 62 -9.9 559 0 981.8 NA 0.0000 9999 0 0 0 0
2019/10/11 13:39:00 BASE 12.27 42 14.40 40 -3.7 62 -9.9 461 0 981.8 NA 0.0000 9999 0 0 0 0
2019/10/11 13:40:00 BASE 12.56 41 14.40 39 -3.8 63 -9.9 311 0 981.8 NA 0.0000 9999 0 0 0 0
2019/10/11 13:41:00 BASE 12.75 43 14.40 39 -3.9 63 -9.9 259 0 981.8 NA 0.0000 9999 0 0 0 0
2019/10/11 13:42:00 BASE 12.65 46 14.40 39 -4.0 63 -10.0 291 0 981.8 NA 0.0000 9999 0 0 0 0
2019/10/11 13:43:00 BASE 12.60 46 14.40 39 -4.1 63 -10.0 306 0 981.8 NA 0.0000 9999 0 0 0 0
2019/10/11 13:44:00 BASE 12.72 46 14.40 39 -4.2 64 -10.0 463 0 981.8 NA 0.0000 9999 0 0 0 0
2019/10/11 13:45:00 BASE 12.87 46 14.40 39 -4.2 64 -10.0 513 0 981.7 NA 0.0000 9999 0 0 0 0
2019/10/11 13:46:00 BASE 12.92 46 14.40 39 -4.2 65 -9.9 552 0 981.8 NA 0.0000 9999 0 0 0 0
2019/10/11 13:47:00 BASE 12.56 46 14.40 39 -4.1 65 -9.7 513 0 981.7 NA 0.0000 9999 4660 0 0 0
2019/10/11 13:48:00 BASE 12.35 46 14.40 39 -4.0 65 -9.6 448 0 981.8 NA 0.0000 9999 4760 0 0 0
2019/10/11 13:49:00 BASE 12.61 45 14.40 39 -4.0 65 -9.6 492 0 981.8 NA 0.0000 9999 4590 0 0 0
2019/10/11 13:50:00 BASE 12.02 45 13.94 44 -4.0 65 -9.6 545 0 981.8 NA 0.0000 9999 4560 0 0 0
2019/10/11 13:51:00 BASE 11.35 47 13.94 44 -3.9 65 -9.6 595 0 981.8 NA 0.0000 9999 4660 7680 0 0
2019/10/11 13:52:00 BASE 11.16 49 13.94 44 -3.9 64 -9.7 544 0 981.8 NA 0.0000 9999 4630 0 0 0
2019/10/11 13:53:00 BASE 10.47 50 13.89 45 -3.9 64 -9.7 454 0 981.8 NA 0.0000 9999 4660 0 0 0
2019/10/11 13:54:01 BASE 9.82 51 13.89 45 -3.9 65 -9.6 415 0 981.8 NA 0.0000 9999 4660 0 0 0
2019/10/11 13:55:00 BASE 9.96 53 13.89 45 -4.0 65 -9.5 407 0 981.8 NA 0.0000 9999 4690 0 0 0
2019/10/11 13:56:00 BASE 10.74 53 13.89 45 -4.0 66 -9.5 468 0 981.9 NA 0.0000 9999 4630 0 0 0
2019/10/11 13:57:00 BASE 11.03 53 13.89 45 -4.0 66 -9.4 609 0 981.8 NA 0.0000 9999 4560 0 0 0
2019/10/11 13:58:00 BASE 11.23 53 13.89 45 -4.0 67 -9.3 580 0 981.9 NA 0.0000 9999 4630 0 0 0
2019/10/11 13:59:00 BASE 11.78 53 13.07 51 -4.0 67 -9.3 700 0 981.8 NA 0.0000 9999 4630 0 0 0
2019/10/11 14:00:00 BASE 12.35 58 13.94 56 -3.9 66 -9.2 643 0 981.8 NA 0.0000 9999 4690 0 0 0
2019/10/11 14:01:00 BASE 12.24 65 13.94 56 -3.8 66 -9.3 498 0 981.8 NA 0.0000 9999 4720 0 0 0
2019/10/11 14:02:00 BASE 11.61 68 13.94 56 -3.8 65 -9.4 485 0 981.8 NA 0.0000 9999 4760 0 0 0
2019/10/11 14:03:00 BASE 11.42 65 13.94 56 -3.8 65 -9.5 544 0 981.8 NA 0.0000 9999 4760 0 0 0
2019/10/11 14:04:01 BASE 11.57 63 13.94 56 -3.8 64 -9.6 492 0 981.8 NA 0.0000 9999 4760 0 0 0
2019/10/11 14:05:01 BASE 12.31 67 14.15 74 -3.8 64 -9.6 553 0 981.8 NA 0.0000 9999 4760 0 0 0
2019/10/11 14:06:00 BASE 12.67 76 14.15 74 -3.9 64 -9.7 593 0 981.8 NA 0.0000 9999 4760 0 0 0
2019/10/11 14:07:00 BASE 11.81 82 14.15 74 -3.9 64 -9.8 554 0 981.9 NA 0.0000 9999 4720 0 0 0
2019/10/11 14:08:00 BASE 11.23 81 14.15 74 -3.9 64 -9.8 597 0 981.9 NA 0.0000 9999 4760 0 0 0
2019/10/11 14:09:00 BASE 10.85 80 14.15 74 -4.0 64 -9.9 656 0 981.9 NA 0.0000 9999 4760 0 0 0
2019/10/11 14:10:00 BASE 10.70 79 14.15 74 -4.1 64 -9.9 558 0 981.9 NA 0.0000 9999 4790 0 0 0
2019/10/11 14:11:00 BASE 10.71 81 14.15 74 -4.1 64 -9.9 706 0 982.0 NA 0.0000 9999 4890 0 0 0
2019/10/11 14:12:00 BASE 10.12 82 14.15 74 -4.1 64 -9.8 799 0 981.9 NA 0.0000 9999 4890 0 0 0
2019/10/11 14:13:00 BASE 10.03 85 14.15 74 -4.1 65 -9.7 711 0 981.9 NA 0.0000 9999 4820 0 0 0
2019/10/11 14:14:00 BASE 11.32 93 14.15 74 -4.0 65 -9.6 582 0 981.8 NA 0.0000 9999 4820 0 0 0
2019/10/11 14:15:00 BASE 12.40 101 13.84 101 -4.0 65 -9.6 642 0 981.8 NA 0.0000 9999 4890 0 0 0
2019/10/11 14:16:00 BASE 11.57 99 13.84 101 -3.9 64 -9.7 615 0 981.9 NA 0.0000 9999 4820 0 0 0
2019/10/11 14:17:00 BASE 10.40 91 13.84 101 -3.9 64 -9.7 511 0 981.8 NA 0.0000 9999 4820 0 0 0
2019/10/11 14:18:01 BASE 9.24 87 13.84 101 -3.9 64 -9.7 682 0 981.8 NA 0.0000 9999 4820 0 0 0
2019/10/11 14:19:01 BASE 8.98 92 13.84 101 -3.9 64 -9.8 687 0 981.8 NA 0.0000 9999 4890 0 0 0
2019/10/11 14:20:01 BASE 10.08 95 13.84 101 -3.9 64 -9.8 658 0 981.8 NA 0.0000 9999 4860 23000 0 0
2019/10/11 14:21:01 BASE 10.20 95 13.84 101 -3.9 64 -9.7 673 0 981.8 NA 0.0000 9999 4890 0 0 0
2019/10/11 14:22:01 BASE 10.09 96 13.84 101 -3.8 64 -9.7 574 0 981.8 NA 0.0000 9999 4890 0 0 0
2019/10/11 14:23:01 BASE 10.57 91 13.84 101 -3.8 63 -9.7 658 0 981.8 NA 0.0000 9999 4860 0 0 0
2019/10/11 14:24:01 BASE 11.54 86 13.84 101 -3.8 63 -9.8 609 0 981.8 NA 0.0000 9999 4820 0 0 0
2019/10/11 14:25:01 BASE 11.20 89 13.22 82 -3.8 62 -10.0 593 0 981.8 NA 0.0000 9999 4860 0 0 0
2019/10/11 14:26:01 BASE 10.36 98 13.22 109 -3.8 61 -10.1 524 0 981.8 NA 0.0000 9999 4860 0 0 0
2019/10/11 14:27:01 BASE 10.98 108 13.22 109 -3.8 61 -10.3 504 0 981.7 NA 0.0000 9999 4860 0 0 0
2019/10/11 14:28:01 BASE 11.09 115 13.22 109 -3.8 60 -10.4 495 0 981.7 NA 0.0000 9999 4820 0 0 0
2019/10/11 14:29:01 BASE 10.80 122 13.22 109 -3.8 59 -10.5 525 0 981.7 NA 0.0000 9999 4890 0 0 0
2019/10/11 14:30:01 BASE 10.27 128 13.22 109 -3.8 59 -10.7 527 0 981.7 NA 0.0000 9999 4860 0 0 0
2019/10/11 14:31:01 BASE 8.86 128 13.22 109 -3.8 59 -10.7 456 0 981.8 NA 0.0000 9999 4920 0 0 0
2019/10/11 14:32:01 BASE 8.04 112 13.22 109 -3.9 59 -10.8 413 0 981.9 NA 0.0000 9999 4990 0 0 0
2019/10/11 14:33:01 BASE 7.76 97 13.22 109 -3.9 59 -10.8 341 0 981.9 NA 0.0000 9999 0 0 0 0
2019/10/11 14:34:01 BASE 7.75 93 13.22 109 -3.9 59 -10.8 294 0 981.8 NA 0.0000 9999 0 0 0 0
2019/10/11 14:35:01 BASE 7.74 95 13.22 109 -4.0 59 -10.8 262 0 981.9 NA 0.0000 9999 0 0 0 0
2019/10/11 14:36:01 BASE 7.28 101 12.35 110 -4.0 59 -10.8 243 0 981.8 NA 0.0000 9999 0 0 0 0
2019/10/11 14:37:01 BASE 6.85 99 11.57 117 -4.0 59 -10.9 246 0 981.9 NA 0.0000 9999 0 0 0 0
2019/10/11 14:38:01 BASE 6.85 95 11.21 128 -4.0 58 -11.0 248 0 981.9 NA 0.0000 9999 0 0 0 0
2019/10/11 14:39:01 BASE 8.36 97 11.21 128 -4.0 58 -11.1 255 0 981.8 NA 0.0000 9999 0 0 0 0
2019/10/11 14:40:01 BASE 9.30 105 10.03 102 -4.1 58 -11.2 281 0 981.8 NA 0.0000 9999 5220 0 0 0
2019/10/11 14:41:01 BASE 8.44 115 10.03 102 -4.2 58 -11.2 285 0 981.8 NA 0.0000 9999 5090 0 0 0
2019/10/11 14:42:01 BASE 7.41 124 10.03 102 -4.2 58 -11.2 324 0 981.8 NA 0.0000 9999 5050 0 0 0
2019/10/11 14:43:01 BASE 6.74 128 10.03 102 -4.2 58 -11.2 309 0 981.8 NA 0.0000 9999 4990 0 0 0
2019/10/11 14:44:01 BASE 6.63 124 10.03 102 -4.2 58 -11.2 292 0 981.8 NA 0.0000 9999 4920 0 0 0
2019/10/11 14:45:01 BASE 7.00 115 10.03 102 -4.2 58 -11.2 277 0 981.8 NA 0.0000 9999 4950 0 0 0
2019/10/11 14:46:01 BASE 7.18 106 10.03 102 -4.2 58 -11.2 263 0 982.0 NA 0.0000 9999 4920 0 0 0
2019/10/11 14:47:01 BASE 7.32 100 10.03 102 -4.2 58 -11.3 253 0 981.9 NA 0.0000 9999 4890 0 0 0
2019/10/11 14:48:01 BASE 6.98 102 10.03 102 -4.4 59 -11.3 255 0 981.9 NA 0.0000 9999 4860 0 0 0
2019/10/11 14:49:01 BASE 6.22 113 9.83 108 -4.5 60 -11.1 270 0 981.8 NA 0.0000 9999 0 0 0 0
2019/10/11 14:50:01 BASE 5.12 120 8.39 116 -4.5 60 -11.0 289 0 981.8 NA 0.0000 9999 7550 0 0 0
2019/10/11 14:51:01 BASE 5.28 111 7.92 97 -4.5 60 -11.0 322 0 981.9 NA 0.0000 9999 5050 7480 0 0
2019/10/11 14:52:01 BASE 6.68 100 7.92 97 -4.5 61 -10.9 339 0 981.9 NA 0.0000 9999 7510 0 0 0
2019/10/11 14:53:01 BASE 6.66 102 7.92 97 -4.5 60 -11.0 334 0 981.8 NA 0.0000 9999 4920 0 0 0
2019/10/11 14:54:01 BASE 6.24 103 7.92 97 -4.4 60 -11.0 323 0 981.8 NA 0.0000 9999 4890 0 0 0
2019/10/11 14:55:01 BASE 6.26 98 7.92 97 -4.5 60 -11.1 323 0 981.8 NA 0.0000 9999 4890 0 0 0
2019/10/11 14:56:01 BASE 6.39 99 7.92 97 -4.5 60 -11.1 359 0 981.8 NA 0.0000 9999 4890 0 0 0
2019/10/11 14:57:01 BASE 6.32 103 7.61 95 -4.6 61 -11.1 364 0 981.8 NA 0.0000 9999 4860 21880 0 0
2019/10/11 14:58:01 BASE 6.20 98 7.87 90 -4.6 61 -11.0 382 0 981.8 NA 0.0000 9999 4860 21750 0 0
2019/10/11 14:59:01 BASE 6.44 93 7.87 90 -4.6 61 -11.0 368 0 981.8 NA 0.0000 9999 7640 0 0 0
2019/10/11 15:00:01 BASE 6.35 94 7.87 90 -4.5 61 -10.9 358 0 981.9 NA 0.0000 9999 7610 0 0 0
2019/10/11 15:01:01 BASE 5.29 88 7.87 90 -4.5 61 -10.9 347 0 982.0 NA 0.0000 9999 7640 0 0 0
2019/10/11 15:02:01 BASE 5.37 79 7.87 90 -4.4 60 -10.9 364 0 981.9 NA 0.0000 9999 7610 0 0 0
2019/10/11 15:03:01 BASE 6.64 69 8.59 58 -4.3 60 -10.9 396 0 981.9 NA 0.0000 9999 7710 0 0 0
2019/10/11 15:04:01 BASE 6.75 67 8.59 58 -4.2 60 -10.9 496 0 982.0 NA 0.0000 9999 7710 0 0 0
2019/10/11 15:05:01 BASE 5.85 71 8.59 58 -4.1 59 -10.9 633 0 982.0 NA 0.0000 9999 7710 0 0 0
2019/10/11 15:06:01 BASE 5.60 70 8.59 58 -4.0 59 -10.9 707 0 982.0 NA 0.0000 9999 7680 0 0 0
2019/10/11 15:07:01 BASE 6.31 70 8.59 58 -3.9 59 -10.8 724 0 981.9 NA 0.0000 9999 7680 0 0 0
2019/10/11 15:08:01 BASE 7.57 69 9.88 60 -3.8 59 -10.7 725 0 981.8 NA 0.0000 9999 7250 0 0 0
2019/10/11 15:09:01 BASE 8.34 68 9.88 60 -3.8 59 -10.6 720 0 981.8 NA 0.0000 9999 7710 0 0 0
2019/10/11 15:10:01 BASE 8.57 70 10.39 66 -3.7 60 -10.4 696 0 981.8 NA 0.0000 9999 7680 0 0 0
2019/10/11 15:11:01 BASE 8.40 65 10.39 66 -3.6 60 -10.4 692 0 981.8 NA 0.0000 9999 7680 0 0 0
2019/10/11 15:12:01 BASE 7.90 63 10.39 66 -3.5 59 -10.3 690 0 981.8 NA 0.0000 9999 7680 21100 0 0
2019/10/11 15:13:01 BASE 7.83 63 10.39 66 -3.5 59 -10.3 709 0 981.8 NA 0.0000 9999 7680 0 0 0
2019/10/11 15:14:01 BASE 7.00 59 10.39 66 -3.4 59 -10.4 716 0 981.8 NA 0.0000 9999 7710 0 0 0
2019/10/11 15:15:01 BASE 6.86 52 10.39 66 -3.4 59 -10.3 724 0 981.8 NA 0.0000 9999 7710 0 0 0
2019/10/11 15:16:01 BASE 7.79 46 10.55 36 -3.4 60 -10.2 718 0 981.8 NA 0.0000 9999 7710 0 0 0
2019/10/11 15:17:01 BASE 8.38 41 10.55 36 -3.4 60 -10.1 709 0 981.7 NA 0.0000 9999 7710 0 0 0
2019/10/11 15:18:01 BASE 9.34 31 11.06 20 -3.4 60 -10.0 703 0 981.7 NA 0.0000 9999 7640 0 0 0
2019/10/11 15:19:01 BASE 10.18 27 11.21 24 -3.3 61 -9.8 696 0 981.7 NA 0.0000 9999 7640 0 0 0
2019/10/11 15:20:01 BASE 10.61 30 12.04 33 -3.3 61 -9.8 690 0 981.7 NA 0.0000 9999 7680 0 0 0
2019/10/11 15:21:01 BASE 10.52 30 12.04 33 -3.3 61 -9.8 695 0 981.8 NA 0.0000 9999 7640 0 0 0
2019/10/11 15:22:01 BASE 10.23 29 12.04 33 -3.3 61 -9.8 699 0 981.8 NA 0.0000 9999 7710 0 0 0
2019/10/11 15:23:01 BASE 9.72 28 12.04 33 -3.3 61 -9.8 700 0 981.8 NA 0.0000 9999 7710 0 0 0
2019/10/11 15:24:01 BASE 8.63 32 12.04 33 -3.3 60 -9.9 692 0 981.8 NA 0.0000 9999 7780 0 0 0
2019/10/11 15:25:01 BASE 8.26 30 12.04 33 -3.3 60 -9.9 709 0 981.8 NA 0.0000 9999 7810 0 0 0
2019/10/11 15:26:01 BASE 8.15 26 12.04 33 -3.3 60 -10.0 701 0 981.8 NA 0.0000 9999 7780 0 0 0
2019/10/11 15:27:01 BASE 7.20 29 12.04 33 -3.3 60 -10.0 692 0 981.8 NA 0.0000 9999 7740 0 0 0
2019/10/11 15:28:01 BASE 6.24 33 12.04 33 -3.4 61 -9.9 635 0 981.8 NA 0.0000 9999 7740 0 0 0
2019/10/11 15:29:01 BASE 5.86 38 12.04 33 -3.4 61 -9.9 647 0 981.8 NA 0.0000 9999 7810 0 0 0
2019/10/11 15:30:01 BASE 6.10 69 11.88 31 -3.4 61 -9.8 642 0 981.8 NA 0.0000 9999 7810 0 0 0
2019/10/11 15:31:00 BASE 6.56 120 11.57 27 -3.5 62 -9.7 643 0 981.8 NA 0.0000 9999 7810 0 0 0
2019/10/11 15:32:01 BASE 6.08 137 10.55 32 -3.5 62 -9.8 648 0 981.8 NA 0.0000 9999 7810 0 0 0
2019/10/11 15:33:00 BASE 5.60 135 9.67 32 -3.6 62 -9.8 612 0 981.8 NA 0.0000 9999 7740 0 0 0
2019/10/11 15:34:01 BASE 5.81 129 8.69 21 -3.7 63 -9.8 567 0 981.8 NA 0.0000 9999 0 0 0 0
2019/10/11 15:35:01 BASE 6.13 125 8.69 21 -3.9 63 -9.8 610 0 981.9 NA 0.0000 9999 0 0 0 0
2019/10/11 15:36:01 BASE 6.39 125 7.72 33 -4.0 64 -9.8 644 0 981.9 NA 0.0000 9999 0 0 0 0
2019/10/11 15:37:00 BASE 7.62 124 9.62 127 -4.0 65 -9.7 662 0 981.8 NA 0.0000 9999 0 0 0 0
2019/10/11 15:38:01 BASE 8.36 124 9.62 127 -4.0 65 -9.6 647 0 981.9 NA 0.0000 9999 7940 0 0 0
2019/10/11 15:39:00 BASE 6.82 125 9.62 127 -4.0 66 -9.4 615 0 981.9 NA 0.0000 9999 7970 0 0 0
2019/10/11 15:40:00 BASE 5.76 128 9.62 127 -4.0 67 -9.3 638 0 981.9 NA 0.0000 9999 8010 0 0 0
2019/10/11 15:41:01 BASE 6.07 122 9.62 127 -4.0 67 -9.2 689 0 981.9 NA 0.0000 9999 7940 0 0 0
2019/10/11 15:42:01 BASE 6.53 114 9.62 127 -4.1 68 -9.2 686 0 981.9 NA 0.0000 9999 7870 0 0 0
2019/10/11 15:43:00 BASE 7.17 115 9.62 127 -4.1 68 -9.1 701 0 981.9 NA 0.0000 9999 7970 0 0 0
2019/10/11 15:44:01 BASE 7.28 117 9.62 127 -4.1 69 -9.1 664 0 981.9 NA 0.0000 9999 3970 0 0 0
2019/10/11 15:45:00 BASE 6.64 120 9.62 127 -4.1 69 -9.0 629 0 981.9 NA 0.0000 9999 8010 0 0 0
2019/10/11 15:46:00 BASE 6.05 122 9.62 127 -4.1 70 -8.8 606 0 981.8 NA 0.0000 9999 7970 0 0 0
2019/10/11 15:47:00 BASE 6.04 121 9.57 128 -4.1 71 -8.7 569 0 981.9 NA 0.0000 9999 7910 0 0 0
2019/10/11 15:48:01 BASE 6.51 117 8.28 116 -4.1 71 -8.6 567 0 982.0 NA 0.0000 9999 7910 0 0 0
2019/10/11 15:49:00 BASE 6.73 115 8.28 116 -4.2 72 -8.5 574 0 982.0 NA 0.0000 9999 7870 0 0 0
2019/10/11 15:50:00 BASE 6.69 119 8.28 116 -4.2 73 -8.4 551 0 981.9 NA 0.0000 9999 7870 0 0 0
2019/10/11 15:51:00 BASE 6.29 125 8.28 116 -4.3 73 -8.3 598 0 981.9 NA 0.0000 9999 7910 0 0 0
2019/10/11 15:52:01 BASE 5.97 131 8.28 116 -4.3 74 -8.3 595 0 981.9 NA 0.0000 9999 7910 0 0 0
2019/10/11 15:53:00 BASE 5.60 134 7.31 125 -4.3 74 -8.2 514 0 981.9 NA 0.0000 9999 7910 0 0 0
2019/10/11 15:54:00 BASE 5.09 127 7.25 121 -4.3 75 -8.1 555 0 982.0 NA 0.0000 9999 7910 0 0 0
2019/10/11 15:55:00 BASE 5.23 116 7.25 121 -4.3 75 -8.1 570 0 982.0 NA 0.0000 9999 7910 0 0 0
2019/10/11 15:56:00 BASE 4.98 113 7.25 121 -4.3 75 -8.0 484 0 982.0 NA 0.0000 9999 3900 0 0 0
2019/10/11 15:57:00 BASE 4.27 99 7.25 121 -4.3 75 -8.0 359 0 982.0 NA 0.0000 9999 4360 7780 0 0
2019/10/11 15:58:01 BASE 4.36 87 7.25 121 -4.3 75 -8.1 359 0 982.0 NA 0.0000 9999 7810 0 0 0
2019/10/11 15:59:00 BASE 4.39 97 7.25 121 -4.3 75 -8.1 366 0 982.0 NA 0.0000 9999 7810 0 0 0
2019/10/11 16:00:00 BASE 3.99 103 6.38 137 -4.4 75 -8.1 375 0 982.0 NA 0.0000 9999 7780 0 0 0
2019/10/11 16:01:00 BASE 4.04 104 6.38 137 -4.4 75 -8.2 322 0 982.0 NA 0.0000 9999 7810 0 0 0
2019/10/11 16:02:00 BASE 4.26 110 6.12 111 -4.5 75 -8.3 417 0 982.0 NA 0.0000 9999 7840 0 0 0
2019/10/11 16:03:00 BASE 3.62 119 6.12 111 -4.5 74 -8.4 478 0 982.0 NA 0.0000 9999 7840 0 0 0
2019/10/11 16:04:01 BASE 2.70 120 6.12 111 -4.5 74 -8.4 418 0 982.0 NA 0.0000 9999 7910 0 0 0
2019/10/11 16:05:01 BASE 2.22 108 5.86 70 -4.5 74 -8.5 535 0 982.0 NA 0.0000 9999 7910 0 0 0
2019/10/11 16:06:01 BASE 2.01 90 5.86 70 -4.5 74 -8.4 466 0 982.0 NA 0.0000 9999 7910 0 0 0
2019/10/11 16:07:00 BASE 1.85 75 5.56 79 -4.5 74 -8.4 492 0 982.0 NA 0.0000 9999 7910 0 0 0
2019/10/11 16:08:00 BASE 1.44 75 5.14 85 -4.4 74 -8.3 442 0 982.0 NA 0.0000 9999 7910 0 0 0
2019/10/11 16:09:00 BASE 0.65 77 5.14 85 -4.4 74 -8.3 364 0 982.0 NA 0.0000 9999 7910 0 0 0
2019/10/11 16:10:00 BASE 0.05 57 5.14 85 -4.4 74 -8.3 497 0 982.0 NA 0.0000 9999 7910 0 0 0
2019/10/11 16:11:00 BASE 0.00 345 5.14 85 -4.4 74 -8.2 501 0 982.0 NA 0.0000 9999 7910 0 0 0
2019/10/11 16:12:00 BASE 0.00 304 3.29 127 -4.3 74 -8.2 547 0 982.0 NA 0.0000 9999 7910 0 0 0
2019/10/11 16:13:00 BASE 0.00 300 2.68 126 -4.3 74 -8.2 626 0 982.0 NA 0.0000 9999 7970 0 0 0
2019/10/11 16:14:01 BASE 0.00 295 2.11 81 -4.2 74 -8.1 514 0 982.0 NA 0.0000 9999 7940 0 0 0
2019/10/11 16:15:00 BASE 0.31 294 2.11 81 -4.1 74 -8.0 634 0 982.0 NA 0.0000 9999 7970 0 0 0
2019/10/11 16:16:00 BASE 1.27 301 2.21 315 -3.9 74 -7.9 655 0 982.0 NA 0.0000 9999 4720 7910 0 0
2019/10/11 16:17:00 BASE 1.98 305 2.21 304 -3.8 74 -7.8 628 0 982.0 NA 0.0000 9999 4460 7910 0 0
2019/10/11 16:18:00 BASE 1.85 300 2.21 304 -3.7 74 -7.7 580 0 982.0 NA 0.0000 9999 4490 7940 0 0
2019/10/11 16:19:00 BASE 1.51 291 2.21 304 -3.6 73 -7.7 631 0 982.0 NA 0.0000 9999 4400 8010 0 0
2019/10/11 16:20:00 BASE 1.43 273 2.21 304 -3.7 73 -7.8 575 0 981.9 NA 0.0000 9999 7840 0 0 0
2019/10/11 16:21:00 BASE 1.50 254 2.21 243 -3.8 73 -8.0 633 0 981.9 NA 0.0000 9999 4590 0 0 0
2019/10/11 16:22:01 BASE 1.62 242 2.21 243 -4.0 73 -8.1 621 0 981.8 NA 0.0000 9999 7910 0 0 0
2019/10/11 16:23:00 BASE 1.86 243 2.21 260 -4.1 73 -8.2 638 0 981.8 NA 0.0000 9999 7810 0 0 0
2019/10/11 16:24:00 BASE 2.14 260 2.62 267 -4.2 73 -8.2 623 0 981.9 NA 0.0000 9999 4400 7870 0 0
2019/10/11 16:25:00 BASE 2.42 264 2.83 270 -4.2 74 -8.2 623 0 981.9 NA 0.0000 9999 4760 8010 0 0
2019/10/11 16:26:00 BASE 2.56 246 2.83 270 -4.2 74 -8.2 620 0 981.8 NA 0.0000 9999 7910 24020 0 0
2019/10/11 16:27:00 BASE 2.75 228 3.14 224 -4.2 74 -8.2 617 0 981.8 NA 0.0000 9999 4300 0 0 0
2019/10/11 16:28:00 BASE 2.90 216 3.14 224 -4.2 74 -8.2 616 0 981.8 NA 0.0000 9999 4530 21560 0 0
2019/10/11 16:29:00 BASE 3.08 207 3.50 190 -4.2 74 -8.1 629 0 981.8 NA 0.0000 9999 4560 7870 0 0
2019/10/11 16:30:00 BASE 3.63 194 4.22 171 -4.2 74 -8.1 630 0 981.8 NA 0.0000 9999 7940 0 0 0
2019/10/11 16:31:00 BASE 3.82 179 4.22 171 -4.2 74 -8.1 620 0 981.8 NA 0.0000 9999 4170 0 0 0
2019/10/11 16:32:00 BASE 3.89 174 4.37 171 -4.1 74 -8.1 602 0 981.8 NA 0.0000 9999 4100 0 0 0
2019/10/11 16:33:00 BASE 4.17 176 4.53 179 -4.1 74 -8.1 598 0 981.8 NA 0.0000 9999 4230 0 0 0
2019/10/11 16:34:00 BASE 4.20 176 4.53 179 -4.1 73 -8.1 596 0 981.8 NA 0.0000 9999 4300 5090 0 0
2019/10/11 16:35:00 BASE 4.09 173 4.53 179 -4.0 73 -8.1 607 0 981.8 NA 0.0000 9999 0 0 0 0
2019/10/11 16:36:00 BASE 3.94 174 4.53 179 -4.0 73 -8.2 599 0 981.8 NA 0.0000 9999 0 0 0 0
2019/10/11 16:37:00 BASE 3.68 180 4.53 179 -4.0 73 -8.2 586 0 981.8 NA 0.0000 9999 4100 0 0 0
2019/10/11 16:38:00 BASE 3.49 186 4.53 179 -4.1 73 -8.2 572 0 981.8 NA 0.0000 9999 4040 0 0 0
2019/10/11 16:39:00 BASE 3.20 189 4.53 179 -4.1 73 -8.1 545 0 981.8 NA 0.0000 9999 4130 0 0 0
2019/10/11 16:40:00 BASE 2.94 187 4.53 179 -4.1 74 -8.1 561 0 981.8 NA 0.0000 9999 4130 4820 0 0
2019/10/11 16:41:00 BASE 3.08 179 4.53 179 -4.1 74 -8.0 593 0 981.9 NA 0.0000 9999 4660 0 0 0
2019/10/11 16:42:00 BASE 3.43 161 4.53 179 -4.1 74 -7.9 608 0 981.9 NA 0.0000 9999 0 0 0 0
2019/10/11 16:43:00 BASE 3.52 138 4.48 175 -4.0 75 -7.9 635 0 982.0 NA 0.0000 9999 4100 0 0 0
2019/10/11 16:44:00 BASE 3.17 113 4.48 175 -4.0 75 -7.9 641 0 982.0 NA 0.0000 9999 4100 4560 0 0
2019/10/11 16:45:00 BASE 3.18 99 4.12 182 -4.0 75 -7.8 631 0 982.0 NA 0.0000 9999 4100 21750 0 0
2019/10/11 16:46:00 BASE 3.43 91 4.01 106 -4.0 74 -7.9 626 0 982.1 NA 0.0000 9999 4100 4630 0 0
2019/10/11 16:47:00 BASE 3.35 84 4.01 106 -4.0 74 -7.9 614 0 982.1 NA 0.0000 9999 4100 0 0 0
2019/10/11 16:48:00 BASE 2.82 90 4.01 106 -4.0 74 -8.0 587 0 982.1 NA 0.0000 9999 4660 0 0 0
2019/10/11 16:49:00 BASE 2.19 106 4.01 106 -4.0 74 -8.0 579 0 982.1 NA 0.0000 9999 4690 0 0 0
2019/10/11 16:50:00 BASE 2.03 112 4.01 106 -4.0 74 -8.0 577 0 982.1 NA 0.0000 9999 4560 0 0 0
2019/10/11 16:51:00 BASE 1.80 103 4.01 106 -4.0 73 -8.1 540 0 982.1 NA 0.0000 9999 4590 0 0 0
2019/10/11 16:52:00 BASE 1.17 95 4.01 106 -4.0 73 -8.1 538 0 982.1 NA 0.0000 9999 4660 0 0 0
2019/10/11 16:53:00 BASE 0.46 116 4.01 106 -4.0 73 -8.2 531 0 982.1 NA 0.0000 9999 4300 0 0 0
2019/10/11 16:54:00 BASE 0.84 158 4.01 106 -4.0 72 -8.2 521 0 982.0 NA 0.0000 9999 4430 0 0 0
2019/10/11 16:55:00 BASE 2.08 175 3.70 84 -4.0 72 -8.3 485 0 982.0 NA 0.0000 9999 4920 0 0 0
2019/10/11 16:56:00 BASE 2.60 179 3.55 81 -4.0 72 -8.4 373 0 982.0 NA 0.0000 9999 4690 0 0 0
2019/10/11 16:57:00 BASE 2.05 178 3.29 176 -4.1 71 -8.5 417 0 982.1 NA 0.0000 9999 4950 0 0 0
2019/10/11 16:58:00 BASE 1.33 184 3.29 176 -4.1 71 -8.6 466 0 982.1 NA 0.0000 9999 4990 0 0 0
2019/10/11 16:59:00 BASE 0.98 225 3.29 176 -4.2 71 -8.7 465 0 982.1 NA 0.0000 9999 4760 0 0 0
2019/10/11 17:00:00 BASE 0.87 271 3.29 176 -4.2 71 -8.6 531 0 982.1 NA 0.0000 9999 4990 0 0 0
2019/10/11 17:01:00 BASE 0.58 286 3.29 176 -4.1 71 -8.5 531 0 982.1 NA 0.0000 9999 0 0 0 0
2019/10/11 17:02:00 BASE 1.13 264 3.55 184 -4.0 71 -8.4 447 0 982.0 NA 0.0000 9999 0 0 0 0
2019/10/11 17:03:00 BASE 2.55 174 3.55 109 -3.9 72 -8.3 467 0 982.1 NA 0.0000 9999 0 0 0 0
2019/10/11 17:04:00 BASE 3.12 104 5.45 94 -3.9 72 -8.2 448 0 982.0 NA 0.0000 9999 4860 0 0 0
2019/10/11 17:05:00 BASE 4.10 38 9.21 25 -3.9 71 -8.3 435 0 982.0 NA 0.0000 9999 0 0 0 0
2019/10/11 17:06:00 BASE 6.89 20 9.52 33 -3.8 70 -8.5 467 0 982.0 NA 0.0000 9999 4950 0 0 0
2019/10/11 17:07:00 BASE 8.82 27 9.88 16 -3.8 69 -8.6 435 0 981.9 NA 0.0000 9999 0 0 0 0
2019/10/11 17:08:00 BASE 9.05 19 10.29 23 -3.7 67 -8.9 457 0 981.8 NA 0.0000 9999 0 0 0 0
2019/10/11 17:09:00 BASE 9.59 13 11.27 9 -3.6 65 -9.2 478 0 981.8 NA 0.0000 9999 0 0 0 0
2019/10/11 17:10:00 BASE 10.27 8 12.40 5 -3.6 64 -9.5 473 0 981.7 NA 0.0000 9999 4890 0 0 0
2019/10/11 17:11:00 BASE 11.45 7 14.04 18 -3.6 63 -9.6 474 0 981.7 NA 0.0000 9999 4820 0 0 0
2019/10/11 17:12:00 BASE 11.96 10 14.04 18 -3.6 63 -9.7 470 0 981.7 NA 0.0000 9999 0 0 0 0
2019/10/11 17:13:00 BASE 12.18 16 14.61 23 -3.7 63 -9.7 466 0 981.7 NA 0.0000 9999 4660 0 0 0
2019/10/11 17:14:00 BASE 12.54 22 14.61 23 -3.7 63 -9.7 471 0 981.8 NA 0.0000 9999 0 0 0 0
2019/10/11 17:15:00 BASE 11.89 27 14.61 23 -3.7 64 -9.6 493 0 981.8 NA 0.0000 9999 0 0 0 0
2019/10/11 17:16:00 BASE 11.83 28 14.61 23 -3.7 64 -9.6 485 0 981.8 NA 0.0000 9999 0 0 0 0
2019/10/11 17:17:00 BASE 13.08 30 15.48 30 -3.6 64 -9.5 483 0 981.7 NA 0.0000 9999 0 0 0 0
2019/10/11 17:18:00 BASE 13.76 32 15.48 30 -3.6 63 -9.6 481 0 981.7 NA 0.0000 9999 0 0 0 0
2019/10/11 17:19:00 BASE 13.63 32 15.48 30 -3.5 63 -9.6 485 0 981.7 NA 0.0000 9999 4760 0 0 0
2019/10/11 17:20:00 BASE 14.17 30 16.82 35 -3.5 62 -9.7 503 0 981.7 NA 0.0000 9999 4660 0 0 0
2019/10/11 17:21:00 BASE 14.24 30 16.82 35 -3.5 62 -9.7 515 0 981.7 NA 0.0000 9999 0 0 0 0
2019/10/11 17:22:00 BASE 13.74 33 16.82 35 -3.5 62 -9.7 517 0 981.7 NA 0.0000 9999 0 0 0 0
2019/10/11 17:23:00 BASE 14.34 35 16.82 35 -3.5 62 -9.6 510 0 981.7 NA 0.0000 9999 0 0 0 0
2019/10/11 17:24:00 BASE 14.62 35 16.82 35 -3.5 62 -9.6 509 0 981.7 NA 0.0000 9999 0 0 0 0
2019/10/11 17:25:00 BASE 14.72 35 17.70 42 -3.5 62 -9.6 518 0 981.7 NA 0.0000 9999 0 0 0 0
2019/10/11 17:26:00 BASE 15.18 35 17.70 42 -3.5 62 -9.6 522 0 981.7 NA 0.0000 9999 0 0 0 0
2019/10/11 17:27:00 BASE 15.58 39 17.70 42 -3.4 62 -9.6 524 0 981.7 NA 0.0000 9999 0 0 0 0
2019/10/11 17:28:00 BASE 15.90 44 17.95 46 -3.4 62 -9.6 535 0 981.7 NA 0.0000 9999 19850 0 0 0
2019/10/11 17:29:00 BASE 15.42 45 17.95 46 -3.4 62 -9.6 503 0 981.7 NA 0.0000 9999 4890 0 0 0
2019/10/11 17:30:00 BASE 13.35 51 17.95 46 -3.4 62 -9.5 545 0 981.8 NA 0.0000 9999 0 0 0 0
2019/10/11 17:31:00 BASE 11.57 61 17.95 46 -3.4 62 -9.5 551 0 981.8 NA 0.0000 9999 4860 0 0 0
2019/10/11 17:32:00 BASE 12.13 52 17.95 46 -3.4 62 -9.5 552 0 981.8 NA 0.0000 9999 4820 0 0 0
2019/10/11 17:33:00 BASE 10.76 60 17.95 46 -3.4 62 -9.6 552 0 981.8 NA 0.0000 9999 0 0 0 0
2019/10/11 17:34:00 BASE 8.95 81 17.95 46 -3.4 62 -9.6 558 0 981.9 NA 0.0000 9999 0 0 0 0
2019/10/11 17:35:00 BASE 8.90 89 17.95 46 -3.5 63 -9.6 558 0 981.8 NA 0.0000 9999 0 0 0 0
2019/10/11 17:36:00 BASE 8.43 100 17.95 46 -3.6 64 -9.6 555 0 981.8 NA 0.0000 9999 0 0 0 0
2019/10/11 17:37:00 BASE 8.73 107 17.95 46 -3.8 65 -9.5 559 0 981.8 NA 0.0000 9999 19920 0 0 0
2019/10/11 17:38:00 BASE 8.71 116 17.03 44 -3.9 67 -9.2 552 0 981.8 NA 0.0000 9999 0 0 0 0
2019/10/11 17:39:00 BASE 8.46 128 15.48 48 -4.0 69 -8.9 553 0 981.8 NA 0.0000 9999 0 0 0 0
2019/10/11 17:40:00 BASE 8.69 125 15.48 48 -4.0 70 -8.8 557 0 981.8 NA 0.0000 9999 0 0 0 0
2019/10/11 17:41:00 BASE 6.54 112 15.48 48 -4.0 70 -8.6 554 0 981.8 NA 0.0000 9999 0 0 0 0
2019/10/11 17:42:00 BASE 5.08 115 12.55 107 -3.9 70 -8.7 552 0 981.8 NA 0.0000 9999 0 0 0 0
2019/10/11 17:43:00 BASE 6.70 124 12.55 107 -3.9 69 -8.8 546 0 981.8 NA 0.0000 9999 0 0 0 0
2019/10/11 17:44:00 BASE 7.63 122 12.55 107 -3.8 68 -8.9 531 0 981.8 NA 0.0000 9999 0 0 0 0
2019/10/11 17:45:00 BASE 6.52 126 12.55 107 -3.8 66 -9.1 521 0 981.8 NA 0.0000 9999 0 0 0 0
2019/10/11 17:46:00 BASE 5.25 129 12.55 107 -3.7 66 -9.3 523 0 981.8 NA 0.0000 9999 0 0 0 0
2019/10/11 17:47:00 BASE 4.75 134 12.55 107 -3.8 66 -9.3 520 0 981.8 NA 0.0000 9999 0 0 0 0
2019/10/11 17:48:00 BASE 5.01 144 12.55 107 -3.8 66 -9.2 517 0 981.8 NA 0.0000 9999 0 0 0 0
2019/10/11 17:49:00 BASE 6.12 142 12.55 107 -3.8 67 -9.1 505 0 981.8 NA 0.0000 9999 0 0 0 0
2019/10/11 17:50:00 BASE 7.07 147 10.80 131 -3.9 69 -8.9 508 0 981.8 NA 0.0000 9999 0 0 0 0
2019/10/11 17:51:00 BASE 7.44 154 10.80 131 -4.0 70 -8.7 502 0 981.8 NA 0.0000 9999 0 0 0 0
2019/10/11 17:52:00 BASE 7.15 153 10.80 131 -4.0 71 -8.5 490 0 981.8 NA 0.0000 9999 0 0 0 0
2019/10/11 17:53:00 BASE 6.66 148 10.75 131 -4.1 72 -8.4 487 0 981.8 NA 0.0000 9999 0 0 0 0
2019/10/11 17:54:00 BASE 6.40 143 7.82 158 -4.1 73 -8.2 492 0 981.8 NA 0.0000 9999 0 0 0 0
2019/10/11 17:55:00 BASE 5.91 131 7.82 158 -4.1 73 -8.2 488 0 981.8 NA 0.0000 9999 0 0 0 0
2019/10/11 17:56:00 BASE 5.76 119 7.82 158 -4.1 74 -8.1 491 0 981.8 NA 0.0000 9999 0 0 0 0
2019/10/11 17:57:00 BASE 5.76 115 7.82 158 -4.1 74 -8.0 490 0 981.8 NA 0.0000 9999 0 0 0 0
2019/10/11 17:58:00 BASE 5.75 115 7.82 158 -4.1 75 -8.0 489 0 981.8 NA 0.0000 9999 0 0 0 0
2019/10/11 17:59:00 BASE 6.14 114 7.82 158 -4.1 75 -7.9 492 0 981.8 NA 0.0000 9999 0 0 0 0
2019/10/11 18:00:00 BASE 6.68 118 7.82 158 -4.2 75 -7.9 511 0 981.8 NA 0.0000 9999 0 0 0 0
2019/10/11 18:01:00 BASE 7.07 121 7.77 128 -4.2 76 -7.8 526 0 981.8 NA 0.0000 9999 0 0 0 0
2019/10/11 18:02:00 BASE 7.20 122 7.77 120 -4.2 76 -7.8 538 0 981.8 NA 0.0000 9999 0 0 0 0
2019/10/11 18:03:00 BASE 7.46 118 7.97 117 -4.2 76 -7.7 547 0 982.0 NA 0.0000 9999 0 0 0 0
2019/10/11 18:04:00 BASE 7.94 115 8.75 116 -4.2 77 -7.7 526 0 982.0 NA 0.0000 9999 0 0 0 0
2019/10/11 18:05:00 BASE 8.32 117 8.75 116 -4.2 77 -7.6 541 0 982.0 NA 0.0000 9999 0 0 0 0
2019/10/11 18:06:00 BASE 8.24 115 8.75 116 -4.2 77 -7.6 538 0 982.0 NA 0.0000 9999 0 0 0 0
2019/10/11 18:07:00 BASE 7.79 112 8.75 116 -4.2 78 -7.5 532 0 982.1 NA 0.0000 9999 0 0 0 0
2019/10/11 18:08:00 BASE 7.24 109 8.75 116 -4.2 78 -7.5 523 0 982.1 NA 0.0000 9999 0 0 0 0
2019/10/11 18:09:00 BASE 6.75 99 8.75 116 -4.2 78 -7.5 513 0 982.1 NA 0.0000 9999 0 0 0 0
2019/10/11 18:10:00 BASE 5.75 91 8.75 116 -4.2 78 -7.5 508 0 982.2 NA 0.0000 9999 0 0 0 0
2019/10/11 18:11:00 BASE 5.19 94 8.75 116 -4.3 78 -7.5 502 0 982.2 NA 0.0000 9999 0 0 0 0
2019/10/11 18:12:00 BASE 5.16 95 8.75 116 -4.3 78 -7.5 508 0 982.2 NA 0.0000 9999 21820 0 0 0
2019/10/11 18:13:00 BASE 4.93 88 8.75 116 -4.3 78 -7.6 516 0 982.2 NA 0.0000 9999 0 0 0 0
2019/10/11 18:14:00 BASE 5.00 80 8.59 118 -4.3 78 -7.5 512 0 982.2 NA 0.0000 9999 0 0 0 0
2019/10/11 18:15:00 BASE 5.00 78 8.39 115 -4.3 78 -7.5 497 0 982.2 NA 0.0000 9999 0 0 0 0
2019/10/11 18:16:00 BASE 4.97 79 7.97 114 -4.3 78 -7.5 483 0 982.3 NA 0.0000 9999 0 0 0 0
2019/10/11 18:17:00 BASE 5.07 79 7.61 109 -4.3 78 -7.5 465 0 982.3 NA 0.0000 9999 5710 0 0 0
2019/10/11 18:18:00 BASE 5.27 76 7.56 94 -4.3 78 -7.6 448 0 982.3 NA 0.0000 9999 5710 0 0 0
2019/10/11 18:19:00 BASE 5.44 70 6.02 62 -4.2 78 -7.6 428 0 982.3 NA 0.0000 9999 5580 0 0 0
2019/10/11 18:20:00 BASE 5.64 64 6.22 61 -4.2 77 -7.6 291 0 982.3 NA 0.0000 9999 5580 0 0 0
2019/10/11 18:21:00 BASE 5.54 64 6.22 61 -4.2 77 -7.6 391 0 982.3 NA 0.0000 9999 5180 17060 0 0
2019/10/11 18:22:00 BASE 5.07 73 6.22 61 -4.1 76 -7.6 338 0 982.3 NA 0.0000 9999 5250 0 0 0
2019/10/11 18:23:00 BASE 4.20 81 6.22 61 -4.1 76 -7.7 243 0 982.3 NA 0.0000 9999 5380 0 0 0
2019/10/11 18:24:00 BASE 3.23 86 6.22 61 -4.1 75 -7.9 213 0 982.3 NA 0.0000 9999 5450 0 0 0
2019/10/11 18:25:00 BASE 3.18 92 6.22 61 -4.2 74 -8.1 203 0 982.3 NA 0.0000 9999 0 0 0 0
2019/10/11 18:26:00 BASE 3.14 99 6.22 61 -4.2 73 -8.3 196 0 982.3 NA 0.0000 9999 0 0 0 0
2019/10/11 18:27:00 BASE 2.57 106 6.22 61 -4.3 72 -8.5 186 0 982.3 NA 0.0000 9999 0 0 0 0
2019/10/11 18:28:00 BASE 2.07 108 6.22 61 -4.4 72 -8.7 187 0 982.3 NA 0.0000 9999 4720 0 0 0
2019/10/11 18:29:00 BASE 1.74 100 6.22 61 -4.4 71 -8.8 191 0 982.3 NA 0.0000 9999 4860 0 0 0
2019/10/11 18:30:00 BASE 2.23 87 5.66 67 -4.4 71 -8.8 189 0 982.3 NA 0.0000 9999 4530 0 0 0
2019/10/11 18:31:00 BASE 2.81 79 5.40 69 -4.4 71 -8.9 184 0 982.3 NA 0.0000 9999 4460 0 0 0
2019/10/11 18:32:00 BASE 2.75 67 4.27 75 -4.4 71 -8.8 185 0 982.3 NA 0.0000 9999 4590 0 0 0
2019/10/11 18:33:00 BASE 2.68 53 3.81 99 -4.3 71 -8.8 186 0 982.4 NA 0.0000 9999 0 0 0 0
2019/10/11 18:34:00 BASE 2.54 42 3.81 99 -4.3 71 -8.8 187 0 982.4 NA 0.0000 9999 4400 0 0 0
2019/10/11 18:35:00 BASE 2.39 39 3.65 107 -4.3 71 -8.7 191 0 982.4 NA 0.0000 9999 4270 0 0 0
2019/10/11 18:36:00 BASE 2.18 41 3.34 81 -4.2 71 -8.6 197 0 982.4 NA 0.0000 9999 4590 0 0 0
2019/10/11 18:37:00 BASE 1.91 38 3.34 81 -4.2 72 -8.5 212 0 982.4 NA 0.0000 9999 3870 4660 0 0
2019/10/11 18:38:00 BASE 2.15 31 3.34 81 -4.2 72 -8.5 229 0 982.4 NA 0.0000 9999 4430 0 0 0
2019/10/11 18:39:00 BASE 3.63 17 6.17 10 -4.2 72 -8.5 236 0 982.4 NA 0.0000 9999 4300 22110 0 0
2019/10/11 18:40:00 BASE 5.18 8 6.28 7 -4.2 72 -8.5 244 0 982.4 NA 0.0000 9999 4400 0 0 0
2019/10/11 18:41:00 BASE 5.68 8 6.48 16 -4.3 72 -8.5 254 0 982.4 NA 0.0000 9999 4760 0 0 0
2019/10/11 18:42:00 BASE 4.74 10 6.48 16 -4.3 72 -8.6 283 0 982.4 NA 0.0000 9999 4720 0 0 0
2019/10/11 18:43:00 BASE 2.78 353 6.48 16 -4.2 71 -8.6 289 0 982.4 NA 0.0000 9999 4790 0 0 0
2019/10/11 18:44:00 BASE 1.59 298 6.48 16 -4.2 70 -8.8 276 0 982.3 NA 0.0000 9999 4920 0 0 0
2019/10/11 18:45:00 BASE 1.28 264 6.48 16 -4.1 69 -8.9 363 0 982.3 NA 0.0000 9999 5090 0 0 0
2019/10/11 18:46:00 BASE 1.65 299 6.48 16 -4.0 68 -9.1 363 0 982.3 NA 0.0000 9999 5120 0 0 0
2019/10/11 18:47:00 BASE 1.85 330 6.48 16 -3.9 67 -9.2 374 0 982.3 NA 0.0000 9999 0 0 0 0
2019/10/11 18:48:00 BASE 1.80 302 6.48 16 -3.9 66 -9.3 386 0 982.3 NA 0.0000 9999 0 0 0 0
2019/10/11 18:49:00 BASE 2.13 275 6.48 16 -3.9 66 -9.3 266 0 982.2 NA 0.0000 9999 5320 0 0 0
2019/10/11 18:50:00 BASE 2.30 269 6.48 16 -3.9 66 -9.4 348 0 982.2 NA 0.0000 9999 5350 17980 21880 0
2019/10/11 18:51:00 BASE 2.74 269 5.25 3 -3.9 65 -9.4 320 0 982.2 NA 0.0000 9999 0 0 0 0
2019/10/11 18:52:00 BASE 3.36 307 6.02 19 -3.8 64 -9.6 368 0 982.2 NA 0.0000 9999 0 0 0 0
2019/10/11 18:53:00 BASE 3.32 356 6.02 19 -3.8 63 -9.8 358 0 982.2 NA 0.0000 9999 0 0 0 0
2019/10/11 18:54:00 BASE 4.64 9 9.41 5 -3.7 62 -9.9 344 0 982.1 NA 0.0000 9999 0 0 0 0
2019/10/11 18:55:00 BASE 7.78 12 11.88 360 -3.7 61 -10.1 328 0 982.1 NA 0.0000 9999 0 0 0 0
2019/10/11 18:56:01 BASE 9.52 1 11.88 360 -3.7 60 -10.3 316 0 982.0 NA 0.0000 9999 0 0 0 0
2019/10/11 18:57:00 BASE 9.96 6 11.88 360 -3.7 59 -10.5 322 0 982.0 NA 0.0000 9999 0 0 0 0
2019/10/11 18:58:00 BASE 10.22 17 11.88 360 -3.6 58 -10.7 317 0 982.0 NA 0.0000 9999 0 0 0 0
2019/10/11 18:59:00 BASE 10.16 19 11.88 360 -3.7 57 -10.9 314 0 982.0 NA 0.0000 9999 0 0 0 0
2019/10/11 19:00:00 BASE 9.34 18 11.88 360 -3.7 57 -11.1 319 0 982.0 NA 0.0000 9999 0 0 0 0
2019/10/11 19:01:00 BASE 8.82 13 14.04 5 -3.7 57 -11.1 316 0 981.9 NA 0.0000 9999 19260 0 0 0
2019/10/11 19:02:00 BASE 9.93 11 14.10 11 -3.8 57 -11.0 311 0 981.9 NA 0.0000 9999 0 0 0 0
2019/10/11 19:03:00 BASE 10.06 19 14.10 11 -3.8 58 -10.9 286 0 982.0 NA 0.0000 9999 0 0 0 0
2019/10/11 19:04:01 BASE 10.13 21 14.10 11 -3.8 58 -10.9 302 0 981.9 NA 0.0000 9999 0 0 0 0
2019/10/11 19:05:00 BASE 10.20 28 14.10 11 -3.8 58 -10.9 299 0 981.9 NA 0.0000 9999 0 0 0 0
2019/10/11 19:06:00 BASE 8.12 38 14.10 11 -3.8 58 -10.9 265 0 981.9 NA 0.0000 9999 0 0 0 0
2019/10/11 19:07:00 BASE 7.13 29 14.10 11 -3.7 57 -11.0 270 0 981.8 NA 0.0000 9999 0 0 0 0
2019/10/11 19:08:00 BASE 6.51 20 14.10 11 -3.7 56 -11.1 289 0 981.8 NA 0.0000 9999 0 0 0 0
2019/10/11 19:09:00 BASE 6.00 4 14.10 11 -3.6 56 -11.1 272 0 981.8 NA 0.0000 9999 0 0 0 0
2019/10/11 19:10:00 BASE 6.94 344 14.10 11 -3.6 55 -11.2 201 0 981.8 NA 0.0000 9999 0 0 0 0
2019/10/11 19:11:01 BASE 7.16 348 14.10 11 -3.6 55 -11.4 199 0 981.7 NA 0.0000 9999 0 0 0 0
2019/10/11 19:12:00 BASE 8.14 355 11.99 19 -3.6 54 -11.5 211 0 981.7 NA 0.0000 9999 0 0 0 0
2019/10/11 19:13:00 BASE 7.99 359 11.99 19 -3.6 54 -11.5 218 0 981.7 NA 0.0000 9999 0 0 0 0
2019/10/11 19:14:01 BASE 5.80 10 10.85 43 -3.6 54 -11.6 241 0 981.8 NA 0.0000 9999 0 0 0 0
2019/10/11 19:15:00 BASE 4.99 19 10.34 3 -3.6 54 -11.7 289 0 981.8 NA 0.0000 9999 0 0 0 0
2019/10/11 19:16:00 BASE 5.75 33 10.34 3 -3.6 54 -11.7 297 0 981.8 NA 0.0000 9999 0 0 0 0
2019/10/11 19:17:00 BASE 7.37 63 10.34 3 -3.6 54 -11.6 215 0 981.8 NA 0.0000 9999 0 0 0 0
2019/10/11 19:18:00 BASE 8.48 81 10.34 3 -3.8 55 -11.5 210 0 981.8 NA 0.0000 9999 4790 0 0 0
2019/10/11 19:19:00 BASE 9.10 85 10.34 3 -3.9 57 -11.2 223 0 981.8 NA 0.0000 9999 0 0 0 0
2019/10/11 19:20:01 BASE 9.88 90 10.80 92 -4.1 59 -10.9 283 0 981.8 NA 0.0000 9999 0 0 0 0
2019/10/11 19:21:00 BASE 9.87 97 10.80 99 -4.3 62 -10.6 242 0 981.8 NA 0.0000 9999 0 0 0 0
2019/10/11 19:22:00 BASE 8.84 104 10.80 99 -4.5 64 -10.2 289 0 982.0 NA 0.0000 9999 0 0 0 0
2019/10/11 19:23:00 BASE 9.00 107 11.63 112 -4.6 67 -9.9 278 0 982.0 NA 0.0000 9999 20080 0 0 0
2019/10/11 19:24:00 BASE 10.43 109 11.63 112 -4.7 69 -9.6 258 0 982.0 NA 0.0000 9999 0 0 0 0
2019/10/11 19:25:00 BASE 10.99 105 11.88 90 -4.7 70 -9.3 265 0 982.1 NA 0.0000 9999 13710 0 0 0
2019/10/11 19:26:00 BASE 10.56 104 11.88 90 -4.6 71 -9.2 232 0 982.1 NA 0.0000 9999 0 0 0 0
2019/10/11 19:27:00 BASE 10.00 108 11.88 90 -4.6 71 -9.1 231 0 982.2 NA 0.0000 9999 0 0 0 0
2019/10/11 19:28:01 BASE 9.68 108 11.88 90 -4.5 71 -9.0 229 0 982.3 NA 0.0000 9999 4630 0 0 0
2019/10/11 19:29:00 BASE 9.58 106 11.88 90 -4.5 71 -9.0 216 0 982.3 NA 0.0000 9999 4560 0 0 0
2019/10/11 19:30:00 BASE 9.63 99 11.88 90 -4.5 71 -8.9 217 0 982.4 NA 0.0000 9999 4430 0 0 0
2019/10/11 19:31:01 BASE 9.96 93 11.88 90 -4.5 71 -8.9 218 0 982.4 NA 0.0000 9999 4560 0 0 0
2019/10/11 19:32:00 BASE 9.43 91 11.88 90 -4.5 71 -9.0 248 0 982.4 NA 0.0000 9999 4360 0 0 0
2019/10/11 19:33:00 BASE 8.50 93 11.88 90 -4.6 71 -9.0 231 0 982.4 NA 0.0000 9999 4490 0 0 0
2019/10/11 19:34:00 BASE 8.59 97 11.88 90 -4.6 71 -9.0 221 0 982.5 NA 0.0000 9999 4590 0 0 0
2019/10/11 19:35:00 BASE 8.67 97 11.37 98 -4.6 70 -9.1 191 0 982.6 NA 0.0000 9999 4490 0 0 0
2019/10/11 19:36:00 BASE 8.73 95 11.37 98 -4.5 70 -9.2 186 0 982.6 NA 0.0000 9999 4460 0 0 0
2019/10/11 19:37:00 BASE 8.91 92 11.37 98 -4.5 69 -9.2 186 0 982.6 NA 0.0000 9999 4460 0 0 0
2019/10/11 19:38:00 BASE 8.28 96 11.37 98 -4.4 69 -9.3 180 0 982.6 NA 0.0000 9999 4330 0 0 0
2019/10/11 19:39:00 BASE 6.94 103 11.37 98 -4.3 68 -9.3 197 0 982.7 NA 0.0000 9999 4200 0 0 0
2019/10/11 19:40:00 BASE 7.21 90 11.37 98 -4.3 68 -9.3 184 0 982.7 NA 0.0000 9999 4430 0 0 0
2019/10/11 19:41:00 BASE 7.86 70 9.93 95 -4.3 68 -9.3 173 0 982.7 NA 0.0000 9999 4170 0 0 0
2019/10/11 19:42:00 BASE 7.03 65 9.93 95 -4.3 68 -9.3 166 0 982.7 NA 0.0000 9999 4230 0 0 0
2019/10/11 19:43:00 BASE 6.46 56 9.93 95 -4.2 68 -9.2 162 0 982.8 NA 0.0000 9999 4200 0 0 0
2019/10/11 19:44:00 BASE 6.61 49 9.93 95 -4.1 68 -9.2 164 0 982.8 NA 0.0000 9999 4270 5090 0 0
2019/10/11 19:45:00 BASE 6.53 51 9.93 95 -4.1 68 -9.1 167 0 982.8 NA 0.0000 9999 4130 0 0 0
2019/10/11 19:46:00 BASE 5.21 42 9.67 89 -4.0 68 -9.1 166 0 982.8 NA 0.0000 9999 4040 4950 0 0
2019/10/11 19:47:00 BASE 4.16 24 8.90 80 -4.0 68 -9.1 162 0 982.8 NA 0.0000 9999 4330 0 0 0
2019/10/11 19:48:00 BASE 4.11 24 8.90 80 -4.0 68 -9.1 158 0 982.7 NA 0.0000 9999 4000 0 0 0
2019/10/11 19:49:00 BASE 3.07 35 8.90 80 -4.0 67 -9.2 160 0 982.8 NA 0.0000 9999 4950 0 0 0
2019/10/11 19:50:00 BASE 1.34 43 8.64 64 -4.0 67 -9.3 163 0 982.8 NA 0.0000 9999 3740 0 0 0
2019/10/11 19:51:00 BASE 0.60 85 7.36 50 -4.0 66 -9.4 165 0 982.7 NA 0.0000 9999 0 0 0 0
2019/10/11 19:52:00 BASE 0.53 139 7.36 50 -3.9 65 -9.5 173 0 982.7 NA 0.0000 9999 0 0 0 0
2019/10/11 19:53:00 BASE 1.04 170 7.20 52 -3.9 65 -9.6 178 0 982.7 NA 0.0000 9999 0 0 0 0
2019/10/11 19:54:00 BASE 1.85 170 7.15 49 -3.9 64 -9.7 173 0 982.7 NA 0.0000 9999 4460 4990 0 0
2019/10/11 19:55:00 BASE 2.15 152 5.09 28 -3.9 64 -9.7 172 0 982.7 NA 0.0000 9999 5410 0 0 0
2019/10/11 19:56:00 BASE 2.46 153 5.09 28 -4.0 64 -9.7 177 0 982.7 NA 0.0000 9999 0 0 0 0
2019/10/11 19:57:00 BASE 3.02 157 5.09 28 -4.0 65 -9.7 177 0 982.7 NA 0.0000 9999 4070 0 0 0
2019/10/11 19:58:00 BASE 3.93 163 4.89 170 -4.1 65 -9.7 178 0 982.6 NA 0.0000 9999 4300 0 0 0
2019/10/11 19:59:00 BASE 4.70 174 5.56 179 -4.1 65 -9.7 176 0 982.6 NA 0.0000 9999 3180 0 0 0
2019/10/11 20:00:00 BASE 5.24 179 5.81 179 -4.1 65 -9.6 172 0 982.6 NA 0.0000 9999 4300 23160 0 0
2019/10/11 20:01:00 BASE 5.42 179 5.81 179 -4.1 66 -9.6 169 0 982.6 NA 0.0000 9999 4860 0 0 0
2019/10/11 20:02:00 BASE 5.17 176 5.81 179 -4.1 66 -9.5 170 0 982.6 NA 0.0000 9999 4560 0 0 0
2019/10/11 20:03:00 BASE 4.56 177 5.81 179 -4.1 66 -9.5 174 0 982.6 NA 0.0000 9999 0 0 0 0
2019/10/11 20:04:00 BASE 4.20 167 5.81 179 -4.0 66 -9.4 177 0 982.6 NA 0.0000 9999 0 0 0 0
2019/10/11 20:05:00 BASE 4.35 154 5.81 179 -4.0 66 -9.4 179 0 982.6 NA 0.0000 9999 0 0 0 0
2019/10/11 20:06:00 BASE 4.43 154 5.81 179 -4.0 66 -9.5 178 0 982.6 NA 0.0000 9999 0 0 0 0
2019/10/11 20:07:00 BASE 3.70 152 5.81 179 -4.0 66 -9.5 176 0 982.6 NA 0.0000 9999 0 0 0 0
2019/10/11 20:08:00 BASE 2.40 161 5.81 179 -4.0 65 -9.5 179 0 982.6 NA 0.0000 9999 4530 0 0 0
2019/10/11 20:09:00 BASE 1.82 162 5.81 179 -4.0 65 -9.6 177 0 982.7 NA 0.0000 9999 4660 0 0 0
2019/10/11 20:10:00 BASE 2.34 154 5.61 146 -4.0 65 -9.6 182 0 982.7 NA 0.0000 9999 4690 0 0 0
2019/10/11 20:11:00 BASE 2.79 158 5.61 146 -4.0 65 -9.6 185 0 982.7 NA 0.0000 9999 0 0 0 0
2019/10/11 20:12:00 BASE 2.56 158 5.61 146 -4.1 66 -9.5 188 0 982.7 NA 0.0000 9999 0 0 0 0
2019/10/11 20:13:00 BASE 2.31 150 5.61 146 -4.1 66 -9.5 191 0 982.7 NA 0.0000 9999 4720 0 0 0
2019/10/11 20:14:00 BASE 2.41 136 5.14 155 -4.1 66 -9.5 192 0 982.7 NA 0.0000 9999 4530 0 0 0
2019/10/11 20:15:00 BASE 2.47 115 5.14 155 -4.3 67 -9.5 191 0 982.7 NA 0.0000 9999 4630 0 0 0
2019/10/11 20:16:00 BASE 2.15 106 3.50 143 -4.3 67 -9.5 188 0 982.7 NA 0.0000 9999 4430 5410 0 0
2019/10/11 20:17:00 BASE 2.17 108 3.45 151 -4.4 67 -9.5 185 0 982.7 NA 0.0000 9999 4430 0 0 0
2019/10/11 20:18:00 BASE 2.49 106 3.45 151 -4.5 68 -9.6 181 0 982.7 NA 0.0000 9999 4530 0 0 0
2019/10/11 20:19:00 BASE 3.07 105 3.70 107 -4.5 68 -9.6 181 0 982.7 NA 0.0000 9999 4430 0 0 0
2019/10/11 20:20:00 BASE 3.60 112 3.91 127 -4.5 68 -9.5 182 0 982.7 NA 0.0000 9999 4300 5090 0 0
2019/10/11 20:21:00 BASE 3.70 124 4.27 132 -4.5 69 -9.4 178 0 982.6 NA 0.0000 9999 5020 0 0 0
2019/10/11 20:22:00 BASE 3.90 136 4.42 141 -4.5 69 -9.3 180 0 982.6 NA 0.0000 9999 0 0 0 0
2019/10/11 20:23:00 BASE 4.20 142 4.48 143 -4.5 70 -9.3 180 0 982.6 NA 0.0000 9999 4630 0 0 0
2019/10/11 20:24:00 BASE 4.33 142 4.53 138 -4.6 70 -9.2 181 0 982.6 NA 0.0000 9999 0 0 0 0
2019/10/11 20:25:00 BASE 4.16 137 4.53 138 -4.6 71 -9.1 180 0 982.6 NA 0.0000 9999 0 0 0 0
2019/10/11 20:26:00 BASE 3.84 126 4.53 138 -4.6 71 -9.1 177 0 982.7 NA 0.0000 9999 0 0 0 0
2019/10/11 20:27:00 BASE 3.59 111 4.53 138 -4.6 71 -9.0 178 0 982.7 NA 0.0000 9999 0 0 0 0
2019/10/11 20:28:00 BASE 3.57 102 4.53 138 -4.6 72 -9.0 178 0 982.7 NA 0.0000 9999 0 0 0 0
2019/10/11 20:29:00 BASE 3.73 99 4.53 138 -4.6 72 -9.0 178 0 982.7 NA 0.0000 9999 0 0 0 0
2019/10/11 20:30:00 BASE 3.70 96 4.53 138 -4.6 72 -8.9 178 0 982.7 NA 0.0000 9999 0 0 0 0
2019/10/11 20:31:00 BASE 3.27 94 4.53 138 -4.6 72 -8.9 167 0 982.7 NA 0.0000 9999 0 0 0 0
2019/10/11 20:32:00 BASE 2.69 96 4.53 138 -4.6 72 -8.9 171 0 982.7 NA 0.0000 9999 0 0 0 0
2019/10/11 20:33:00 BASE 2.51 91 4.53 138 -4.6 72 -8.9 172 0 982.7 NA 0.0000 9999 0 0 0 0
2019/10/11 20:34:00 BASE 2.61 87 4.37 130 -4.5 72 -8.9 164 0 982.7 NA 0.0000 9999 0 0 0 0
2019/10/11 20:35:00 BASE 2.66 82 4.01 95 -4.5 72 -8.9 170 0 982.7 NA 0.0000 9999 0 0 0 0
2019/10/11 20:36:00 BASE 2.68 72 4.01 95 -4.5 71 -8.9 167 0 982.7 NA 0.0000 9999 0 0 0 0
2019/10/11 20:37:00 BASE 2.61 71 4.01 95 -4.5 71 -8.9 161 0 982.7 NA 0.0000 9999 0 0 0 0
2019/10/11 20:38:00 BASE 2.52 71 4.01 95 -4.5 71 -8.9 164 0 982.7 NA 0.0000 9999 0 0 0 0
2019/10/11 20:39:00 BASE 2.88 72 3.70 92 -4.6 72 -8.9 164 0 982.7 NA 0.0000 9999 0 0 0 0
2019/10/11 20:40:00 BASE 3.24 81 3.40 94 -4.6 72 -9.0 164 0 982.7 NA 0.0000 9999 0 0 0 0
2019/10/11 20:41:00 BASE 3.34 88 3.70 90 -4.7 72 -9.0 166 0 982.7 NA 0.0000 9999 0 0 0 0
2019/10/11 20:42:00 BASE 3.44 90 3.70 90 -4.8 72 -9.0 163 0 982.7 NA 0.0000 9999 0 0 0 0
2019/10/11 20:43:00 BASE 3.46 90 3.70 90 -4.8 72 -9.1 169 0 982.7 NA 0.0000 9999 0 0 0 0
2019/10/11 20:44:00 BASE 3.50 96 3.70 90 -4.8 72 -9.1 166 0 982.7 NA 0.0000 9999 0 0 0 0
2019/10/11 20:45:00 BASE 3.54 102 3.96 107 -4.8 72 -9.1 169 0 982.7 NA 0.0000 9999 0 0 0 0
2019/10/11 20:46:00 BASE 3.54 104 3.96 107 -4.8 71 -9.2 167 0 982.8 NA 0.0000 9999 0 0 0 0
2019/10/11 20:47:00 BASE 3.45 105 3.96 107 -4.8 71 -9.2 166 0 982.8 NA 0.0000 9999 0 0 0 0
2019/10/11 20:48:00 BASE 3.41 107 3.96 107 -4.8 71 -9.2 163 0 982.8 NA 0.0000 9999 0 0 0 0
2019/10/11 20:49:00 BASE 3.41 109 3.96 107 -4.8 71 -9.3 163 0 982.8 NA 0.0000 9999 0 0 0 0
2019/10/11 20:50:00 BASE 3.45 106 3.96 107 -4.7 71 -9.3 163 0 982.8 NA 0.0000 9999 0 0 0 0
2019/10/11 20:51:00 BASE 3.69 101 4.12 97 -4.7 70 -9.3 162 0 982.8 NA 0.0000 9999 0 0 0 0
2019/10/11 20:52:00 BASE 4.13 98 4.48 94 -4.7 70 -9.3 162 0 982.8 NA 0.0000 9999 0 0 0 0
2019/10/11 20:53:00 BASE 4.32 93 4.48 94 -4.6 70 -9.2 161 0 982.8 NA 0.0000 9999 0 0 0 0
2019/10/11 20:54:00 BASE 4.16 81 4.48 94 -4.6 71 -9.1 158 0 982.8 NA 0.0000 9999 0 0 0 0
2019/10/11 20:55:00 BASE 4.46 72 5.20 72 -4.6 71 -9.1 153 0 982.8 NA 0.0000 9999 4560 0 0 0
2019/10/11 20:56:00 BASE 5.03 76 5.40 81 -4.6 71 -9.1 151 0 982.8 NA 0.0000 9999 4690 0 0 0
2019/10/11 20:57:00 BASE 4.73 83 5.40 81 -4.7 71 -9.1 148 0 982.8 NA 0.0000 9999 0 0 0 0
2019/10/11 20:58:00 BASE 4.22 89 5.40 81 -4.7 71 -9.1 146 0 982.9 NA 0.0000 9999 0 0 0 0
2019/10/11 20:59:00 BASE 4.24 90 5.40 81 -4.7 71 -9.2 142 0 982.9 NA 0.0000 9999 0 0 0 0
2019/10/11 21:00:00 BASE 4.31 83 5.40 81 -4.7 71 -9.2 139 0 982.9 NA 0.0000 9999 0 0 0 0
2019/10/11 21:01:00 BASE 4.47 65 5.40 81 -4.7 71 -9.2 136 0 982.9 NA 0.0000 9999 0 0 0 0
2019/10/11 21:02:00 BASE 3.96 43 5.40 81 -4.7 70 -9.2 133 0 982.9 NA 0.0000 9999 0 0 0 0
2019/10/11 21:03:00 BASE 3.21 24 7.41 14 -4.7 70 -9.3 130 0 982.9 NA 0.0000 9999 0 0 0 0
2019/10/11 21:04:00 BASE 6.02 14 10.80 11 -4.6 70 -9.3 127 0 982.8 NA 0.0000 9999 0 0 0 0
2019/10/11 21:05:00 BASE 6.01 2 10.80 11 -4.5 69 -9.3 125 0 982.8 NA 0.0000 9999 0 0 0 0
2019/10/11 21:06:00 BASE 2.21 332 10.80 11 -4.3 67 -9.5 122 0 982.8 NA 0.0000 9999 0 0 0 0
2019/10/11 21:07:00 BASE 1.14 290 10.80 11 -4.1 65 -9.7 121 0 982.8 NA 0.0000 9999 0 0 0 0
2019/10/11 21:08:00 BASE 1.64 263 10.80 11 -3.9 63 -10.0 119 0 982.8 NA 0.0000 9999 0 0 0 0
2019/10/11 21:09:00 BASE 2.92 255 10.80 11 -3.8 61 -10.3 117 0 982.7 NA 0.0000 9999 0 0 0 0
2019/10/11 21:10:00 BASE 4.13 259 10.80 11 -3.8 59 -10.6 116 0 982.7 NA 0.0000 9999 0 0 0 0
2019/10/11 21:11:00 BASE 4.28 276 10.80 11 -3.7 58 -10.8 114 0 982.7 NA 0.0000 9999 0 0 0 0
2019/10/11 21:12:00 BASE 3.19 288 10.80 11 -3.6 57 -10.9 113 0 982.7 NA 0.0000 9999 0 0 0 0
2019/10/11 21:13:00 BASE 2.55 269 10.80 11 -3.6 56 -11.0 111 0 982.7 NA 0.0000 9999 0 0 0 0
2019/10/11 21:14:00 BASE 3.75 253 5.81 249 -3.6 56 -11.1 110 0 982.7 NA 0.0000 9999 0 0 0 0
2019/10/11 21:15:00 BASE 5.20 252 6.12 253 -3.6 56 -11.2 108 0 982.7 NA 0.0000 9999 0 0 0 0
2019/10/11 21:16:00 BASE 5.83 251 7.31 248 -3.7 56 -11.2 106 0 982.6 NA 0.0000 9999 0 0 0 0
2019/10/11 21:17:00 BASE 6.00 248 7.31 248 -3.8 57 -11.1 104 0 982.6 NA 0.0000 9999 21820 0 0 0
2019/10/11 21:18:00 BASE 5.94 241 7.31 248 -3.8 58 -11.0 101 0 982.7 NA 0.0000 9999 0 0 0 0
2019/10/11 21:19:00 BASE 5.73 235 7.31 248 -3.9 58 -10.9 99 0 982.7 NA 0.0000 9999 0 0 0 0
2019/10/11 21:20:00 BASE 5.07 223 7.31 248 -3.9 59 -10.8 97 0 982.7 NA 0.0000 9999 0 0 0 0
2019/10/11 21:21:00 BASE 4.87 209 7.31 248 -3.9 59 -10.7 97 0 982.7 NA 0.0000 9999 0 0 0 0
2019/10/11 21:22:00 BASE 5.51 194 7.31 248 -4.0 60 -10.6 96 0 982.6 NA 0.0000 9999 0 0 0 0
2019/10/11 21:23:00 BASE 6.73 180 8.23 169 -4.1 61 -10.5 95 0 982.6 NA 0.0000 9999 0 0 0 0
2019/10/11 21:24:00 BASE 7.83 170 8.54 166 -4.2 63 -10.3 94 0 982.6 NA 0.0000 9999 0 0 0 0
2019/10/11 21:25:00 BASE 8.44 166 9.05 165 -4.4 64 -10.1 92 0 982.6 NA 0.0000 9999 0 0 0 0
2019/10/11 21:26:00 BASE 8.97 164 9.77 164 -4.5 66 -9.9 91 0 982.6 NA 0.0000 9999 0 0 0 0
2019/10/11 21:27:00 BASE 9.33 163 9.88 163 -4.5 67 -9.7 90 0 982.6 NA 0.0000 9999 0 0 0 0
2019/10/11 21:28:00 BASE 8.93 161 9.88 163 -4.6 69 -9.5 88 0 982.6 NA 0.0000 9999 0 0 0 0
2019/10/11 21:29:00 BASE 8.63 156 9.88 163 -4.6 70 -9.2 89 0 982.6 NA 0.0000 9999 0 0 0 0
2019/10/11 21:30:00 BASE 8.80 155 9.88 163 -4.6 71 -9.1 88 0 982.6 NA 0.0000 9999 0 0 0 0
2019/10/11 21:31:00 BASE 8.83 151 9.88 163 -4.6 72 -9.0 87 0 982.6 NA 0.0000 9999 0 0 0 0
2019/10/11 21:32:00 BASE 9.30 150 10.29 155 -4.6 72 -8.9 86 0 982.6 NA 0.0000 9999 0 0 0 0
2019/10/11 21:33:00 BASE 9.68 152 10.29 155 -4.6 73 -8.8 86 0 982.6 NA 0.0000 9999 0 0 0 0
2019/10/11 21:34:00 BASE 10.03 153 10.96 156 -4.7 73 -8.8 85 0 982.7 NA 0.0000 9999 0 0 0 0
2019/10/11 21:35:00 BASE 9.73 155 10.96 156 -4.7 73 -8.7 84 0 982.7 NA 0.0000 9999 0 0 0 0
2019/10/11 21:36:00 BASE 8.55 152 10.96 156 -4.7 74 -8.7 83 0 982.7 NA 0.0000 9999 0 0 0 0
2019/10/11 21:37:00 BASE 8.34 151 10.96 156 -4.7 74 -8.7 83 0 982.8 NA 0.0000 9999 0 0 0 0
2019/10/11 21:38:00 BASE 8.07 145 10.96 156 -4.8 74 -8.7 82 0 982.8 NA 0.0000 9999 0 0 0 0
2019/10/11 21:39:00 BASE 7.63 137 10.96 156 -4.8 74 -8.7 81 0 982.8 NA 0.0000 9999 0 0 0 0
2019/10/11 21:40:00 BASE 7.62 135 10.96 156 -4.8 74 -8.7 80 0 982.8 NA 0.0000 9999 0 0 0 0
2019/10/11 21:41:00 BASE 7.67 136 10.96 156 -4.8 74 -8.7 79 0 982.9 NA 0.0000 9999 0 0 0 0
2019/10/11 21:42:00 BASE 7.71 136 10.96 156 -4.9 74 -8.7 78 0 982.9 NA 0.0000 9999 0 0 0 0
2019/10/11 21:43:00 BASE 7.57 135 10.96 156 -4.9 74 -8.8 77 0 982.9 NA 0.0000 9999 0 0 0 0
2019/10/11 21:44:00 BASE 7.38 136 9.62 157 -4.9 74 -8.9 77 0 982.9 NA 0.0000 9999 0 0 0 0
2019/10/11 21:45:00 BASE 7.09 137 8.95 148 -4.9 74 -8.9 76 0 982.9 NA 0.0000 9999 0 0 0 0
2019/10/11 21:46:00 BASE 6.86 137 8.95 148 -4.9 73 -9.0 75 0 982.9 NA 0.0000 9999 0 0 0 0
2019/10/11 21:47:00 BASE 6.68 139 8.54 138 -5.0 73 -9.1 74 0 982.9 NA 0.0000 9999 0 0 0 0
2019/10/11 21:48:00 BASE 6.47 137 8.54 138 -5.1 73 -9.1 73 0 982.9 NA 0.0000 9999 0 0 0 0
2019/10/11 21:49:00 BASE 6.30 134 8.39 132 -5.1 73 -9.1 72 0 982.9 NA 0.0000 9999 0 0 0 0
2019/10/11 21:50:00 BASE 6.36 130 8.39 132 -5.2 73 -9.2 71 0 983.0 NA 0.0000 9999 0 0 0 0
2019/10/11 21:51:00 BASE 6.60 129 8.39 132 -5.2 74 -9.2 70 0 983.1 NA 0.0000 9999 0 0 0 0
2019/10/11 21:52:00 BASE 6.93 133 8.39 132 -5.2 74 -9.1 69 0 983.0 NA 0.0000 9999 0 0 0 0
2019/10/11 21:53:00 BASE 6.81 137 7.97 138 -5.2 74 -9.1 68 0 983.0 NA 0.0000 9999 0 0 0 0
2019/10/11 21:54:00 BASE 6.40 136 7.72 141 -5.2 74 -9.1 68 0 983.0 NA 0.0000 9999 0 0 0 0
2019/10/11 21:55:00 BASE 6.25 134 7.51 130 -5.2 74 -9.1 67 0 983.0 NA 0.0000 9999 0 0 0 0
2019/10/11 21:56:00 BASE 6.11 131 7.51 130 -5.2 74 -9.1 66 0 983.1 NA 0.0000 9999 0 0 0 0
2019/10/11 21:57:00 BASE 5.84 127 7.51 130 -5.2 74 -9.1 65 0 983.0 NA 0.0000 9999 0 0 0 0
2019/10/11 21:58:00 BASE 5.35 125 7.51 130 -5.2 74 -9.0 64 0 982.9 NA 0.0000 9999 0 0 0 0
2019/10/11 21:59:00 BASE 5.11 125 7.51 130 -5.1 74 -9.0 63 0 982.9 NA 0.0000 9999 0 0 0 0
2019/10/11 22:00:00 BASE 5.09 123 7.51 130 -5.1 74 -9.0 62 0 982.9 NA 0.0000 9999 0 0 0 0
2019/10/11 22:01:00 BASE 4.89 119 7.41 136 -5.2 74 -9.1 62 0 982.9 NA 0.0000 9999 0 0 0 0
2019/10/11 22:02:00 BASE 4.73 117 6.84 142 -5.3 74 -9.2 61 0 982.9 NA 0.0000 9999 19820 0 0 0
2019/10/11 22:03:00 BASE 4.85 118 6.48 134 -5.4 73 -9.4 60 0 982.9 NA 0.0000 9999 0 0 0 0
2019/10/11 22:04:00 BASE 4.76 119 6.38 135 -5.4 73 -9.5 59 0 982.9 NA 0.0000 9999 0 0 0 0
2019/10/11 22:05:00 BASE 4.38 117 6.12 133 -5.5 73 -9.6 58 0 982.9 NA 0.0000 9999 0 0 0 0
2019/10/11 22:06:00 BASE 4.43 112 6.02 127 -5.6 72 -9.8 57 0 982.9 NA 0.0000 9999 0 0 0 0
2019/10/11 22:07:00 BASE 4.89 105 5.61 124 -5.7 72 -9.9 56 0 982.9 NA 0.0000 9999 0 0 0 0
2019/10/11 22:08:00 BASE 5.33 100 5.81 94 -5.7 72 -10.0 55 0 982.9 NA 0.0000 9999 0 0 0 0
2019/10/11 22:09:00 BASE 5.75 95 6.43 90 -5.8 71 -10.1 54 0 982.9 NA 0.0000 9999 0 0 0 0
2019/10/11 22:10:00 BASE 5.64 92 6.43 90 -5.7 71 -10.2 53 0 982.9 NA 0.0000 9999 0 0 0 0
2019/10/11 22:11:00 BASE 5.00 94 6.43 90 -5.6 70 -10.2 51 0 982.9 NA 0.0000 9999 0 0 0 0
2019/10/11 22:12:00 BASE 4.99 90 6.43 90 -5.5 68 -10.4 50 0 982.9 NA 0.0000 9999 0 0 0 0
2019/10/11 22:13:00 BASE 5.24 87 6.43 90 -5.4 67 -10.6 49 0 982.9 NA 0.0000 9999 0 0 0 0
2019/10/11 22:14:00 BASE 5.21 85 6.43 90 -5.3 65 -10.8 48 0 982.9 NA 0.0000 9999 0 0 0 0
2019/10/11 22:15:00 BASE 4.73 84 6.43 90 -5.2 64 -10.9 47 0 982.9 NA 0.0000 9999 0 0 0 0
2019/10/11 22:16:00 BASE 4.30 88 6.43 90 -5.1 63 -11.1 46 0 982.9 NA 0.0000 9999 0 0 0 0
2019/10/11 22:17:00 BASE 4.21 87 6.43 90 -5.1 62 -11.2 45 0 982.9 NA 0.0000 9999 0 0 0 0
2019/10/11 22:18:00 BASE 4.74 86 6.43 90 -5.1 62 -11.3 44 0 982.9 NA 0.0000 9999 0 0 0 0
2019/10/11 22:19:00 BASE 5.75 91 6.33 93 -5.2 62 -11.4 43 0 982.9 NA 0.0000 9999 0 0 0 0
2019/10/11 22:20:00 BASE 5.97 93 6.33 93 -5.3 62 -11.5 42 0 982.9 NA 0.0000 9999 0 0 0 0
2019/10/11 22:21:00 BASE 5.79 91 6.33 93 -5.5 63 -11.5 41 0 982.9 NA 0.0000 9999 0 0 0 0
2019/10/11 22:22:00 BASE 6.14 91 6.84 93 -5.5 64 -11.4 39 0 982.9 NA 0.0000 9999 0 0 0 0
2019/10/11 22:23:00 BASE 6.26 94 6.84 93 -5.6 64 -11.2 38 0 982.9 NA 0.0000 9999 0 0 0 0
2019/10/11 22:24:00 BASE 5.83 91 6.84 93 -5.5 64 -11.2 37 0 982.9 NA 0.0000 9999 0 0 0 0
2019/10/11 22:25:00 BASE 5.88 84 6.84 93 -5.5 64 -11.2 36 0 982.9 NA 0.0000 9999 0 0 0 0
2019/10/11 22:26:00 BASE 5.60 81 6.84 93 -5.4 64 -11.1 35 0 982.9 NA 0.0000 9999 0 0 0 0
2019/10/11 22:27:00 BASE 4.84 78 6.84 93 -5.3 63 -11.1 34 0 982.9 NA 0.0000 9999 0 0 0 0
2019/10/11 22:28:00 BASE 4.77 79 6.84 93 -5.2 63 -11.2 33 0 982.9 NA 0.0000 9999 0 0 0 0
2019/10/11 22:29:00 BASE 4.63 80 6.84 93 -5.1 63 -11.1 31 0 982.9 NA 0.0000 9999 0 0 0 0
2019/10/11 22:30:00 BASE 4.67 81 6.84 93 -5.1 63 -11.1 30 0 982.9 NA 0.0000 9999 0 0 0 0
2019/10/11 22:31:00 BASE 5.14 81 6.84 93 -5.1 63 -11.1 29 0 982.9 NA 0.0000 9999 0 0 0 0
2019/10/11 22:32:00 BASE 5.31 82 6.69 86 -5.1 62 -11.1 28 0 982.9 NA 0.0000 9999 0 0 0 0
2019/10/11 22:33:00 BASE 5.35 80 6.69 86 -5.0 62 -11.2 27 0 982.9 NA 0.0000 9999 0 0 0 0
2019/10/11 22:34:00 BASE 5.28 77 6.69 86 -5.0 62 -11.2 26 0 982.9 NA 0.0000 9999 0 0 0 0
2019/10/11 22:35:00 BASE 5.35 78 5.86 75 -5.0 62 -11.2 25 0 982.9 NA 0.0000 9999 0 0 0 0
2019/10/11 22:36:00 BASE 5.15 77 5.86 75 -5.0 62 -11.1 24 0 982.9 NA 0.0000 9999 0 0 0 0
2019/10/11 22:37:00 BASE 4.90 77 5.86 75 -4.9 62 -11.1 23 0 982.9 NA 0.0000 9999 0 0 0 0
2019/10/11 22:38:00 BASE 5.12 74 5.86 75 -4.8 61 -11.1 22 0 982.9 NA 0.0000 9999 0 0 0 0
2019/10/11 22:39:00 BASE 4.55 73 5.86 75 -4.7 61 -11.1 21 0 982.9 NA 0.0000 9999 0 0 0 0
2019/10/11 22:40:00 BASE 3.36 84 5.86 75 -4.6 61 -11.1 20 0 982.9 NA 0.0000 9999 0 0 0 0
2019/10/11 22:41:00 BASE 3.34 92 5.86 75 -4.6 60 -11.1 19 0 982.9 NA 0.0000 9999 0 0 0 0
2019/10/11 22:42:00 BASE 3.48 86 5.86 75 -4.6 60 -11.2 18 0 982.9 NA 0.0000 9999 0 0 0 0
2019/10/11 22:43:00 BASE 3.41 79 5.86 75 -4.7 60 -11.2 18 0 982.9 NA 0.0000 9999 0 0 0 0
2019/10/11 22:44:00 BASE 4.07 81 5.86 75 -4.8 61 -11.2 17 0 982.9 NA 0.0000 9999 0 0 0 0
2019/10/11 22:45:00 BASE 4.80 74 6.02 64 -4.9 61 -11.2 16 0 982.9 NA 0.0000 9999 0 0 0 0
2019/10/11 22:46:00 BASE 4.17 61 6.02 64 -4.8 61 -11.1 15 0 982.9 NA 0.0000 9999 0 0 0 0
2019/10/11 22:47:00 BASE 2.47 57 6.02 64 -4.7 61 -11.1 15 0 982.9 NA 0.0000 9999 0 0 0 0
2019/10/11 22:48:00 BASE 1.90 52 6.02 64 -4.6 61 -11.0 14 0 982.9 NA 0.0000 9999 0 0 0 0
2019/10/11 22:49:00 BASE 1.63 41 6.02 64 -4.5 61 -11.0 13 0 982.9 NA 0.0000 9999 0 0 0 0
2019/10/11 22:50:00 BASE 0.57 48 6.02 64 -4.5 60 -11.0 13 0 982.9 NA 0.0000 9999 0 0 0 0
2019/10/11 22:51:00 BASE 0.10 92 6.02 64 -4.5 60 -11.0 12 0 982.9 NA 0.0000 9999 0 0 0 0
2019/10/11 22:52:00 BASE 1.20 102 6.02 64 -4.5 60 -11.0 11 0 983.0 NA 0.0000 9999 0 0 0 0
2019/10/11 22:53:00 BASE 2.63 81 6.02 64 -4.6 61 -11.1 11 0 983.0 NA 0.0000 9999 0 0 0 0
2019/10/11 22:54:00 BASE 2.56 64 6.02 64 -4.7 61 -11.0 10 0 983.1 NA 0.0000 9999 0 0 0 0
2019/10/11 22:55:00 BASE 3.12 72 5.86 62 -4.7 62 -10.9 10 0 983.0 NA 0.0000 9999 0 0 0 0
2019/10/11 22:56:00 BASE 4.05 60 5.97 46 -4.8 62 -10.9 9 0 983.0 NA 0.0000 9999 0 0 0 0
2019/10/11 22:57:00 BASE 3.98 45 6.22 76 -4.8 62 -10.9 9 0 983.0 NA 0.0000 9999 0 0 0 0
2019/10/11 22:58:00 BASE 4.27 63 6.22 76 -4.7 63 -10.8 8 0 982.9 NA 0.0000 9999 0 0 0 0
2019/10/11 22:59:00 BASE 4.20 65 6.22 76 -4.7 62 -10.8 8 0 983.0 NA 0.0000 9999 0 0 0 0
2019/10/11 23:00:00 BASE 3.11 51 6.22 76 -4.7 62 -10.8 8 0 983.1 NA 0.0000 9999 0 0 0 0
2019/10/11 23:01:00 BASE 2.65 55 6.22 76 -4.7 62 -10.8 7 0 983.1 NA 0.0000 9999 0 0 0 0
2019/10/11 23:02:00 BASE 3.72 66 6.22 76 -4.7 62 -10.8 7 0 983.1 NA 0.0000 9999 0 0 0 0
2019/10/11 23:03:00 BASE 4.22 62 6.22 76 -4.7 62 -10.9 6 0 983.1 NA 0.0000 9999 0 0 0 0
2019/10/11 23:04:00 BASE 3.75 60 6.22 76 -4.7 62 -10.9 6 0 983.1 NA 0.0000 9999 0 0 0 0
2019/10/11 23:05:00 BASE 3.34 58 6.22 76 -4.8 62 -10.9 5 0 983.1 NA 0.0000 9999 0 0 0 0
2019/10/11 23:06:00 BASE 3.19 48 6.22 76 -4.8 62 -11.0 5 0 983.1 NA 0.0000 9999 0 0 0 0
2019/10/11 23:07:00 BASE 2.57 36 5.14 77 -4.9 62 -10.9 5 0 983.1 NA 0.0000 9999 0 0 0 0
2019/10/11 23:08:00 BASE 1.93 41 5.04 70 -4.8 63 -10.9 4 0 983.1 NA 0.0000 9999 0 0 0 0
2019/10/11 23:09:00 BASE 2.42 64 5.04 70 -4.8 63 -10.8 4 0 983.1 NA 0.0000 9999 0 0 0 0
2019/10/11 23:10:00 BASE 2.56 59 5.04 70 -4.7 62 -10.9 4 0 983.1 NA 0.0000 9999 0 0 0 0
2019/10/11 23:11:00 BASE 1.57 69 5.04 70 -4.6 62 -10.9 3 0 983.1 NA 0.0000 9999 0 0 0 0
2019/10/11 23:12:00 BASE 0.56 123 4.68 56 -4.5 61 -10.9 3 0 983.1 NA 0.0000 9999 0 0 0 0
2019/10/11 23:13:00 BASE 0.59 217 4.58 82 -4.4 60 -11.0 3 0 983.2 NA 0.0000 9999 0 0 0 0
2019/10/11 23:14:00 BASE 2.04 281 4.58 82 -4.5 59 -11.2 3 0 983.2 NA 0.0000 9999 0 0 0 0
2019/10/11 23:15:00 BASE 3.65 302 4.58 82 -4.6 60 -11.3 3 0 983.2 NA 0.0000 9999 0 0 0 0
2019/10/11 23:16:00 BASE 4.13 310 4.58 82 -4.8 60 -11.3 2 0 983.2 NA 0.0000 9999 0 0 0 0
2019/10/11 23:17:00 BASE 3.37 323 4.58 82 -4.9 61 -11.3 2 0 983.2 NA 0.0000 9999 0 0 0 0
2019/10/11 23:18:00 BASE 2.99 318 4.58 82 -5.0 62 -11.2 2 0 983.2 NA 0.0000 9999 0 0 0 0
2019/10/11 23:19:00 BASE 3.37 304 4.48 306 -5.1 63 -11.1 2 0 983.2 NA 0.0000 9999 0 0 0 0
2019/10/11 23:20:00 BASE 2.94 294 4.48 306 -5.1 63 -11.1 2 0 983.3 NA 0.0000 9999 0 0 0 0
2019/10/11 23:21:00 BASE 1.73 233 4.48 306 -5.1 63 -11.1 2 0 983.3 NA 0.0000 9999 0 0 0 0
2019/10/11 23:22:00 BASE 1.25 123 4.48 306 -5.2 63 -11.2 2 0 983.3 NA 0.0000 9999 0 0 0 0
2019/10/11 23:23:00 BASE 0.74 111 4.48 306 -5.2 63 -11.2 1 0 983.3 NA 0.0000 9999 0 0 0 0
2019/10/11 23:24:00 BASE 0.00 47 4.48 306 -5.2 63 -11.2 1 0 983.4 NA 0.0000 9999 0 0 0 0
2019/10/11 23:25:00 BASE 1.11 328 4.42 312 -5.1 63 -11.1 1 0 983.4 NA 0.0000 9999 0 0 0 0
2019/10/11 23:26:00 BASE 3.10 283 5.20 279 -5.0 62 -11.1 1 0 983.3 NA 0.0000 9999 0 0 0 0
2019/10/11 23:27:00 BASE 3.57 265 5.20 279 -4.9 62 -11.1 1 0 983.3 NA 0.0000 9999 0 0 0 0
2019/10/11 23:28:00 BASE 3.01 271 5.20 279 -4.9 61 -11.2 1 0 983.3 NA 0.0000 9999 0 0 0 0
2019/10/11 23:29:00 BASE 2.10 296 5.20 279 -4.8 61 -11.2 1 0 983.4 NA 0.0000 9999 0 0 0 0
2019/10/11 23:30:00 BASE 0.78 293 5.20 279 -4.8 61 -11.2 1 0 983.4 NA 0.0000 9999 0 0 0 0
2019/10/11 23:31:00 BASE 0.40 293 5.20 279 -4.8 61 -11.1 1 0 983.4 NA 0.0000 9999 0 0 0 0
2019/10/11 23:32:00 BASE 0.34 311 5.20 279 -4.8 61 -11.2 1 0 983.4 NA 0.0000 9999 0 0 0 0
2019/10/11 23:33:00 BASE 0.06 181 5.20 279 -4.8 61 -11.2 1 0 983.4 NA 0.0000 9999 0 0 0 0
2019/10/11 23:34:00 BASE 0.05 133 5.20 279 -4.8 60 -11.3 1 0 983.5 NA 0.0000 9999 0 0 0 0
2019/10/11 23:35:00 BASE 0.05 78 5.20 279 -4.8 60 -11.3 0 0 983.5 NA 0.0000 9999 0 0 0 0
2019/10/11 23:36:00 BASE 0.23 59 3.91 256 -4.9 60 -11.4 0 0 983.5 NA 0.0000 9999 0 0 0 0
2019/10/11 23:37:00 BASE 0.32 56 3.70 290 -4.9 61 -11.4 0 0 983.5 NA 0.0000 9999 0 0 0 0
2019/10/11 23:38:00 BASE 0.09 40 2.06 306 -5.0 61 -11.4 0 0 983.5 NA 0.0000 9999 0 0 0 0
2019/10/11 23:39:00 BASE 0.00 53 1.59 294 -4.9 61 -11.3 0 0 983.5 NA 0.0000 9999 0 0 0 0
2019/10/11 23:40:00 BASE 0.00 105 1.59 294 -4.9 61 -11.4 0 0 983.5 NA 0.0000 9999 0 0 0 0
2019/10/11 23:41:00 BASE 0.00 181 1.34 320 -4.9 60 -11.4 0 0 983.5 NA 0.0000 9999 0 0 0 0
2019/10/11 23:42:00 BASE 0.00 199 1.18 62 -4.8 60 -11.4 0 0 983.5 NA 0.0000 9999 0 0 0 0
2019/10/11 23:43:00 BASE 0.37 154 3.19 105 -4.8 60 -11.4 0 0 983.5 NA 0.0000 9999 0 0 0 0
2019/10/11 23:44:00 BASE 2.28 107 5.40 94 -4.9 60 -11.5 0 0 983.5 NA 0.0000 9999 0 0 0 0
2019/10/11 23:45:00 BASE 4.35 103 5.97 102 -5.1 60 -11.7 0 0 983.5 NA 0.0000 9999 0 0 0 0
2019/10/11 23:46:00 BASE 4.62 98 5.97 102 -5.4 61 -11.8 0 0 983.5 NA 0.0000 9999 0 0 0 0
2019/10/11 23:47:00 BASE 4.76 96 6.28 107 -5.7 62 -11.9 0 0 983.5 NA 0.0000 9999 0 0 0 0
2019/10/11 23:48:00 BASE 5.03 89 6.28 107 -5.9 63 -11.9 0 0 983.5 NA 0.0000 9999 0 0 0 0
2019/10/11 23:49:00 BASE 4.09 71 6.28 107 -6.0 64 -11.7 0 0 983.5 NA 0.0000 9999 0 0 0 0
2019/10/11 23:50:00 BASE 2.84 48 6.28 107 -5.9 65 -11.4 0 0 983.5 NA 0.0000 9999 0 0 0 0
2019/10/11 23:51:00 BASE 2.09 30 6.28 107 -5.7 65 -11.2 0 0 983.5 NA 0.0000 9999 0 0 0 0
2019/10/11 23:52:00 BASE 2.46 60 6.28 107 -5.5 65 -11.1 0 0 983.5 NA 0.0000 9999 0 0 0 0
2019/10/11 23:53:00 BASE 3.03 98 6.28 107 -5.2 64 -10.9 0 0 983.5 NA 0.0000 9999 0 0 0 0
2019/10/11 23:54:00 BASE 2.95 108 6.28 107 -5.1 64 -10.9 0 0 983.5 NA 0.0000 9999 0 0 0 0
2019/10/11 23:55:00 BASE 3.41 110 6.28 107 -5.1 64 -10.9 0 0 983.5 NA 0.0000 9999 0 0 0 0
2019/10/11 23:56:00 BASE 3.48 109 6.28 107 -5.1 64 -10.8 0 0 983.5 NA 0.0000 9999 0 0 0 0
2019/10/11 23:57:00 BASE 3.79 109 6.12 77 -5.2 65 -10.7 0 0 983.5 NA 0.0000 9999 0 0 0 0
2019/10/11 23:58:00 BASE 4.46 108 5.30 105 -5.2 65 -10.7 0 0 983.5 NA 0.0000 9999 0 0 0 0
2019/10/11 23:59:00 BASE 4.67 101 5.45 100 -5.2 66 -10.6 0 0 983.5 NA 0.0000 9999 0 0 0 0